[[{"header":{"parameterUnit":"m.s-1","parameterCategory":1,"la1":30.6,"la2":29.2853,"lo1":-89.7004,"lo2":-87.6739,"dy":0.0162,"dx":0.0183,"nx":112,"ny":82,"refTime":"2024-07-20T06:00:00:Z","depth":0,"parameterNumber":2,"parameterNumberName":"U-component_of_WINDS"},"data":[0.0,0.0,0.0,0.0,0.0,0.0,0.0,0.0,0.0,0.0,0.0,0.0,0.0,0.0,0.0,0.0,0.0,0.0,0.0,0.0,0.0,0.0,0.0,0.0,0.0,0.0,0.0,0.0,0.0,0.0,0.0,0.0,0.0,0.0,0.0,0.0,0.0,0.0,0.0,0.0,0.0,0.0,0.0,0.0,0.0,0.0,0.0,0.0,0.0,0.0,0.0,0.0,0.0,0.0,0.0,0.0,0.0,0.0,0.0,0.0,0.0,0.0,0.0,0.0,0.0,0.0,0.0,0.0,0.0,0.0,0.0,0.0,0.0,0.0,0.0,0.0,0.0,0.0,0.0,0.0,0.0,0.0,0.0,0.0,0.0,0.0,0.0,0.0,0.0,0.0,0.0,-1.7169,-2.0335,-2.2296,-2.2296,-2.1498,-1.9515,-1.5994,0.0,0.0,0.0,0.0,0.0,0.0,0.0,0.0,0.0,0.0,0.0,0.0,0.0,0.0,0.0,0.0,0.0,0.0,0.0,0.0,0.0,0.0,0.0,0.0,0.0,0.0,0.0,0.0,0.0,0.0,0.0,0.0,0.0,0.0,0.0,0.0,0.0,0.0,0.0,0.0,0.0,0.0,0.0,0.0,0.0,0.0,0.0,0.0,0.0,0.0,0.0,0.0,0.0,0.0,0.0,0.0,0.0,0.0,0.0,0.0,0.0,0.0,0.0,0.0,0.0,0.0,0.0,0.0,0.0,0.0,0.0,0.0,0.0,0.0,0.0,0.0,0.0,0.0,0.0,0.0,0.0,0.0,0.0,0.0,0.0,0.0,0.0,0.0,0.0,0.0,0.0,0.0,0.0,0.0,0.0,0.0,0.0,0.0,0.0,0.0,0.0,0.0,0.0,0.0,-1.5957,-2.0078,-2.16,-2.2296,-2.2296,-2.0995,-1.9135,-1.6688,0.0,0.0,0.0,0.0,0.0,0.0,0.0,0.0,0.0,0.0,0.0,0.0,0.0,0.0,0.0,0.0,0.0,0.0,0.0,0.0,0.0,0.0,0.0,0.0,0.0,0.0,0.0,0.0,0.0,0.0,0.0,0.0,0.0,0.0,0.0,0.0,0.0,0.0,0.0,0.0,0.0,0.0,0.0,0.0,0.0,0.0,0.0,0.0,0.0,0.0,0.0,0.0,0.0,0.0,0.0,0.0,0.0,0.0,0.0,0.0,0.0,0.0,0.0,0.0,0.0,0.0,0.0,0.0,0.0,0.0,0.0,0.0,0.0,0.0,0.0,0.0,0.0,0.0,0.0,0.0,0.0,0.0,0.0,0.0,0.0,0.0,0.0,0.0,0.0,0.0,0.0,0.0,0.0,0.0,0.0,0.0,0.0,0.0,0.0,0.0,0.0,0.0,0.0,-1.5425,-1.7231,-2.1363,-2.2107,-2.2296,-2.2296,-2.0893,-1.8882,-1.6265,-1.4725,0.0,0.0,0.0,0.0,0.0,0.0,0.0,0.0,0.0,0.0,0.0,0.0,0.0,0.0,0.0,0.0,0.0,0.0,0.0,0.0,0.0,0.0,0.0,0.0,0.0,0.0,0.0,0.0,0.0,0.0,0.0,0.0,0.0,0.0,0.0,0.0,0.0,0.0,0.0,0.0,0.0,0.0,0.0,0.0,0.0,0.0,0.0,0.0,0.0,0.0,0.0,0.0,0.0,0.0,0.0,0.0,0.0,0.0,0.0,0.0,0.0,0.0,0.0,0.0,0.0,0.0,0.0,0.0,0.0,0.0,0.0,0.0,0.0,0.0,0.0,0.0,0.0,0.0,0.0,0.0,0.0,0.0,0.0,0.0,0.0,0.0,0.0,0.0,0.0,0.0,0.0,0.0,0.0,0.0,0.0,0.0,0.0,0.0,0.0,0.0,0.0,0.0,-1.7361,-1.8724,-2.1941,-2.2296,-2.2296,-2.2296,-2.0572,-1.8374,-1.5764,-1.3879,0.0,0.0,0.0,0.0,0.0,0.0,0.0,0.0,0.0,0.0,0.0,0.0,0.0,0.0,0.0,0.0,0.0,0.0,0.0,0.0,0.0,0.0,0.0,0.0,0.0,0.0,0.0,0.0,0.0,0.0,0.0,0.0,0.0,0.0,0.0,0.0,0.0,0.0,0.0,0.0,0.0,0.0,0.0,0.0,0.0,0.0,0.0,0.0,0.0,0.0,0.0,0.0,0.0,0.0,0.0,0.0,0.0,0.0,0.0,0.0,0.0,0.0,0.0,0.0,0.0,0.0,0.0,0.0,0.0,0.0,0.0,0.0,0.0,0.0,0.0,0.0,0.0,0.0,0.0,0.0,0.0,0.0,0.0,0.0,0.0,0.0,0.0,0.0,0.0,0.0,0.0,0.0,0.0,0.0,0.0,0.0,0.0,0.0,0.0,0.0,0.0,0.0,-1.8058,-2.042,-2.211,-2.2296,-2.2296,-2.2296,-1.9625,-1.7276,-1.5697,-1.2872,0.0,0.0,0.0,0.0,0.0,0.0,0.0,0.0,0.0,0.0,0.0,0.0,0.0,0.0,0.0,0.0,0.0,0.0,0.0,0.0,0.0,0.0,0.0,0.0,0.0,0.0,0.0,0.0,0.0,0.0,0.0,0.0,0.0,0.0,0.0,0.0,0.0,0.0,0.0,0.0,0.0,0.0,0.0,0.0,0.0,0.0,0.0,0.0,0.0,0.0,0.0,0.0,0.0,0.0,0.0,0.0,0.0,0.0,0.0,0.0,0.0,0.0,0.0,0.0,0.0,0.0,0.0,0.0,0.0,0.0,0.0,0.0,0.0,0.0,0.0,0.0,0.0,0.0,0.0,0.0,0.0,0.0,0.0,0.0,0.0,0.0,0.0,0.0,0.0,0.0,0.0,0.0,0.0,0.0,0.0,0.0,0.0,0.0,0.0,0.0,0.0,0.0,-1.7333,-1.9575,0.0,-2.2296,-2.2296,-2.2296,-2.0386,-1.8155,-1.5747,0.0,0.0,0.0,0.0,0.0,0.0,0.0,0.0,0.0,0.0,0.0,0.0,0.0,0.0,0.0,0.0,0.0,0.0,0.0,0.0,0.0,0.0,0.0,0.0,0.0,0.0,0.0,0.0,0.0,0.0,0.0,0.0,0.0,0.0,0.0,0.0,0.0,0.0,0.0,0.0,0.0,0.0,0.0,0.0,0.0,0.0,0.0,0.0,0.0,0.0,0.0,0.0,0.0,0.0,0.0,0.0,0.0,0.0,0.0,0.0,0.0,0.0,0.0,0.0,0.0,0.0,0.0,0.0,0.0,0.0,0.0,0.0,0.0,0.0,0.0,0.0,0.0,0.0,0.0,0.0,0.0,0.0,0.0,0.0,0.0,0.0,0.0,0.0,0.0,0.0,0.0,0.0,0.0,0.0,0.0,0.0,0.0,0.0,0.0,0.0,0.0,0.0,-1.5118,-1.7238,-1.9473,0.0,-2.2296,-2.2296,-2.2296,-2.0471,-1.8239,-1.5764,0.0,0.0,0.0,0.0,0.0,0.0,0.0,0.0,0.0,0.0,0.0,0.0,0.0,0.0,0.0,0.0,0.0,0.0,0.0,0.0,0.0,0.0,0.0,0.0,0.0,0.0,0.0,0.0,0.0,0.0,0.0,0.0,0.0,0.0,0.0,0.0,0.0,0.0,0.0,0.0,0.0,0.0,0.0,0.0,0.0,0.0,0.0,0.0,0.0,0.0,0.0,0.0,0.0,0.0,0.0,0.0,0.0,0.0,0.0,0.0,0.0,0.0,0.0,0.0,0.0,0.0,0.0,0.0,0.0,0.0,0.0,0.0,0.0,0.0,0.0,0.0,0.0,0.0,0.0,0.0,0.0,0.0,0.0,0.0,0.0,0.0,0.0,0.0,0.0,0.0,0.0,0.0,0.0,0.0,0.0,0.0,0.0,0.0,0.0,0.0,0.0,0.0,-1.5101,-1.8051,-2.0589,-2.2144,-2.2296,-2.2296,-2.2296,-1.9541,-1.7191,0.0,0.0,0.0,0.0,0.0,0.0,0.0,0.0,0.0,0.0,0.0,0.0,0.0,0.0,0.0,0.0,0.0,0.0,0.0,0.0,0.0,0.0,0.0,0.0,0.0,0.0,0.0,0.0,0.0,0.0,0.0,0.0,0.0,0.0,0.0,0.0,0.0,0.0,0.0,0.0,0.0,0.0,0.0,0.0,0.0,0.0,0.0,0.0,0.0,0.0,0.0,0.0,0.0,0.0,0.0,0.0,0.0,0.0,0.0,0.0,0.0,0.0,0.0,0.0,0.0,0.0,0.0,0.0,0.0,0.0,0.0,0.0,0.0,0.0,0.0,0.0,0.0,0.0,0.0,0.0,0.0,0.0,0.0,0.0,0.0,0.0,0.0,0.0,0.0,0.0,0.0,0.0,0.0,0.0,0.0,0.0,0.0,0.0,0.0,0.0,0.0,0.0,0.0,0.0,-1.8051,-2.0589,-2.2144,-2.2296,-2.2296,-2.2296,-2.0487,-1.8273,-1.5764,0.0,0.0,0.0,0.0,0.0,0.0,0.0,0.0,0.0,0.0,0.0,0.0,0.0,0.0,0.0,0.0,0.0,0.0,0.0,0.0,0.0,0.0,0.0,0.0,0.0,0.0,0.0,0.0,0.0,0.0,0.0,0.0,0.0,0.0,0.0,0.0,0.0,0.0,0.0,0.0,0.0,0.0,0.0,0.0,0.0,0.0,0.0,0.0,0.0,0.0,0.0,0.0,0.0,0.0,0.0,0.0,0.0,0.0,0.0,0.0,0.0,0.0,0.0,0.0,0.0,0.0,0.0,0.0,0.0,0.0,0.0,0.0,0.0,0.0,0.0,0.0,0.0,0.0,0.0,0.0,0.0,0.0,0.0,0.0,0.0,0.0,0.0,0.0,0.0,0.0,0.0,0.0,0.0,0.0,0.0,0.0,0.0,0.0,0.0,0.0,0.0,0.0,-1.5148,-1.8062,-2.0589,-2.2144,-2.2296,-2.2296,-2.2296,-2.0893,-1.8865,-1.6214,0.0,0.0,0.0,0.0,0.0,0.0,0.0,0.0,0.0,0.0,0.0,0.0,0.0,0.0,0.0,0.0,0.0,0.0,0.0,0.0,0.0,0.0,0.0,0.0,0.0,0.0,0.0,0.0,0.0,0.0,0.0,0.0,0.0,0.0,0.0,0.0,0.0,0.0,0.0,0.0,0.0,0.0,0.0,0.0,0.0,0.0,0.0,0.0,0.0,0.0,0.0,0.0,0.0,0.0,0.0,0.0,0.0,0.0,0.0,0.0,0.0,0.0,0.0,0.0,0.0,0.0,0.0,0.0,0.0,0.0,0.0,0.0,0.0,0.0,0.0,0.0,0.0,0.0,0.0,0.0,0.0,0.0,0.0,0.0,0.0,0.0,0.0,0.0,0.0,0.0,0.0,0.0,0.0,0.0,0.0,0.0,0.0,0.0,0.0,0.0,0.0,0.0,-1.5298,-1.8124,-2.0589,-2.2144,-2.2296,-2.2296,-2.2296,-2.0893,-1.9084,-1.6942,0.0,0.0,0.0,0.0,0.0,0.0,0.0,0.0,0.0,0.0,0.0,0.0,0.0,0.0,0.0,0.0,0.0,0.0,0.0,0.0,0.0,0.0,0.0,0.0,0.0,0.0,0.0,0.0,0.0,0.0,0.0,0.0,0.0,0.0,0.0,0.0,0.0,0.0,0.0,0.0,0.0,0.0,0.0,0.0,0.0,0.0,0.0,0.0,0.0,0.0,0.0,0.0,0.0,0.0,0.0,0.0,0.0,0.0,0.0,0.0,-1.2836,0.0,0.0,0.0,0.0,0.0,0.0,0.0,0.0,0.0,0.0,0.0,0.0,0.0,0.0,0.0,0.0,0.0,0.0,0.0,0.0,0.0,0.0,0.0,0.0,0.0,0.0,0.0,0.0,0.0,0.0,0.0,0.0,0.0,0.0,0.0,0.0,0.0,0.0,0.0,0.0,0.0,-1.6005,-1.8456,-2.0589,-2.2144,-2.2296,-2.2296,-2.2296,-2.0893,-1.9292,-1.7676,0.0,0.0,0.0,0.0,0.0,0.0,0.0,0.0,0.0,0.0,0.0,0.0,0.0,0.0,0.0,0.0,0.0,0.0,0.0,0.0,0.0,0.0,0.0,0.0,0.0,0.0,0.0,0.0,0.0,0.0,0.0,0.0,0.0,0.0,0.0,0.0,0.0,0.0,0.0,0.0,0.0,0.0,0.0,0.0,0.0,0.0,0.0,0.0,0.0,0.0,0.0,0.0,0.0,0.0,0.0,0.0,0.0,0.0,0.0,0.0,0.0,-1.4105,0.0,0.0,0.0,0.0,0.0,0.0,0.0,0.0,0.0,0.0,0.0,0.0,0.0,0.0,0.0,0.0,0.0,0.0,0.0,0.0,0.0,0.0,0.0,0.0,0.0,0.0,0.0,0.0,0.0,0.0,0.0,0.0,0.0,0.0,0.0,0.0,0.0,0.0,0.0,0.0,-1.6357,-1.8925,-2.1025,-2.2178,-2.2296,-2.2296,-2.2296,-2.1231,-1.9942,-1.842,-1.6576,0.0,0.0,0.0,0.0,0.0,0.0,0.0,0.0,0.0,0.0,0.0,0.0,0.0,0.0,0.0,0.0,0.0,0.0,0.0,0.0,0.0,0.0,0.0,0.0,0.0,0.0,0.0,0.0,0.0,0.0,0.0,0.0,0.0,0.0,0.0,0.0,0.0,0.0,0.0,0.0,0.0,0.0,0.0,0.0,0.0,0.0,0.0,0.0,0.0,0.0,0.0,0.0,0.0,0.0,0.0,-1.8232,-1.7884,-1.8232,-1.9018,-1.8116,-1.7354,-1.6658,0.0,0.0,0.0,0.0,0.0,0.0,0.0,0.0,0.0,0.0,0.0,0.0,0.0,0.0,0.0,0.0,0.0,0.0,0.0,0.0,0.0,0.0,0.0,0.0,0.0,-1.8961,-1.8775,0.0,0.0,0.0,0.0,0.0,0.0,0.0,0.0,0.0,0.0,0.0,0.0,-1.6881,-1.9481,-2.1478,-2.2212,-2.2296,-2.2296,-2.2296,-2.1617,-2.0649,-1.9379,-1.7788,-1.6011,0.0,0.0,0.0,0.0,0.0,0.0,0.0,0.0,0.0,0.0,0.0,0.0,0.0,0.0,0.0,0.0,0.0,0.0,0.0,0.0,0.0,0.0,0.0,0.0,0.0,0.0,0.0,0.0,0.0,0.0,0.0,0.0,-0.8996,-0.9667,0.0,0.0,0.0,0.0,0.0,0.0,0.0,0.0,0.0,0.0,0.0,0.0,0.0,0.0,-1.6877,-1.8319,-1.9085,-1.92,-2.1036,-2.1648,-2.1282,-2.246,-2.2394,-2.1431,-2.2526,0.0,-1.8158,-1.7387,0.0,0.0,0.0,0.0,0.0,0.0,0.0,0.0,0.0,0.0,0.0,0.0,0.0,0.0,0.0,0.0,0.0,0.0,0.0,0.0,0.0,0.0,-2.1417,-2.0886,-2.1312,-2.1566,0.0,-1.833,-1.6282,-1.5351,0.0,0.0,0.0,0.0,0.0,0.0,0.0,0.0,-1.8432,-2.0124,-2.1478,-2.2212,-2.2296,-2.2296,-2.2296,-2.1617,-2.1106,-2.0903,-1.886,-1.7236,-1.6309,-1.4226,0.0,0.0,0.0,0.0,0.0,0.0,0.0,0.0,0.0,0.0,0.0,0.0,0.0,0.0,0.0,0.0,0.0,0.0,0.0,0.0,0.0,0.0,0.0,0.0,0.0,0.0,0.0,0.0,0.0,-0.9347,-1.0604,-1.0779,-1.1104,-1.1065,0.0,0.0,0.0,0.0,0.0,0.0,0.0,0.0,0.0,-1.7359,-1.8281,-1.9108,-1.9822,-2.1321,-2.2064,-2.2081,-2.3056,-2.3354,-2.3056,-2.3702,-2.3653,-2.3073,-2.3719,-2.3089,-2.1483,-1.9966,-1.8522,-1.7193,0.0,0.0,0.0,0.0,0.0,-1.7042,-1.8231,0.0,0.0,0.0,0.0,0.0,0.0,0.0,0.0,0.0,0.0,0.0,0.0,0.0,0.0,-2.1803,-2.2073,-2.2212,-2.1887,-2.0771,-1.9367,0.0,-1.7185,-1.6576,-1.5341,0.0,0.0,0.0,0.0,0.0,-1.9372,-2.0856,-2.1938,-2.2262,-2.2296,-2.2296,-2.2296,-2.2006,-2.1634,-2.1224,-1.9841,-1.8527,-1.7371,-1.5588,-1.3777,0.0,0.0,0.0,0.0,0.0,0.0,0.0,0.0,0.0,0.0,0.0,0.0,0.0,0.0,0.0,0.0,0.0,0.0,0.0,0.0,0.0,0.0,0.0,0.0,0.0,0.0,0.0,0.0,-1.1,-1.2042,-1.1951,-1.2781,-1.2925,0.0,0.0,0.0,0.0,0.0,0.0,-1.6921,-1.7412,-1.8239,-1.9503,-2.0841,-2.1812,-2.2359,-2.3454,-2.4,-2.4,-2.4199,-2.4183,-2.4017,-2.4398,-2.4365,-2.405,-2.4415,-2.4398,-2.3981,-2.2319,-2.0944,-1.9822,-1.9307,-1.8984,0.0,-1.9668,-1.9992,-2.0212,-2.1515,-2.1995,-2.185,-2.0716,0.0,-1.9174,-1.7462,0.0,0.0,0.0,0.0,-1.9985,-2.091,0.0,-2.2138,-2.2496,-2.2581,-2.2533,-2.233,-2.2296,-2.1803,0.0,-1.9616,-1.8973,-1.7331,0.0,0.0,0.0,0.0,-1.9688,-2.0234,-2.1468,-2.2296,-2.2296,-2.2296,-2.2296,-2.2296,-2.2296,-2.1989,-2.1241,-2.0437,-1.941,-1.8121,-1.6661,-1.5283,0.0,0.0,0.0,0.0,0.0,0.0,0.0,0.0,0.0,0.0,0.0,0.0,0.0,0.0,0.0,0.0,0.0,0.0,0.0,0.0,0.0,0.0,0.0,0.0,0.0,0.0,0.0,0.0,0.0,0.0,-1.3401,-1.5115,0.0,0.0,0.0,0.0,-1.6055,-1.6632,-1.7669,-1.9339,-2.0642,-2.1744,-2.2659,-2.3437,-2.3851,-2.3884,-2.3967,-2.4,-2.4017,-2.4713,-2.4679,-2.405,-2.5458,-2.536,-2.4181,-2.5579,-2.5497,-2.4368,-2.4061,-2.3481,-2.2797,-2.2887,-2.2497,-2.1974,-2.2771,-2.3087,-2.3203,-2.4037,-2.4321,-2.4321,-2.4237,-2.2798,-2.1055,-2.0953,-1.9921,0.0,0.0,-2.2076,-2.2448,-2.3898,-2.4305,-2.4169,-2.3494,-2.3342,-2.3156,-2.2448,-2.2296,-2.2262,0.0,-2.1549,-2.1038,-2.0936,0.0,0.0,-1.9782,-2.0517,-2.1089,-2.1123,-2.182,-2.2296,-2.2296,-2.2296,-2.2296,-2.2296,-2.2296,-2.1989,-2.1241,-2.0437,-1.9659,-1.8877,-1.7433,-1.6282,-1.5494,-1.3997,0.0,0.0,0.0,0.0,0.0,0.0,0.0,0.0,0.0,0.0,0.0,0.0,0.0,0.0,0.0,0.0,0.0,0.0,0.0,0.0,0.0,0.0,0.0,0.0,0.0,0.0,0.0,0.0,-1.6368,-1.7446,0.0,0.0,-1.6835,-1.7588,-1.8308,-1.947,-2.0586,-2.1667,-2.2629,-2.329,-2.3603,-2.4332,-2.4944,-2.5407,-2.5889,-2.6122,-2.6138,-2.6387,-2.612,-2.5424,-2.5954,-2.5922,-2.5476,-2.6061,-2.603,-2.5631,-2.5698,-2.501,-2.3979,-2.4027,-2.3874,-2.3686,-2.3971,-2.4073,-2.4122,-2.4391,-2.4491,-2.4491,-2.4491,-2.3966,-2.3323,-2.3323,-2.2934,-2.268,-2.3492,-2.3729,-2.3848,-2.4355,-2.4491,-2.4423,-2.4169,-2.4118,-2.4051,-2.378,-2.3342,-2.3004,-2.3004,-2.2412,-2.1752,-2.1275,-2.1363,-2.1316,-2.0839,-2.1414,-2.1904,-2.1904,-2.2127,-2.2296,-2.2296,-2.2296,-2.2296,-2.2296,-2.2296,-2.1989,-2.1241,-2.0437,-1.9676,-1.8927,-1.7929,-1.705,-1.6316,-1.5334,-1.3726,0.0,0.0,0.0,0.0,0.0,0.0,0.0,0.0,0.0,0.0,0.0,0.0,0.0,0.0,0.0,0.0,0.0,0.0,0.0,0.0,0.0,0.0,0.0,0.0,0.0,0.0,-1.8,-1.8334,-1.935,-1.9597,-1.855,-1.9373,-2.0279,-2.0966,-2.1966,-2.2758,-2.3238,-2.3967,-2.4381,-2.4381,-2.5325,-2.6071,-2.6568,-2.7298,-2.7663,-2.7663,-2.7663,-2.7431,-2.6949,-2.6949,-2.6985,-2.7058,-2.7097,-2.6984,-2.6837,-2.7246,-2.6708,-2.5592,-2.5337,-2.5235,-2.5235,-2.5235,-2.5235,-2.5235,-2.5235,-2.5235,-2.5202,-2.4948,-2.488,-2.4829,-2.4575,-2.4491,-2.4541,-2.4795,-2.488,-2.4931,-2.5185,-2.5235,-2.5185,-2.4931,-2.488,-2.4795,-2.4541,-2.4118,-2.378,-2.378,-2.297,-2.2127,-2.1651,-2.1972,-2.2141,-2.1634,-2.1989,-2.2296,-2.2296,-2.2296,-2.2296,-2.2296,-2.2296,-2.2296,-2.2296,-2.2296,-2.1989,-2.1241,-2.0437,-1.9676,-1.8927,-1.7946,-1.7202,-1.6716,-1.5731,-1.4631,-1.3413,0.0,0.0,0.0,0.0,0.0,0.0,0.0,0.0,0.0,0.0,0.0,0.0,0.0,0.0,0.0,0.0,0.0,0.0,0.0,0.0,0.0,0.0,0.0,-1.735,-1.8358,-1.9114,-1.9178,-2.075,-2.1564,-2.0834,-2.2094,-2.3222,-2.3951,-2.4017,-2.4033,-2.4033,-2.4746,-2.5126,-2.5176,-2.6553,-2.7315,-2.7383,-2.8061,-2.8426,-2.8426,-2.8426,-2.8426,-2.8392,-2.8392,-2.8508,-2.8697,-2.8697,-2.837,-2.7891,-2.867,-2.8535,-2.7773,-2.7046,-2.6776,-2.6725,-2.6725,-2.6708,-2.6691,-2.6691,-2.6691,-2.6573,-2.5879,-2.5626,-2.5507,-2.4795,-2.4558,-2.4728,-2.5439,-2.5626,-2.5812,-2.6505,-2.6691,-2.6522,-2.5812,-2.5626,-2.5439,-2.4728,-2.4541,-2.4525,-2.4525,-2.3359,-2.2347,-2.233,-2.2313,-2.2296,-2.2296,-2.2296,0.0,-2.2296,-2.2296,-2.2296,-2.2296,-2.2296,-2.2296,-2.2296,-2.2296,-2.1972,-2.1207,-2.042,-1.9676,-1.8927,-1.7534,-1.6766,-1.6766,-1.5341,-1.4943,-1.5629,0.0,0.0,0.0,0.0,0.0,0.0,0.0,0.0,0.0,0.0,0.0,0.0,0.0,0.0,0.0,0.0,0.0,0.0,0.0,0.0,0.0,0.0,-1.8702,-1.855,-1.9883,-2.0984,-2.1241,-2.2185,-2.269,-2.2341,-2.3156,-2.3785,-2.3984,-2.4497,-2.4812,-2.4812,-2.5508,-2.6137,-2.6685,-2.7083,-2.7796,-2.882,-2.9019,-2.9135,-2.9135,-2.9135,-2.887,-2.8392,-2.8392,-2.845,-2.8565,-2.8659,-2.8636,-2.8561,-2.8872,-2.8874,-2.8654,-2.8451,-2.801,-2.7503,-2.7503,-2.7165,-2.6691,-2.6691,-2.6691,-2.6657,-2.6454,-2.6404,-2.6353,-2.6166,-2.6099,-2.6149,-2.6336,-2.6404,-2.6437,-2.664,-2.6691,-2.664,-2.6437,-2.6404,-2.6336,-2.6149,-2.5676,-2.5304,-2.5304,-2.4541,-2.3729,-2.319,-2.2649,-2.2296,-2.2296,0.0,0.0,-2.2296,-2.2296,-2.2296,-2.2296,-2.2296,-2.2296,-2.2296,-2.2296,-2.1738,0.0,-2.0132,-1.9676,-1.8927,-1.8516,-1.8296,-1.8296,-1.7371,-1.6728,0.0,0.0,0.0,0.0,0.0,0.0,0.0,0.0,0.0,0.0,0.0,0.0,0.0,0.0,0.0,0.0,0.0,0.0,0.0,0.0,0.0,0.0,-1.9093,-2.0308,-2.0445,-2.1238,-2.1881,-2.2088,-2.2681,-2.3145,-2.3337,-2.4033,-2.4597,-2.4911,-2.5607,-2.6005,-2.6005,-2.6717,-2.7332,-2.7746,-2.8028,-2.8572,-2.938,-2.9711,-2.986,-2.986,-2.986,-2.9685,-2.9364,-2.9364,-2.9426,0.0,-2.9621,-2.953,-2.9372,-2.9751,-2.9736,0.0,0.0,0.0,0.0,0.0,-2.8027,-2.7673,-2.7673,-2.7673,-2.7622,-2.7266,-2.7385,-2.7554,-2.6911,-2.6911,-2.7097,-2.6793,-2.6691,-2.6691,-2.6691,-2.6691,-2.6691,-2.6691,-2.6691,-2.6691,-2.6691,-2.6353,-2.6065,-2.6065,0.0,0.0,-2.4391,-2.346,-2.2767,-2.2767,-2.2499,-2.2296,0.0,-2.2296,-2.2296,-2.2296,-2.2296,-2.2296,-2.2296,-2.2296,0.0,0.0,0.0,-2.0027,-1.8944,0.0,0.0,0.0,0.0,0.0,0.0,0.0,0.0,0.0,-1.7166,-1.6892,0.0,0.0,0.0,0.0,0.0,0.0,0.0,0.0,0.0,0.0,0.0,0.0,0.0,0.0,0.0,0.0,-2.0819,-2.1914,-2.2426,-2.2271,-2.213,-2.2197,-2.2695,-2.3305,-2.405,-2.4795,-2.5541,-2.627,-2.6934,-2.735,-2.7415,0.0,0.0,0.0,0.0,-2.943,-2.9512,-3.0174,-3.0506,-3.0526,-3.0526,-3.0589,-3.0712,-3.0712,-3.0814,-3.0995,-3.0995,-3.0701,-3.0258,-3.092,-3.0818,-3.0159,-2.9397,-2.9128,-2.9111,-2.9027,-2.8993,0.0,0.0,0.0,0.0,-2.818,-2.8416,-2.8739,-2.7385,-2.7351,-2.7655,-2.7012,-2.6759,-2.6691,-2.6691,-2.6691,-2.6691,-2.6691,-2.6691,-2.6691,-2.6691,-2.6691,-2.6691,-2.6691,-2.6167,-2.5711,-2.5711,-2.4492,-2.3509,-2.341,-2.2852,0.0,-2.2313,-2.2296,-2.2296,-2.2296,0.0,0.0,-2.2296,-2.2296,-2.2262,-2.2192,-2.1563,-2.0581,-1.9227,-1.9232,-1.9232,-1.9147,-1.9232,-1.9921,-2.119,-2.1275,-2.1326,-2.1258,-1.8461,-1.8143,0.0,0.0,0.0,0.0,0.0,0.0,0.0,0.0,0.0,0.0,0.0,0.0,0.0,0.0,0.0,-2.0205,-2.1586,-2.2552,-2.2511,-2.2271,-2.2315,-2.2906,-2.3463,-2.4083,-2.4829,-2.554,-2.6303,-2.7033,-2.7216,-2.7564,-2.816,-2.8326,0.0,-2.9201,-2.9314,-2.9678,-3.0274,-3.0423,-3.0568,-3.0651,0.0,0.0,-3.0871,-3.0871,-3.0895,-3.0995,-3.0995,-3.1007,-3.1004,-3.114,-3.1106,-3.0903,-3.0176,-2.9888,-2.982,-2.923,-2.8993,-2.8993,-2.8993,-2.8993,-2.8976,-2.8824,-2.8874,-2.8942,-2.8654,-2.8197,0.0,-2.7621,-2.7165,-2.6691,-2.6691,-2.6691,-2.6691,-2.6691,-2.6691,-2.6691,-2.6691,-2.6691,-2.6691,-2.6691,-2.6573,-2.6488,-2.6488,-2.5269,-2.4085,-2.3477,-2.3274,-2.297,-2.2381,-2.2296,-2.2296,-2.2296,-2.2296,-2.2296,-2.2296,-2.2296,-2.2057,-2.1461,-2.1275,-2.1072,-2.0767,-2.1329,-2.1363,-2.0767,-2.1346,-2.1498,-2.119,-2.1803,-2.209,-2.206,-2.1471,-2.1086,0.0,0.0,0.0,0.0,0.0,0.0,0.0,0.0,0.0,0.0,0.0,-1.7976,0.0,0.0,-2.1002,-2.194,-2.2705,-2.3219,-2.329,-2.3281,-2.3238,-2.3192,-2.3663,-2.4299,-2.5027,-2.6104,-2.6901,-2.7265,-2.7961,-2.8506,-2.887,-2.9311,-2.9696,-3.0045,-3.0122,-3.0346,-3.0692,-3.0692,-3.0733,-3.081,-3.081,-3.0834,-3.0952,-3.0952,-3.0995,-3.1112,-3.1112,-3.1151,-3.119,-3.119,-3.119,-3.1157,-3.0784,-3.0649,-3.0615,-3.0226,-3.011,-3.011,-3.011,-3.011,-3.0042,-2.9668,-2.9786,-2.9974,-2.9213,-2.8722,-2.8332,-2.7908,-2.7283,-2.6691,-2.6691,-2.6691,-2.6691,-2.6691,-2.6691,-2.6691,-2.6691,-2.6691,-2.6691,-2.6691,-2.6691,-2.6691,-2.6691,-2.6099,-2.5354,-2.4611,-2.3866,-2.3274,-2.2902,-2.253,-2.2296,-2.2296,-2.2296,-2.2296,-2.2296,-2.2296,-2.2127,-2.1769,-2.1752,-2.1752,-2.1752,-2.2093,-2.2141,-2.1752,-2.2124,-2.2124,-2.1752,-2.211,-2.2296,-2.2296,-2.2296,-2.2107,0.0,0.0,0.0,0.0,0.0,0.0,0.0,0.0,-1.7016,-1.8562,-1.9317,-2.013,-2.1586,-2.1936,-2.2394,-2.3627,-2.3791,-2.3891,-2.4224,-2.4384,-2.4292,-2.3696,-2.398,-2.4497,-2.5243,-2.6519,-2.7348,-2.7497,-2.8688,-2.9466,-2.9636,-3.0318,-3.0712,-3.0733,-3.0834,-3.0892,-3.0892,-3.0892,-3.0912,-3.0932,-3.0932,-3.0955,-3.1035,-3.1035,-3.1112,-3.119,-3.119,-3.119,-3.119,-3.119,-3.119,-3.119,-3.119,-3.119,-3.119,-3.119,-3.119,-3.119,-3.119,-3.119,-3.1106,-3.0514,-3.0717,-3.097,-2.9788,-2.9331,-2.9076,-2.8415,-2.7723,-2.7114,-2.6945,-2.6911,-2.6877,-2.6725,-2.6691,-2.6691,-2.6691,-2.6691,-2.6691,-2.6691,-2.6691,-2.6691,-2.6691,-2.6691,-2.6437,-2.571,-2.4594,-2.3782,-2.363,-2.3088,-2.2682,-2.253,-2.2499,-2.2462,-2.2313,-2.2296,-2.2296,-2.2296,-2.2296,-2.2296,-2.2296,-2.2296,-2.2296,-2.2296,-2.2296,-2.2296,-2.2296,-2.2296,-2.2364,-2.2499,-2.2499,-2.2499,-1.3064,-1.3604,-1.4698,-1.6854,-1.6974,-1.7664,0.0,0.0,-2.1259,-2.2807,-2.3177,-2.3262,-2.3415,-2.3458,-2.3634,-2.4151,-2.4325,-2.4502,-2.4777,-2.4829,-2.4929,-2.5126,-2.5046,-2.5259,-2.6003,-2.6818,-2.7564,-2.8227,-2.8969,-2.9739,-3.0505,-3.0642,-3.0753,-3.0871,-3.0892,-3.0892,-3.0892,-3.0892,-3.0932,-3.0995,-3.0995,-3.1072,-3.1171,-3.1171,-3.119,-3.119,-3.119,-3.119,-3.119,-3.119,-3.119,-3.119,-3.119,-3.119,-3.119,-3.119,-3.119,-3.119,-3.119,-3.119,-3.119,-3.1106,-3.1123,-3.1157,-3.0987,-3.0497,-2.9973,-2.9869,-2.9313,-2.8587,-2.7858,-2.7672,-2.7503,-2.686,-2.6691,-2.6691,-2.6691,-2.6691,-2.6691,-2.6691,-2.6691,-2.6691,-2.6691,-2.6691,-2.6437,-2.571,-2.5457,-2.5118,-2.4457,-2.4305,-2.4,-2.3342,-2.3274,-2.3004,-2.2347,-2.2296,-2.2296,-2.2296,-2.2296,-2.2296,-2.2296,-2.2296,-2.2296,-2.2296,-2.2296,-2.2296,-2.2296,-2.2296,-2.2649,-2.3274,-2.3274,-2.3274,-1.6239,-1.719,0.0,0.0,-1.9721,-2.0717,-2.2709,-2.2662,-2.25,-2.3578,-2.3771,-2.3757,-2.375,-2.3565,-2.369,0.0,-2.4912,-2.5306,-2.5907,-2.5811,-2.5639,-2.5589,-2.533,-2.5426,-2.6119,-2.7302,-2.8137,-2.8453,-2.9593,-3.0436,-3.0814,-3.0855,-3.0895,-3.0972,-3.1032,-3.1072,-3.1072,-3.1072,-3.1092,-3.1112,-3.1112,-3.1151,-3.119,-3.119,-3.119,-3.119,-3.119,-3.119,-3.119,-3.119,-3.119,-3.119,-3.119,-3.119,-3.119,-3.119,-3.119,-3.119,-3.119,-3.119,-3.119,-3.119,-3.119,-3.119,-3.119,-3.0683,-3.0108,-3.0108,-2.9228,-2.823,-2.7891,-2.7486,-2.708,-2.6776,-2.6691,-2.6691,-2.6691,-2.6691,-2.6691,-2.6691,-2.6691,-2.6691,-2.6691,-2.6691,-2.659,-2.6285,-2.5879,-2.549,-2.5169,-2.4778,-2.4372,-2.4068,-2.3661,-2.3274,-2.297,-2.2547,-2.2296,-2.2296,-2.2296,-2.2296,-2.2296,-2.2296,-2.2296,-2.2296,-2.2296,-2.2296,-2.2296,-2.2719,-2.3105,-2.341,-2.3848,-2.4272,-1.8298,0.0,0.0,-2.0572,-2.1667,-2.2753,-2.2952,-2.2988,-2.3161,-2.3687,-2.3761,-2.3747,-2.3785,-2.3569,0.0,-2.5127,-2.5511,-2.5985,-2.6987,-2.6619,-2.6187,-2.6053,-2.5678,-2.5682,-2.6333,-2.7479,-2.8294,-2.8548,-2.9811,-3.0657,-3.0915,-3.0975,-3.1015,-3.1055,-3.1151,-3.119,-3.119,-3.119,-3.119,-3.119,-3.119,-3.119,-3.119,-3.119,-3.1309,-3.1495,-3.1495,-3.1495,-3.1495,-3.1495,-3.1376,-3.119,-3.119,-3.119,-3.119,-3.119,-3.119,-3.119,-3.119,-3.119,-3.119,-3.119,-3.119,-3.119,-3.119,-3.0835,-3.0412,-3.0412,-2.96,-2.8635,-2.8229,-2.7723,-2.7233,-2.6793,-2.6691,-2.6708,-2.6742,-2.6758,-2.6758,-2.6758,-2.6758,-2.6742,-2.6708,-2.6691,-2.6691,-2.6691,-2.6251,-2.5913,-2.5913,-2.5253,-2.4795,-2.4795,-2.4137,-2.3697,-2.3697,-2.3207,-2.2919,-2.2919,-2.2733,-2.26,-2.26,-2.2398,-2.2398,-2.2598,-2.26,-2.2699,-2.2919,-2.3427,-2.3799,-2.4019,-2.4543,-2.5202,0.0,0.0,-2.0481,-2.1278,-2.2083,-2.288,-2.3596,-2.3769,-2.3759,-2.3806,-2.3795,-2.3795,-2.3795,-2.3795,-2.4292,-2.5914,-2.6057,-2.6442,-2.7775,-2.6992,-2.645,-2.6816,-2.6336,-2.6215,0.0,-2.7228,-2.7781,-2.8628,-2.9348,-3.0104,-3.0962,-3.0995,-3.1055,-3.119,-3.119,-3.119,-3.119,-3.119,-3.119,-3.119,-3.119,-3.119,-3.119,-3.119,-3.1599,-3.2276,-3.2276,-3.2276,-3.2276,-3.2276,-3.1853,-3.119,-3.119,-3.119,-3.119,-3.119,-3.119,-3.119,-3.119,-3.119,-3.119,-3.119,-3.119,-3.119,-3.119,-3.1173,-3.1157,-3.1157,-3.1123,-3.0768,-2.9331,-2.8942,-2.8553,-2.7063,-2.6691,-2.6742,-2.6859,-2.6893,-2.6893,-2.6893,-2.6893,-2.6842,-2.6725,-2.6691,-2.6691,-2.6691,-2.6674,-2.6657,-2.6657,-2.6031,-2.5575,-2.5575,-2.4914,-2.4457,-2.4457,-2.444,-2.4423,-2.4423,-2.3763,-2.3359,-2.3359,-2.2682,-2.2649,-2.3342,-2.3359,-2.3729,-2.4423,-2.4457,-2.4831,-2.5525,-2.5558,-2.5964,0.0,0.0,-2.1957,-2.2228,-2.2872,-2.3487,-2.3741,-2.3806,-2.3806,-2.3806,-2.3806,-2.3806,-2.3806,-2.3806,-2.432,-2.595,-2.6157,-2.6658,-2.818,-2.7906,-2.73,-2.6658,-2.6854,0.0,0.0,0.0,0.0,-2.9035,-2.9651,-3.0316,-3.1081,-3.1131,-3.1151,-3.119,-3.119,-3.119,-3.119,-3.119,-3.119,-3.119,-3.119,-3.1464,-3.1921,-3.141,-3.1867,-3.2983,-3.2005,-3.1853,-3.2259,-3.1769,-3.141,-3.119,-3.119,-3.119,-3.119,-3.119,-3.119,-3.119,-3.119,-3.119,-3.119,-3.119,-3.119,-3.119,-3.119,-3.119,-3.119,-3.119,-3.0893,-3.0423,-2.9932,-2.9423,-2.8813,-2.7862,-2.759,-2.7454,-2.7044,-2.6975,-2.6975,-2.6975,-2.6975,-2.6942,-2.6909,-2.6892,-2.6875,-2.6842,-2.6758,-2.6691,-2.6691,-2.6471,-2.6336,-2.6336,-2.5676,-2.522,-2.522,-2.4778,-2.4491,-2.4491,-2.4271,-2.4135,-2.4135,-2.3898,-2.3881,-2.4118,-2.4135,-2.4254,-2.4491,-2.4983,-2.5372,-2.5609,-2.6099,-2.6454,0.0,-2.23,-2.2753,-2.3035,-2.3451,-2.3806,-2.3806,-2.3806,-2.3723,-2.3451,-2.3415,-2.3324,-2.3035,-2.298,-2.3596,-2.5479,-2.5769,-2.653,-2.8721,-2.855,-2.811,-2.789,-2.8091,0.0,0.0,0.0,0.0,-2.9317,-2.9911,-3.0547,-3.1176,-3.119,-3.119,-3.119,-3.119,-3.119,-3.119,-3.119,-3.1326,-3.1616,-3.185,-3.2222,-3.2662,-3.1938,-3.2391,-3.3711,-3.2222,-3.2002,-3.2649,-3.1904,-3.1427,-3.119,-3.119,-3.119,-3.119,-3.119,-3.119,-3.119,-3.119,-3.119,-3.119,-3.119,-3.123,-3.1232,-3.1232,-3.1269,-3.1325,-3.1325,-3.1006,-3.0604,-3.0348,-2.9924,-2.9396,-2.8681,-2.8493,-2.8339,-2.7946,-2.7655,-2.7467,-2.7467,-2.7227,-2.704,-2.6991,-2.6991,-2.6992,-2.6942,-2.6859,-2.6775,-2.6708,-2.6691,-2.6691,-2.6691,-2.6285,-2.5998,-2.5998,-2.5558,-2.5286,-2.5286,-2.5049,-2.4897,-2.4897,-2.4643,-2.4626,-2.4897,-2.4897,-2.5032,-2.5286,-2.5761,-2.5998,-2.5998,-2.6471,-2.6691,-2.2264,-2.2735,-2.2916,-2.3632,-2.3806,-2.3806,-2.3806,-2.3759,-2.3524,-2.2789,-2.2608,-2.2337,0.0,0.0,-2.2238,-2.452,-2.4972,-2.6149,-2.9295,-2.8923,-2.8885,0.0,0.0,0.0,0.0,0.0,0.0,-2.9575,0.0,-3.0793,-3.1176,-3.119,-3.119,-3.119,-3.119,-3.1207,-3.1258,-3.1275,-3.1647,-3.2361,-3.3068,-3.3423,-3.344,-3.2679,-3.3173,-3.4472,-3.297,-3.2713,-3.3339,-3.2564,-3.1836,-3.119,-3.119,-3.119,-3.119,-3.119,-3.119,-3.119,-3.119,-3.119,-3.119,-3.119,-3.1252,-3.1295,-3.1295,-3.1387,-3.1498,-3.1498,-3.1498,-3.1346,-3.0647,-3.0459,-3.0271,-2.9554,-2.9383,-2.9366,-2.9403,-2.8853,-2.8355,-2.8355,-2.7702,-2.7138,-2.7041,-2.7007,-2.7007,-2.7007,-2.6991,-2.6942,-2.6742,-2.6725,-2.6725,-2.6725,-2.6725,-2.6708,-2.6708,-2.6708,-2.6708,-2.6691,-2.6048,-2.5659,-2.5659,-2.4982,-2.4948,-2.5642,-2.5659,-2.5998,-2.6691,-2.6691,-2.6691,-2.6691,-2.6691,-2.6708,-2.2427,-2.3107,-2.356,-2.3741,-2.3806,-2.3806,-2.3806,-2.3379,-2.2753,-2.1975,-2.1332,-2.0662,-1.9866,0.0,0.0,-2.3079,-2.4744,0.0,-2.8618,-2.97,0.0,0.0,0.0,-3.1232,-3.0555,-3.1265,0.0,0.0,-3.0784,-3.0793,-3.1176,-3.119,-3.119,-3.119,-3.119,-3.1464,-3.2005,-3.256,-3.2933,-3.3119,-3.3322,-3.3694,-3.4184,-3.3457,-3.3931,-3.5216,-3.319,-3.2713,-3.3305,-3.2002,-3.136,-3.119,-3.119,-3.119,-3.119,-3.119,-3.119,-3.119,-3.119,-3.119,-3.119,-3.119,-3.1252,-3.1295,-3.1295,-3.1387,-3.1498,-3.1498,-3.1538,-3.1526,-3.1338,-3.1286,-3.1135,-3.0486,-3.0261,-3.0054,-2.9575,-2.9334,-2.9196,-2.9196,-2.8576,-2.7887,-2.7321,-2.7153,-2.707,-2.707,-2.7023,-2.6975,-2.6942,-2.6908,-2.6908,-2.6908,-2.6908,-2.6892,-2.6859,-2.6842,-2.6809,-2.6708,-2.6522,-2.642,-2.642,-2.6251,-2.6234,-2.642,-2.642,-2.6505,-2.6691,-2.6691,-2.6691,-2.6691,-2.6691,-2.6996,-2.298,-2.3487,-2.3806,-2.3806,-2.3806,-2.3723,-2.3397,-2.2717,-2.183,-2.0699,-1.9811,0.0,-1.8189,0.0,0.0,0.0,0.0,0.0,-2.8328,-2.9989,-3.1056,0.0,-3.213,0.0,-3.1837,-3.2347,-3.2556,0.0,-3.1781,-3.1516,-3.1413,-3.1581,-3.1773,-3.1944,-3.1959,-3.2219,-3.2784,-3.3508,-3.388,-3.3897,-3.4218,-3.4568,-3.4962,-3.4218,-3.4523,-3.5481,0.0,-3.3017,-3.3322,-3.2154,-3.1478,-3.119,-3.119,-3.119,-3.119,-3.119,-3.119,-3.119,-3.119,-3.123,-3.1252,-3.1252,-3.131,-3.1445,-3.1637,-3.1766,-3.1875,-3.2038,-3.2109,-3.2127,-3.2127,-3.2127,-3.2039,-3.1706,-3.1464,-3.1202,-3.0803,-3.037,-2.9834,-2.9161,-2.8678,-2.8161,-2.742,-2.7233,-2.7184,-2.7184,-2.7153,-2.7138,-2.7138,-2.704,-2.6991,-2.6991,-2.6991,-2.6958,-2.6909,-2.6893,-2.6859,-2.6792,-2.6742,-2.6742,-2.6792,-2.6742,-2.6691,-2.6691,-2.6691,-2.6691,-2.6691,-2.6691,-2.6691,-2.6691,-2.6691,-2.6911,-2.3632,-2.3806,-2.3806,-2.3806,-2.3806,-2.3614,-2.2862,-2.1993,-2.088,-1.9276,0.0,-1.7338,-1.653,0.0,-1.9431,-2.0934,0.0,-2.5679,-2.8093,-2.9826,-3.1179,-3.2089,-3.2904,-3.3393,-3.3393,-3.3393,-3.3256,-3.2908,-3.2876,-3.2551,-3.1823,-3.2214,-3.2669,-3.3105,-3.3166,-3.3348,-3.3647,-3.4312,-3.4641,-3.4641,-3.5278,-3.56,-3.5583,-3.4945,-3.4996,-3.5515,0.0,0.0,-3.3339,-3.2615,-3.187,-3.119,-3.119,-3.119,-3.121,-3.1249,-3.1269,-3.1288,-3.1329,-3.1408,-3.1432,-3.1334,-3.1428,-3.167,-3.2073,-3.2283,-3.242,-3.2732,-3.2795,-3.2795,-3.2795,-3.2795,-3.2795,-3.2795,-3.2569,-3.2369,-3.2369,-3.1638,-3.0543,-2.9104,-2.8811,-2.8502,-2.7654,-2.7484,-2.7402,-2.7299,-2.7299,-2.7299,-2.7299,-2.7154,-2.704,-2.704,-2.704,-2.7024,-2.6925,-2.6942,-2.6926,-2.6909,-2.6809,-2.6792,-2.6909,-2.6792,-2.6742,-2.6742,-2.6708,-2.6691,-2.6691,-2.6691,-2.6691,-2.6691,-2.6793,-2.6894,-2.3769,-2.3806,-2.3806,-2.3806,-2.3806,-2.3614,-2.2862,-2.1558,0.0,0.0,0.0,-1.5675,-1.4861,-1.657,0.0,-1.9359,0.0,0.0,0.0,0.0,-3.0545,0.0,0.0,0.0,0.0,0.0,0.0,0.0,0.0,0.0,-3.2248,-3.2897,-3.3635,-3.4353,-3.4658,-3.4818,-3.4895,-3.5227,-3.5397,-3.5397,-3.5532,-3.56,-3.56,-3.5464,-3.5481,-3.5549,0.0,0.0,-3.3339,-3.2615,-3.187,-3.119,-3.119,-3.119,-3.123,-3.1506,-3.162,-3.1675,-3.2056,-3.2196,-3.2109,-3.1507,-3.1656,-3.2091,-3.2179,-3.2436,-3.2732,-3.2779,-3.2795,-3.2795,-3.2795,-3.2795,-3.2795,-3.2795,-3.2765,-3.2699,-3.2699,-3.2577,-3.219,-3.1298,-3.0903,-3.0269,-2.8846,-2.8404,-2.7989,-2.7385,-2.7299,-2.7299,-2.7299,-2.7283,-2.7251,-2.7251,-2.7251,-2.7202,-2.7087,-2.707,-2.7039,-2.6975,-2.6958,-2.6958,-2.6992,-2.6909,-2.6859,-2.6859,-2.6758,-2.6691,-2.6691,-2.6691,-2.6691,-2.6708,-2.7317,-2.7977,-2.3806,-2.4103,-2.432,-2.3904,-2.4103,-2.3904,-2.1912,0.0,0.0,0.0,0.0,-1.477,-1.4372,0.0,0.0,0.0,0.0,0.0,0.0,0.0,0.0,0.0,0.0,0.0,0.0,0.0,0.0,0.0,0.0,0.0,0.0,-3.3312,-3.411,-3.4871,-3.5486,-3.5877,-3.608,-3.5989,-3.5958,-3.5958,-3.5734,-3.56,-3.56,-3.56,-3.56,-3.5549,0.0,0.0,-3.3359,-3.2821,-3.2071,-3.1254,-3.1485,-3.1483,-3.1404,-3.1731,-3.186,-3.1914,-3.2317,-3.2503,-3.2503,-3.2127,-3.2214,-3.2504,-3.27,-3.2908,-3.3108,-3.3273,-3.3317,-3.3317,-3.3317,-3.3317,-3.3317,-3.3317,-3.3199,-3.2999,-3.2827,-3.2795,-3.2579,-3.1826,-3.1578,-3.0971,-2.939,-2.8873,-2.8396,-2.7616,-2.7392,-2.7299,-2.7299,-2.7299,-2.7299,-2.7299,-2.7299,-2.725,-2.7119,-2.7103,-2.7086,-2.7055,-2.7024,-2.7024,-2.7055,-2.6991,-2.6959,-2.6959,-2.6875,-2.6842,-2.6792,-2.6792,-2.6758,-2.6708,-2.7452,-2.801,-2.3806,-2.4248,-2.4592,-2.3958,-2.4284,-2.3958,-2.097,-1.9685,0.0,0.0,-1.4854,-1.43,-1.43,0.0,0.0,0.0,0.0,0.0,0.0,0.0,0.0,0.0,0.0,0.0,0.0,0.0,0.0,0.0,0.0,0.0,0.0,-3.3783,-3.4481,-3.5234,-3.5935,-3.6451,-3.6772,-3.6531,-3.643,-3.643,-3.6049,-3.5832,-3.5739,-3.5761,-3.5717,-3.5611,0.0,0.0,0.0,-3.31,-3.24,-3.1564,-3.1895,-3.1894,-3.1747,-3.2109,-3.2231,-3.2282,-3.2632,-3.2827,-3.2925,-3.2923,-3.2894,-3.2894,-3.3199,-3.335,-3.3465,-3.3721,-3.3807,-3.3807,-3.3807,-3.3807,-3.3807,-3.3807,-3.3611,-3.3332,-3.306,-3.3014,-3.2834,-3.2254,-3.2086,-3.1593,-3.0177,-2.9538,-2.8959,-2.817,-2.7719,-2.7434,-2.739,-2.7392,-2.736,-2.7315,-2.7299,-2.7266,-2.7152,-2.7135,-2.7135,-2.7135,-2.7088,-2.7088,-2.7135,-2.7055,-2.7024,-2.7024,-2.7007,-2.6958,-2.6926,-2.6926,-2.6961,-2.7029,-2.7758,-2.8199,-2.3806,-2.385,-2.3886,-2.3824,-2.386,-2.327,-2.0843,0.0,0.0,-1.6001,-1.4854,-1.43,-1.43,-1.5024,0.0,0.0,0.0,0.0,0.0,0.0,0.0,0.0,0.0,0.0,0.0,0.0,0.0,0.0,0.0,0.0,0.0,-3.4506,-3.4907,-3.5702,-3.609,-3.631,-3.6346,-3.6666,-3.6841,-3.6841,-3.6801,-3.6597,-3.6237,-3.6287,-3.6135,-3.5761,0.0,0.0,0.0,-3.3353,-3.2772,-3.2317,-3.2418,-3.2417,-3.2468,-3.286,-3.3003,-3.3065,-3.3437,-3.3597,-3.3629,-3.368,-3.3494,-3.3243,-3.3291,-3.3508,-3.3762,-3.3775,-3.3807,-3.3807,-3.3807,-3.3807,-3.3807,-3.3807,-3.378,-3.3748,-3.3707,-3.3707,-3.3689,-3.3629,-3.3356,-3.2897,-3.2057,-3.106,-3.0074,-2.9269,-2.851,-2.794,-2.7683,-2.7657,-2.7569,-2.7329,-2.7299,-2.7299,-2.7282,-2.7282,-2.7282,-2.7282,-2.7283,-2.7283,-2.7282,-2.7168,-2.7086,-2.7086,-2.704,-2.7008,-2.6975,-2.6975,-2.7316,-2.7981,-2.8732,-2.9466,-2.3668,-2.4139,-2.4411,-2.3922,-2.4157,-2.365,-2.0318,0.0,-1.8272,-1.5386,-1.4517,-1.43,-1.43,-1.4571,-1.5295,0.0,-1.7726,-1.9258,0.0,0.0,0.0,0.0,0.0,0.0,0.0,0.0,0.0,0.0,0.0,0.0,0.0,0.0,-3.4751,-3.5077,-3.6161,-3.6726,-3.6726,-3.7077,-3.7265,-3.7265,-3.7057,-3.6882,-3.6724,-3.6295,-3.6007,-3.5799,0.0,0.0,0.0,-3.3297,-3.2885,-3.2602,-3.2829,-3.2811,-3.2731,-3.3093,-3.3217,-3.3276,-3.3638,-3.3766,-3.3766,-3.3793,-3.3707,-3.3611,-3.3611,-3.3694,-3.3807,-3.3807,-3.3807,-3.3807,-3.3807,-3.3807,-3.3807,-3.3807,-3.3807,-3.3807,-3.3807,-3.3807,-3.3807,-3.3807,-3.3694,-3.3355,-3.2565,-3.1932,-3.1247,-3.045,-2.9474,-2.8788,-2.8692,-2.8238,-2.7897,-2.78,-2.7496,-2.7299,-2.7299,-2.7299,-2.7299,-2.7299,-2.7299,-2.7299,-2.7299,-2.725,-2.7217,-2.7217,-2.7632,-2.7823,-2.779,-2.8236,-2.8579,-2.8835,-2.9587,-3.01,-2.327,-2.4049,-2.4502,-2.394,-2.4067,-2.3397,0.0,0.0,-1.79,-1.4915,-1.43,-1.43,-1.43,-1.43,-1.4831,-1.6439,-1.6892,-1.8171,-2.1405,0.0,0.0,0.0,0.0,0.0,0.0,0.0,0.0,0.0,0.0,0.0,0.0,0.0,-3.4498,-3.4247,-3.5566,-3.6415,-3.6651,-3.7125,-3.747,-3.7739,-3.7505,-3.7216,-3.6875,-3.638,-3.5953,0.0,0.0,0.0,0.0,-3.334,-3.3096,-3.3034,-3.3276,-3.3262,-3.3121,-3.3364,-3.3451,-3.348,-3.3721,-3.3807,-3.3807,-3.3807,-3.3807,-3.3807,-3.3807,-3.3807,-3.3807,-3.3807,-3.3807,-3.3807,-3.3807,-3.3807,-3.3807,-3.3807,-3.3807,-3.3807,-3.3807,-3.3807,-3.3807,-3.3807,-3.3807,-3.3623,-3.3041,-3.2602,-3.2133,-3.1564,-3.0591,-2.989,-2.9807,-2.9309,-2.8819,-2.8491,-2.8123,-2.7755,-2.7438,-2.7345,-2.7299,-2.7299,-2.7299,-2.7299,-2.7299,-2.7299,-2.7402,-2.7609,-2.8144,-2.8473,-2.8646,-2.918,-2.954,-2.9728,-3.0259,-3.0619,-2.2481,-2.3252,-2.3824,-2.3795,-2.327,-2.2083,0.0,-1.8479,-1.7229,-1.4807,-1.43,-1.43,-1.43,-1.43,-1.4831,-1.6439,-1.7364,-1.9005,-2.2228,0.0,0.0,0.0,0.0,0.0,0.0,0.0,0.0,0.0,0.0,0.0,0.0,0.0,-3.4244,-3.3447,-3.4208,-3.5007,-3.5804,-3.6598,-3.7444,-3.829,-3.829,-3.7704,-3.6623,-3.6726,0.0,0.0,0.0,0.0,0.0,-3.3605,-3.3437,-3.3698,-3.3766,-3.3775,-3.3775,-3.3775,-3.3788,-3.3807,-3.3807,-3.3807,-3.3807,-3.3807,-3.3807,-3.3807,-3.3807,-3.3807,-3.3807,-3.3807,-3.3807,-3.3807,-3.3807,-3.3807,-3.3807,-3.3807,-3.3807,-3.3807,-3.3807,-3.3807,-3.3807,-3.3807,-3.3807,-3.3807,-3.3788,-3.3115,-3.2601,-3.2583,-3.1898,-3.1278,-3.1016,-3.0989,-3.0554,-2.9408,-2.9276,-2.8845,-2.7783,-2.7434,-2.7299,-2.7299,-2.7299,-2.7299,-2.7299,-2.7299,-2.7644,-2.8368,-2.8403,-2.8765,-2.9506,-2.9506,-2.992,-3.0679,-3.0679,-3.1093,-2.0173,-2.0807,-2.1278,-2.0726,-2.0825,-2.0427,-1.8008,-1.769,-1.7211,-1.4807,-1.43,-1.43,-1.43,-1.43,-1.5012,-1.7175,-1.7718,0.0,0.0,0.0,0.0,0.0,0.0,0.0,0.0,0.0,0.0,0.0,0.0,0.0,0.0,0.0,0.0,-3.3411,-3.4761,-3.5354,-3.5045,-3.6433,-3.728,-3.7551,-3.758,-3.7419,-3.703,-3.6033,0.0,0.0,0.0,0.0,0.0,-3.3748,-3.3694,-3.378,-3.3775,-3.3807,-3.3807,-3.3807,-3.3807,-3.3807,-3.3807,-3.3807,-3.3807,-3.3807,-3.3807,-3.3807,-3.3807,-3.3807,-3.3807,-3.3807,-3.3807,-3.3807,-3.3807,-3.3807,-3.3807,-3.3807,-3.3807,-3.3807,-3.3807,-3.3807,-3.3807,-3.3807,-3.3807,-3.3807,-3.3807,-3.3587,-3.3421,-3.3421,-3.2742,-3.219,-3.2093,-3.1618,-3.0921,-3.0012,-2.974,-2.9188,-2.8063,-2.7897,-2.784,-2.784,-2.8367,-2.8564,-2.8338,-2.8844,-2.9149,-2.9144,-2.9679,-3.0075,-3.0317,-3.0834,-3.1196,-3.1438,-3.1438,-3.1576,0.0,-1.9005,-1.9721,-1.924,-1.9258,-1.8914,-1.711,-1.6849,-1.6479,-1.4662,-1.43,-1.43,-1.43,-1.43,-1.4988,-1.7102,-1.7708,0.0,0.0,0.0,0.0,0.0,0.0,0.0,0.0,0.0,0.0,0.0,0.0,0.0,0.0,0.0,0.0,-3.3481,-3.4458,-3.4909,-3.4739,-3.5781,-3.6465,-3.6787,-3.6833,-3.6698,-3.6399,0.0,0.0,0.0,0.0,0.0,0.0,-3.3807,-3.3807,-3.3807,-3.3807,-3.3807,-3.3807,-3.3807,-3.3807,-3.3807,-3.3807,-3.3807,-3.3807,-3.3807,-3.3807,-3.3807,-3.3807,-3.3807,-3.3807,-3.3807,-3.3807,-3.3807,-3.3807,-3.3807,-3.3807,-3.3807,-3.3807,-3.3807,-3.3807,-3.3807,-3.3807,-3.3807,-3.3807,-3.3807,-3.3807,-3.3807,-3.3807,-3.3807,-3.3366,-3.3041,-3.3041,-3.2614,-3.199,-3.1201,-3.0971,-3.0457,-2.9434,-2.8847,-2.8687,-2.8987,-2.9469,-2.9668,-2.946,-2.992,-3.0233,-3.0342,-3.0832,-3.12,-3.1497,-3.1829,-3.1929,-3.18,-3.18,-3.18,0.0,-1.7447,-1.866,-1.8606,-1.8117,-1.7429,-1.6639,-1.5954,0.0,-1.4463,-1.43,-1.4336,-1.4445,-1.4427,-1.4976,-1.6747,0.0,0.0,0.0,0.0,0.0,0.0,0.0,0.0,0.0,0.0,0.0,0.0,0.0,0.0,0.0,0.0,0.0,0.0,-3.3549,-3.3898,-3.4717,-3.4772,-3.5217,-3.6022,-3.6022,-3.5662,-3.5004,0.0,0.0,0.0,0.0,0.0,0.0,-3.3807,-3.3807,-3.3807,-3.3807,-3.3807,-3.3807,-3.3807,-3.3807,-3.3807,-3.3807,-3.3807,-3.3807,-3.3807,-3.3807,-3.3807,-3.3807,-3.3807,-3.3807,-3.3807,-3.3807,-3.3807,-3.3807,-3.3807,-3.3807,-3.3807,-3.3807,-3.3807,-3.3807,-3.3807,-3.3807,-3.3807,-3.3807,-3.3807,-3.3807,-3.3807,-3.3807,-3.3807,-3.3807,-3.3807,-3.3807,-3.3807,-3.3495,-3.2693,-3.2601,-3.2302,-3.1562,-3.0238,-2.9772,-3.0517,-3.0625,-3.0646,-3.0599,-3.0667,-3.1032,-3.177,-3.1788,-3.213,-3.2795,-3.2487,-3.2162,-3.1837,-3.1837,-3.1837,-1.1962,0.0,-1.436,-1.3751,-1.4379,-1.494,0.0,-1.4752,-1.5271,-1.4463,0.0,-1.468,-1.5907,-1.5628,-1.6345,0.0,0.0,0.0,0.0,0.0,0.0,0.0,0.0,0.0,0.0,0.0,0.0,0.0,0.0,0.0,0.0,0.0,0.0,0.0,-3.3657,-3.3748,-3.3963,-3.4609,-3.5072,-3.5251,-3.5251,-3.516,-3.4986,0.0,0.0,0.0,0.0,0.0,-3.3807,-3.3807,-3.3807,-3.3807,-3.3807,-3.3807,-3.3807,-3.3807,-3.3807,-3.3807,-3.3807,-3.3807,-3.3807,-3.3807,-3.3807,-3.3807,-3.3807,-3.3807,-3.3807,-3.3807,-3.3807,-3.3807,-3.3807,-3.3807,-3.3807,-3.3807,-3.3807,-3.3807,-3.3807,-3.3807,-3.3807,-3.3807,-3.3807,-3.3807,-3.3807,-3.3807,-3.3807,-3.3807,-3.3807,-3.3807,-3.3807,-3.3807,-3.3495,-3.2693,-3.2601,-3.2509,-3.2326,-3.1435,-3.0987,-3.1183,-3.1772,-3.1992,-3.1733,-3.2314,-3.261,-3.2543,-3.2543,-3.2616,-3.2795,-3.2715,-3.2503,-3.2179,-3.2179,-3.2037,-1.0155,-1.2128,-1.4101,-1.3666,-1.4487,-1.5291,-1.4856,0.0,0.0,0.0,0.0,-1.468,-1.5918,0.0,0.0,0.0,0.0,0.0,0.0,0.0,0.0,0.0,0.0,0.0,0.0,0.0,0.0,0.0,0.0,0.0,0.0,0.0,0.0,0.0,0.0,-3.3753,-3.3753,-3.4202,-3.4454,-3.4454,-3.4454,-3.4454,-3.4417,0.0,0.0,0.0,0.0,0.0,-3.3807,-3.3807,-3.3807,-3.3807,-3.3807,-3.3807,-3.3807,-3.3807,-3.3807,-3.3807,-3.3807,-3.3807,-3.3807,-3.3807,-3.3807,-3.3807,-3.3807,-3.3807,-3.3807,-3.3807,-3.3807,-3.3807,-3.3807,-3.3807,-3.3807,-3.3807,-3.3807,-3.3807,-3.3807,-3.3807,-3.3807,-3.3807,-3.3807,-3.3807,-3.3807,-3.3807,-3.3807,-3.3807,-3.3807,-3.3807,-3.3807,-3.3807,-3.3623,-3.3201,-3.3146,-3.3146,-3.3146,-3.2742,-3.2485,-3.2485,-3.2908,-3.308,-3.288,-3.3285,-3.3451,-3.3273,-3.3273,-3.3184,-3.3032,-3.3032,-3.286,-3.2537,-3.2369,-3.2283,-0.9942,-1.281,-1.5567,-1.5071,-1.5827,-1.6675,-1.6548,0.0,0.0,0.0,0.0,0.0,0.0,0.0,0.0,0.0,0.0,0.0,0.0,0.0,0.0,0.0,0.0,0.0,0.0,0.0,0.0,0.0,0.0,0.0,0.0,0.0,0.0,0.0,-3.3807,-3.3807,-3.3807,-3.3807,-3.3807,-3.3807,-3.3807,-3.3807,-3.3807,-3.3807,0.0,0.0,0.0,0.0,-3.3807,-3.3807,-3.3807,-3.3807,-3.3807,-3.3807,-3.3807,-3.3807,-3.3807,-3.3807,-3.3807,-3.3807,-3.3807,-3.3807,-3.3807,-3.3807,-3.3807,-3.3807,-3.3807,-3.3807,-3.3807,-3.3807,-3.3807,-3.3807,-3.3807,-3.3807,-3.3807,-3.3807,-3.3807,-3.3807,-3.3807,-3.3807,-3.3807,-3.3807,-3.3807,-3.3807,-3.3807,-3.3807,-3.3807,-3.3807,-3.3807,-3.3807,-3.3807,-3.3807,-3.3807,-3.3807,-3.3807,-3.3807,-3.3807,-3.3807,-3.3807,-3.3807,-3.3807,-3.3807,-3.3807,-3.3807,-3.3807,-3.3666,-3.3379,-3.3379,-3.3199,-3.2858,-3.2569,-3.2569,-1.1996,-1.4494,-1.5852,-1.3129,-1.4584,-1.653,-1.5838,0.0,0.0,0.0,0.0,0.0,0.0,0.0,0.0,0.0,0.0,0.0,0.0,0.0,0.0,0.0,0.0,0.0,0.0,0.0,0.0,0.0,0.0,0.0,0.0,0.0,0.0,0.0,0.0,-3.3807,-3.3807,-3.3807,-3.3807,-3.3807,-3.3807,-3.3807,-3.3807,-3.3807,-3.3807,0.0,0.0,-3.3807,-3.3807,-3.3807,-3.3807,-3.3807,-3.3807,-3.3807,-3.3807,-3.3807,-3.3807,-3.3807,-3.3807,-3.3807,-3.3807,-3.3807,-3.3807,-3.3807,-3.3807,-3.3807,-3.3807,-3.3807,-3.3807,-3.3807,-3.3807,-3.3807,-3.3807,-3.3807,-3.3807,-3.3807,-3.3807,-3.3807,-3.3807,-3.3807,-3.3807,-3.3807,-3.3807,-3.3807,-3.3807,-3.3807,-3.3807,-3.3807,-3.3807,-3.3807,-3.3807,-3.3807,-3.3807,-3.3807,-3.3807,-3.3807,-3.3807,-3.3807,-3.3807,-3.3807,-3.3807,-3.3807,-3.3807,-3.3807,-3.3807,-3.3762,-3.3721,-3.3721,-3.355,-3.3214,-3.3169,-3.3032,-1.0851,-1.3232,-1.5157,-1.4101,-1.6588,-1.9196,-1.8825,0.0,0.0,0.0,0.0,0.0,0.0,0.0,0.0,0.0,0.0,0.0,0.0,0.0,0.0,0.0,0.0,0.0,0.0,0.0,0.0,0.0,0.0,0.0,0.0,0.0,0.0,0.0,0.0,0.0,-3.3807,-3.3807,-3.3807,-3.3807,-3.3807,-3.3807,-3.3807,-3.3807,-3.3807,0.0,0.0,-3.3807,-3.3807,-3.3807,-3.3807,-3.3807,-3.3807,-3.3807,-3.3807,-3.3807,-3.3807,-3.3807,-3.3807,-3.3807,-3.3807,-3.3807,-3.3807,-3.3807,-3.3807,-3.3807,-3.3807,-3.3807,-3.3807,-3.3807,-3.3807,-3.3807,-3.3807,-3.3807,-3.3807,-3.3807,-3.3807,-3.3807,-3.3807,-3.3807,-3.3807,-3.3807,-3.3807,-3.3807,-3.3807,-3.3807,-3.3807,-3.3807,-3.3807,-3.3807,-3.3807,-3.3807,-3.3807,-3.3807,-3.3807,-3.3807,-3.3807,-3.3807,-3.3807,-3.3807,-3.3807,-3.3807,-3.3807,-3.3807,-3.3807,-3.3807,-3.3807,-3.3807,-3.3721,-3.3583,-3.3379,-3.3302,-1.0195,-1.2285,-1.4589,-1.5766,0.0,-2.0843,-2.1613,0.0,0.0,0.0,0.0,0.0,0.0,0.0,0.0,0.0,0.0,0.0,0.0,0.0,0.0,0.0,0.0,0.0,0.0,0.0,0.0,0.0,0.0,0.0,0.0,0.0,0.0,0.0,0.0,0.0,-3.3807,-3.3807,-3.3807,-3.3807,-3.3807,-3.3807,-3.3807,-3.3807,-3.3807,-3.3807,-3.3807,-3.3807,-3.3807,-3.3807,-3.3807,-3.3807,-3.3807,-3.3807,-3.3807,-3.3807,-3.3807,-3.3807,-3.3807,-3.3807,-3.3807,-3.3807,-3.3807,-3.3807,-3.3807,-3.3807,-3.3807,-3.3807,-3.3807,-3.3807,-3.3807,-3.3807,-3.3807,-3.3807,-3.3807,-3.3807,-3.3807,-3.3807,-3.3807,-3.3807,-3.3807,-3.3807,-3.3807,-3.3807,-3.3807,-3.3807,-3.3807,-3.3807,-3.3807,-3.3807,-3.3807,-3.3807,-3.3807,-3.3807,-3.3807,-3.3807,-3.3807,-3.3807,-3.3807,-3.3807,-3.3807,-3.3807,-3.3807,-3.3807,-3.3807,-3.3807,-3.3807,-3.3807,-3.3807,-3.3788,-3.3536,-3.355,-1.2236,-1.3558,-1.4843,-1.7157,-1.7936,0.0,-2.192,-2.1425,0.0,-2.3107,0.0,0.0,0.0,0.0,0.0,0.0,0.0,0.0,0.0,0.0,0.0,0.0,0.0,0.0,0.0,0.0,0.0,0.0,0.0,0.0,0.0,0.0,0.0,0.0,0.0,0.0,-3.3807,-3.3807,-3.3807,-3.3807,-3.3807,-3.3807,-3.3807,-3.3807,-3.3807,-3.3807,-3.3807,-3.3807,-3.3807,-3.3807,-3.3807,-3.3807,-3.3807,-3.3807,-3.3807,-3.3807,-3.3807,-3.3807,-3.3807,-3.3807,-3.3807,-3.3807,-3.3807,-3.3807,-3.3807,-3.3807,-3.3807,-3.3807,-3.3807,-3.3807,-3.3807,-3.3807,-3.3807,-3.3807,-3.3807,-3.3807,-3.3807,-3.3807,-3.3807,-3.3807,-3.3807,-3.3807,-3.3807,-3.3807,-3.3807,-3.3807,-3.3807,-3.3807,-3.3807,-3.3807,-3.3807,-3.3807,-3.3807,-3.3807,-3.3807,-3.3807,-3.3807,-3.3807,-3.3807,-3.3807,-3.3807,-3.3807,-3.3807,-3.3807,-3.3807,-3.3807,-3.3807,-3.3807,-3.3807,-3.3807,-3.378,-3.378,-1.0616,-1.2538,-1.4752,-1.6675,-1.79,0.0,0.0,-2.3042,-2.3717,0.0,0.0,0.0,0.0,0.0,0.0,0.0,0.0,0.0,0.0,0.0,0.0,0.0,0.0,0.0,0.0,0.0,0.0,0.0,0.0,0.0,0.0,0.0,0.0,0.0,0.0,0.0,0.0,-3.3807,-3.3807,-3.3807,-3.3807,-3.3807,-3.3807,-3.3807,-3.3807,-3.3807,-3.3807,-3.3807,-3.3807,-3.3807,-3.3807,-3.3807,-3.3807,-3.3807,-3.3807,-3.3807,-3.3807,-3.3807,-3.3807,-3.3807,-3.3807,-3.3807,-3.3807,-3.3807,-3.3807,-3.3807,-3.3807,-3.3807,-3.3807,-3.3807,-3.3807,-3.3807,-3.3807,-3.3807,-3.3807,-3.3807,-3.3807,-3.3807,-3.3807,-3.3807,-3.3807,-3.3807,-3.3807,-3.3807,-3.3807,-3.3807,-3.3807,-3.3807,-3.3807,-3.3807,-3.3807,-3.3807,-3.3807,-3.3807,-3.3807,-3.3807,-3.3807,-3.3807,-3.3807,-3.3807,-3.3807,-3.3807,-3.3807,-3.3807,-3.3807,-3.3807,-3.3807,-3.3807,-3.3807,-3.3807,-3.3807,-3.3807,-1.0286,-1.2452,-1.5039,-1.6384,0.0,0.0,-2.2637,-2.4012,-2.5149,0.0,0.0,0.0,0.0,0.0,0.0,0.0,0.0,0.0,0.0,0.0,0.0,0.0,0.0,0.0,0.0,0.0,0.0,0.0,0.0,0.0,0.0,0.0,0.0,0.0,0.0,0.0,0.0,-3.3678,-3.3807,-3.3807,-3.3807,-3.3807,-3.3807,-3.3807,-3.3807,-3.3807,-3.3807,-3.3807,-3.3807,-3.3807,-3.3807,-3.3807,-3.3807,-3.3807,-3.3807,-3.3807,-3.3807,-3.3807,-3.3807,-3.3807,-3.3807,-3.3807,-3.3807,-3.3807,-3.3807,-3.3807,-3.3807,-3.3807,-3.3807,-3.3807,-3.3807,-3.3807,-3.3807,-3.3807,-3.3807,-3.3807,-3.3807,-3.3807,-3.3807,-3.3807,-3.3807,-3.3807,-3.3807,-3.3807,-3.3807,-3.3807,-3.3807,-3.3807,-3.3807,-3.3807,-3.3807,-3.3807,-3.3807,-3.3807,-3.3807,-3.3807,-3.3807,-3.3807,-3.3807,-3.3807,-3.3807,-3.3807,-3.3807,-3.3807,-3.3807,-3.3807,-3.3807,-3.3807,-3.3807,-3.3807,-3.3807,-3.3807,-1.2004,-1.3768,-1.5819,0.0,0.0,0.0,-2.3554,-2.4075,-2.473,0.0,0.0,0.0,0.0,0.0,0.0,0.0,0.0,0.0,0.0,0.0,0.0,0.0,0.0,0.0,0.0,0.0,0.0,0.0,0.0,0.0,0.0,0.0,0.0,0.0,0.0,0.0,0.0,-3.3385,-3.377,-3.377,-3.377,-3.3788,-3.3807,-3.3807,-3.3807,-3.3807,-3.3807,-3.3807,-3.3807,-3.3807,-3.3807,-3.3807,-3.3807,-3.3807,-3.3807,-3.3807,-3.3807,-3.3807,-3.3807,-3.3807,-3.3807,-3.3807,-3.3807,-3.3807,-3.3807,-3.3807,-3.3807,-3.3807,-3.3807,-3.3807,-3.3807,-3.3807,-3.3807,-3.3807,-3.3807,-3.3807,-3.3807,-3.3807,-3.3807,-3.3807,-3.3807,-3.3807,-3.3807,-3.3807,-3.3807,-3.3807,-3.3807,-3.3807,-3.3807,-3.3807,-3.3807,-3.3807,-3.3807,-3.3807,-3.3807,-3.3807,-3.3807,-3.3807,-3.3807,-3.3807,-3.3807,-3.3807,-3.3807,-3.3807,-3.3807,-3.3807,-3.3807,-3.3807,-3.3807,-3.3807,-3.3807,-3.3807,-1.2139,-1.4593,0.0,0.0,0.0,0.0,0.0,-2.5366,0.0,0.0,0.0,0.0,0.0,0.0,0.0,0.0,0.0,0.0,0.0,0.0,0.0,0.0,0.0,0.0,0.0,0.0,0.0,0.0,0.0,0.0,0.0,0.0,0.0,0.0,0.0,0.0,0.0,0.0,-3.21,-3.2131,-3.2687,-3.3256,-3.3807,-3.3807,-3.3807,-3.3807,-3.3807,-3.3807,-3.3807,-3.3807,-3.3807,-3.3807,-3.3807,-3.3807,-3.3807,-3.3807,-3.3807,-3.3807,-3.3807,-3.3807,-3.3807,-3.3807,-3.3807,-3.3807,-3.3807,-3.3807,-3.3807,-3.3807,-3.3807,-3.3807,-3.3807,-3.3807,-3.3807,-3.3807,-3.3807,-3.3807,-3.3807,-3.3807,-3.3807,-3.3807,-3.3807,-3.3802,-3.3855,-3.3868,-3.3868,-3.3868,-3.3868,-3.3842,-3.382,-3.3807,-3.3807,-3.3807,-3.3807,-3.3807,-3.3807,-3.3807,-3.3807,-3.3807,-3.3807,-3.3807,-3.3807,-3.3807,-3.3807,-3.3807,-3.3807,-3.3807,-3.3807,-3.3807,-3.3807,-3.3807,-3.3807,-3.3807,-1.4283,0.0,0.0,0.0,0.0,0.0,0.0,0.0,0.0,0.0,0.0,0.0,0.0,0.0,0.0,0.0,0.0,0.0,0.0,0.0,0.0,0.0,0.0,0.0,0.0,0.0,0.0,0.0,0.0,0.0,0.0,0.0,0.0,0.0,0.0,0.0,0.0,0.0,0.0,-3.1415,-3.188,-3.2375,-3.2871,-3.3513,-3.3807,-3.3807,-3.3807,-3.3807,-3.3807,-3.3807,-3.3807,-3.3807,-3.3807,-3.3807,-3.3807,-3.3807,-3.3807,-3.3807,-3.3807,-3.3807,-3.3807,-3.3807,-3.3807,-3.3807,-3.3807,-3.3807,-3.382,-3.3829,-3.3829,-3.386,-3.3868,-3.3868,-3.3855,-3.3802,-3.3815,-3.3829,-3.3829,-3.3855,-3.3868,-3.3868,-3.3868,-3.3895,-3.3934,-3.3934,-3.3934,-3.3895,-3.3868,-3.386,-3.382,-3.3807,-3.3807,-3.3807,-3.3807,-3.3807,-3.3807,-3.3807,-3.3807,-3.3807,-3.3807,-3.3807,-3.3807,-3.3807,-3.3807,-3.3807,-3.3807,-3.3807,-3.3807,-3.3807,-3.3807,-3.3807,-3.3807,-3.3807,-1.7266,0.0,0.0,0.0,0.0,0.0,0.0,0.0,0.0,0.0,0.0,0.0,0.0,0.0,0.0,0.0,0.0,0.0,0.0,0.0,0.0,0.0,0.0,0.0,0.0,0.0,0.0,0.0,0.0,0.0,0.0,0.0,0.0,0.0,0.0,0.0,0.0,0.0,0.0,0.0,-3.1268,-3.1286,-3.1342,-3.2871,-3.3623,-3.3697,-3.377,-3.3807,-3.3807,-3.3807,-3.3807,-3.3807,-3.3807,-3.3807,-3.3807,-3.3807,-3.3807,-3.3807,-3.3807,-3.3788,-3.382,-3.3788,-3.382,-3.382,-3.382,-3.3802,-3.3815,-3.3895,-3.3908,-3.3921,-3.3985,-3.3998,-3.3972,-3.386,-3.3855,-3.3908,-3.3908,-3.3959,-3.3998,-3.3998,-3.3998,-3.3998,-3.4011,-3.4011,-3.3985,-3.3921,-3.3842,-3.382,-3.3807,-3.3807,-3.3807,-3.3807,-3.3807,-3.3807,-3.3807,-3.3807,-3.3788,-3.382,-3.3788,-3.3788,-3.382,-3.3788,-3.3807,-3.3807,-3.3807,-3.3807,-3.3807,-3.3807,-3.3807,-3.3807,-3.3807,-3.3807,0.0,-1.8258,0.0,0.0,0.0,0.0,0.0,0.0,0.0,0.0,0.0,0.0,0.0,0.0,0.0,0.0,0.0,0.0,0.0,0.0,0.0,0.0,0.0,0.0,0.0,0.0,0.0,0.0,0.0,0.0,0.0,0.0,0.0,0.0,0.0,0.0,-2.9262,-2.9427,-2.9519,0.0,-3.0173,-3.0467,-3.0485,-3.1458,-3.2265,-3.2894,-3.3532,-3.3807,-3.3807,-3.3807,-3.3807,-3.3807,-3.3807,-3.3807,-3.3807,-3.3807,-3.3807,-3.3807,-3.3807,-3.3829,-3.3868,-3.382,-3.3868,-3.3947,-3.3895,-3.3908,-3.3959,-3.3972,-3.3985,-3.3985,-3.3998,-3.3998,-3.3998,-3.3959,-3.3972,-3.3985,-3.3985,-3.3985,-3.3998,-3.3998,-3.3998,-3.4023,-3.4074,-3.4086,-3.4061,-3.3985,-3.3921,-3.3855,-3.382,-3.3807,-3.3807,-3.3807,-3.3807,-3.3807,-3.3807,-3.3807,-3.3815,-3.3868,-3.3815,-3.3815,-3.3868,-3.3834,-3.3807,-3.3807,-3.3807,-3.3807,-3.3807,-3.3807,-3.3807,-3.3807,-3.3807,-3.3807,0.0,0.0,0.0,0.0,0.0,0.0,0.0,0.0,0.0,0.0,0.0,0.0,0.0,0.0,0.0,0.0,0.0,0.0,0.0,0.0,0.0,0.0,0.0,0.0,0.0,0.0,0.0,0.0,0.0,0.0,0.0,0.0,0.0,0.0,0.0,0.0,-2.9149,-2.9044,-2.91,-2.9291,-2.961,-2.9813,-2.9948,-3.0942,-3.1623,-3.2063,-3.2889,-3.3238,-3.3256,-3.3642,-3.3807,-3.3807,-3.3807,-3.3807,-3.3788,-3.3847,-3.386,-3.3842,-3.3881,-3.3921,-3.3947,-3.3908,-3.3947,-3.3998,-3.3959,-3.3972,-3.4011,-3.4036,-3.4049,-3.4061,-3.4086,-3.4099,-3.4099,-3.4099,-3.4074,-3.4049,-3.4049,-3.4074,-3.4099,-3.4099,-3.4099,-3.4111,-3.4148,-3.4124,-3.4086,-3.4036,-3.3991,-3.39,-3.382,-3.3865,-3.3892,-3.3892,-3.39,-3.3895,-3.3895,-3.3895,-3.3908,-3.3947,-3.3908,-3.3908,-3.3947,-3.3908,-3.3855,-3.3807,-3.3807,-3.3807,-3.3807,-3.3807,-3.3807,-3.3807,-3.3807,-3.3807,0.0,0.0,0.0,0.0,0.0,0.0,0.0,0.0,0.0,0.0,0.0,0.0,0.0,0.0,0.0,0.0,0.0,0.0,0.0,0.0,0.0,0.0,0.0,0.0,0.0,0.0,0.0,0.0,0.0,0.0,0.0,0.0,0.0,0.0,0.0,-2.9149,-2.9355,-2.9192,-2.927,-2.9598,-2.9445,-2.9446,-2.9626,-3.0643,-3.1169,-3.1305,-3.2083,-3.2511,-3.2676,-3.339,-3.3739,-3.3829,-3.3863,-3.3868,-3.3829,-3.3895,-3.3908,-3.3921,-3.3985,-3.4011,-3.4023,-3.3998,-3.4023,-3.4036,-3.4023,-3.4023,-3.4049,-3.4099,-3.4124,-3.4136,-3.4185,-3.4197,-3.4197,-3.4197,-3.4161,-3.4124,-3.4124,-3.4161,-3.4197,-3.4197,-3.4197,-3.4197,-3.4197,-3.4161,-3.4111,-3.4092,-3.4048,-3.397,-3.386,-3.3944,-3.4015,-3.4015,-3.4004,-3.3998,-3.3998,-3.3998,-3.3998,-3.4023,-3.4011,-3.4011,-3.4023,-3.4011,-3.3947,-3.3847,-3.3829,-3.3829,-3.3829,-3.3829,-3.3829,-3.3829,-3.3829,-3.3829,0.0,0.0,0.0,0.0,0.0,0.0,0.0,0.0,0.0,0.0,0.0,0.0,0.0,0.0,0.0,0.0,0.0,0.0,0.0,0.0,0.0,0.0,0.0,0.0,0.0,0.0,0.0,0.0,0.0,0.0,0.0,0.0,-2.9089,-2.9241,-2.9251,0.0,-2.9561,-2.9532,-2.9551,-2.9608,-2.9626,-2.9635,-2.9615,-2.9841,-3.0215,-3.0753,-3.1429,-3.2133,-3.2804,-3.3087,-3.3498,-3.3998,-3.4165,-3.4136,-3.3972,-3.3985,-3.3985,-3.3985,-3.3998,-3.4036,-3.4074,-3.4023,-3.4086,-3.4161,-3.4099,-3.4124,-3.4173,-3.4185,-3.4185,-3.4185,-3.4197,-3.4197,-3.4197,-3.4197,-3.4197,-3.4185,-3.4185,-3.4197,-3.4197,-3.4197,-3.4197,-3.4197,-3.4197,-3.4197,-3.4161,-3.4105,-3.4098,-3.4055,-3.3985,-3.4042,-3.4098,-3.4098,-3.4023,-3.3998,-3.3998,-3.3998,-3.4023,-3.4086,-3.4036,-3.4023,-3.4086,-3.4036,-3.3985,-3.3972,-3.3972,-3.3972,-3.3972,-3.3972,-3.3972,-3.3972,-3.3972,-3.3972,0.0,0.0,0.0,0.0,0.0,0.0,0.0,0.0,0.0,0.0,0.0,0.0,0.0,0.0,0.0,0.0,0.0,0.0,0.0,0.0,0.0,0.0,0.0,0.0,0.0,0.0,0.0,0.0,0.0,0.0,0.0,-2.9343,-2.9375,-2.9474,-2.9474,0.0,-2.9779,-2.9662,-2.9653,-2.9765,-2.995,-3.0019,-2.9992,-2.9939,-2.9921,-2.9965,-3.073,-3.1236,-3.1645,-3.268,-3.3332,-3.3706,-3.4124,-3.4242,-3.4172,-3.408,-3.4061,-3.4061,-3.4099,-3.4136,-3.4148,-3.4124,-3.4161,-3.4197,-3.4161,-3.4173,-3.4197,-3.4197,-3.4197,-3.4197,-3.4197,-3.4197,-3.4197,-3.4197,-3.4197,-3.4197,-3.4197,-3.4197,-3.4197,-3.4197,-3.4197,-3.4197,-3.4197,-3.4197,-3.4185,-3.4167,-3.4167,-3.4155,-3.4111,-3.4136,-3.4167,-3.4167,-3.4124,-3.4111,-3.4111,-3.4111,-3.4124,-3.4161,-3.4136,-3.4124,-3.4161,-3.4124,-3.4111,-3.4111,-3.4036,-3.3998,-3.3998,-3.3998,-3.3998,-3.3998,-3.3998,-3.3998,0.0,0.0,0.0,0.0,0.0,0.0,0.0,0.0,0.0,0.0,0.0,0.0,0.0,0.0,0.0,0.0,0.0,0.0,0.0,0.0,0.0,0.0,0.0,0.0,0.0,0.0,0.0,0.0,0.0,0.0,-2.9598,-2.9626,-2.9644,-2.9697,-2.9697,-2.9803,-2.9992,-2.9853,-2.9851,-3.0007,-3.0202,-3.0305,-3.0305,-3.0207,-2.9954,-2.9607,-3.0189,-3.0536,-3.0817,-3.2125,-3.2984,-3.3505,-3.3999,-3.4269,-3.4364,-3.4262,-3.4185,-3.4136,-3.4185,-3.4197,-3.4197,-3.4197,-3.4245,-3.4293,-3.4293,-3.434,-3.4379,-3.4379,-3.4379,-3.4379,-3.4379,-3.4379,-3.4379,-3.4379,-3.4379,-3.4363,-3.4233,-3.4257,-3.4281,-3.4209,-3.4257,-3.4281,-3.4209,-3.4197,-3.4197,-3.4197,-3.4197,-3.4197,-3.4197,-3.4197,-3.4233,-3.4316,-3.4257,-3.4221,-3.4293,-3.4245,-3.4197,-3.4197,-3.4197,-3.4197,-3.4197,-3.4197,-3.4197,-3.4197,-3.4099,-3.4049,-3.4049,-3.4049,-3.4049,-3.4049,-3.4049,-3.4049,0.0,0.0,0.0,0.0,0.0,0.0,0.0,0.0,0.0,0.0,0.0,0.0,0.0,0.0,0.0,0.0,0.0,0.0,0.0,0.0,0.0,0.0,0.0,0.0,0.0,0.0,0.0,0.0,0.0,0.0,-2.9658,-2.9696,-2.9782,-2.9977,-2.9977,-3.0071,-3.0273,-3.0266,-3.0266,-3.0279,-3.0286,-3.0304,-3.0304,-3.0361,-3.028,-3.0054,-2.9961,-3.0362,-3.1101,-3.1375,-3.2314,-3.3601,-3.3824,-3.4196,-3.4583,-3.4591,-3.4397,-3.4197,-3.4197,-3.4197,-3.4197,-3.4197,-3.4363,-3.4591,-3.4591,-3.472,-3.486,-3.486,-3.486,-3.486,-3.486,-3.486,-3.486,-3.486,-3.486,-3.4752,-3.4305,-3.4386,-3.4506,-3.4245,-3.4416,-3.4495,-3.4245,-3.4197,-3.4197,-3.4197,-3.4197,-3.4197,-3.4197,-3.4197,-3.4328,-3.4647,-3.4397,-3.4305,-3.455,-3.434,-3.4197,-3.4197,-3.4197,-3.4197,-3.4197,-3.4197,-3.4197,-3.4197,-3.4197,-3.4185,-3.4185,-3.4185,-3.4185,-3.4185,-3.4185,-3.4185,0.0,0.0,0.0,0.0,0.0,0.0,0.0,0.0,0.0,0.0,0.0,0.0,0.0,0.0,0.0,0.0,0.0,0.0,0.0,0.0,0.0,0.0,0.0,0.0,0.0,0.0,0.0,0.0,0.0,0.0,-2.9205,-2.9244,-2.9539,-3.0174,-3.02,-3.0221,-3.0312,-3.0292,-3.0305,-3.0305,-3.0336,-3.0354,-3.0354,-3.0398,-3.0361,-3.0292,-3.0247,-3.0307,-3.0506,-3.1145,-3.18,-3.2426,-3.2886,-3.3174,-3.3361,-3.38,-3.3891,-3.3886,-3.4471,-3.4641,-3.4641,-3.4641,-3.4711,-3.4801,-3.4801,-3.4831,-3.4908,-3.4908,-3.4908,-3.4908,-3.4908,-3.4908,-3.4908,-3.4908,-3.4973,-3.4954,-3.4693,-3.4722,-3.4752,-3.468,-3.4722,-3.4722,-3.4553,-3.4351,-3.4197,-3.4197,-3.4684,-3.4832,-3.4262,-3.4545,-3.4682,-3.4409,-3.4534,-3.4575,-3.4351,-3.4397,-3.4374,-3.4209,-3.4197,-3.4197,-3.4197,-3.4197,-3.4197,-3.4197,-3.4197,-3.4197,-3.4197,-3.4197,-3.4197,-3.4197,-3.4197,-3.4197,-1.0998,0.0,0.0,0.0,0.0,0.0,0.0,0.0,0.0,0.0,0.0,0.0,0.0,0.0,0.0,0.0,0.0,0.0,0.0,0.0,0.0,0.0,0.0,0.0,0.0,0.0,0.0,0.0,0.0,0.0,-2.8591,-2.8629,-2.8898,-2.948,-2.9767,-2.9902,-2.9902,-3.0195,-3.0342,-3.0342,-3.0373,-3.0404,-3.0404,-3.0404,-3.0404,-3.0404,-3.0404,-3.0317,-3.0253,-3.0834,-3.1316,-3.1744,-3.2145,-3.2419,-3.2657,-3.3107,-3.3229,-3.3289,-3.415,-3.4463,-3.45,-3.4794,-3.4955,-3.501,-3.501,-3.5054,-3.5098,-3.5098,-3.5098,-3.5098,-3.5098,-3.5098,-3.5098,-3.5098,-3.5176,-3.5218,-3.5115,-3.5054,-3.4992,-3.4898,-3.4945,-3.4955,-3.4782,-3.4586,-3.4379,-3.4221,-3.4841,-3.5035,-3.4286,-3.4556,-3.4682,-3.4363,-3.4524,-3.4586,-3.4351,-3.4427,-3.4386,-3.4209,-3.4197,-3.4197,-3.4197,-3.4197,-3.4197,-3.4197,-3.4197,-3.4197,-3.4197,-3.4197,-3.4197,-3.4197,-3.4197,-3.4197,0.0,0.0,0.0,0.0,0.0,0.0,0.0,0.0,0.0,0.0,0.0,0.0,0.0,0.0,0.0,0.0,0.0,0.0,0.0,0.0,0.0,0.0,0.0,0.0,0.0,0.0,0.0,0.0,0.0,-2.6948,-2.7818,-2.7895,-2.7895,-2.7895,-2.8665,-2.9069,-2.9069,-2.991,-3.0346,-3.0365,-3.0365,-3.0385,-3.0404,-3.0404,-3.0404,-3.0404,-3.0404,-3.0404,-3.0404,-3.0404,-3.0904,-3.166,-3.166,-3.2012,-3.2546,-3.2565,-3.2455,-3.2408,-3.3288,-3.3591,-3.3724,-3.4595,-3.5016,-3.5179,-3.519,-3.5346,-3.55,-3.55,-3.55,-3.55,-3.55,-3.55,-3.55,-3.55,-3.55,-3.55,-3.55,-3.5346,-3.5141,-3.4964,-3.5072,-3.5141,-3.4955,-3.4927,-3.4743,-3.4262,-3.4588,-3.4732,-3.4281,-3.4221,-3.4328,-3.4572,-3.4386,-3.434,-3.4572,-3.4363,-3.4221,-3.4197,-3.4209,-3.4209,-3.4197,-3.4197,-3.4197,-3.4197,-3.4197,-3.4197,-3.4197,-3.4197,-3.4197,-3.4197,-3.4197,-3.4197,-0.9864,0.0,0.0,0.0,0.0,0.0,0.0,0.0,0.0,0.0,0.0,0.0,0.0,0.0,0.0,0.0,0.0,0.0,0.0,0.0,0.0,0.0,0.0,0.0,0.0,0.0,0.0,0.0,0.0,-2.6038,-2.6909,-2.7563,-2.7895,-2.7895,-2.8126,-2.8222,-2.8222,-2.8467,-2.8871,-2.9467,-2.9467,-2.9794,-3.0404,-3.0404,-3.0404,-3.0404,-3.0404,-3.0404,-3.0404,-3.0404,-3.0538,-3.075,-3.075,-3.086,-3.1092,-3.1712,-3.1916,-3.1978,-3.2802,-3.3089,-3.3243,-3.4112,-3.4429,-3.458,-3.5232,-3.5465,-3.55,-3.55,-3.55,-3.55,-3.55,-3.55,-3.55,-3.55,-3.55,-3.55,-3.55,-3.5465,-3.541,-3.5346,-3.5369,-3.5403,-3.5346,-3.5339,-3.5079,-3.4309,-3.4298,-3.4469,-3.4672,-3.4783,-3.4832,-3.4831,-3.5009,-3.5,-3.4626,-3.4802,-3.4733,-3.4233,-3.4374,-3.4397,-3.4209,-3.4197,-3.4197,-3.4197,-3.4197,-3.4197,-3.4197,-3.4197,-3.4197,-3.4197,-3.4197,-3.4197,-1.1333,0.0,0.0,0.0,0.0,0.0,0.0,0.0,0.0,0.0,0.0,0.0,0.0,0.0,0.0,0.0,0.0,0.0,0.0,0.0,0.0,0.0,0.0,0.0,0.0,0.0,0.0,0.0,-2.5308,-2.5519,-2.6019,-2.6544,-2.6813,-2.6813,-2.7178,-2.7351,-2.7351,-2.7722,-2.8145,-2.8607,-2.8607,-2.9044,-2.9871,-2.9871,-3.0058,-3.0404,-3.0404,-3.0404,-3.0404,-3.0404,-3.0404,-3.0404,-3.0404,-3.0404,-3.0462,-3.0962,-3.1154,-3.1269,-3.2102,-3.241,-3.2545,-3.3372,-3.366,-3.3814,-3.4699,-3.4968,-3.5026,-3.5404,-3.55,-3.55,-3.55,-3.55,-3.55,-3.55,-3.55,-3.55,-3.55,-3.55,-3.55,-3.55,-3.55,-3.55,-3.55,-3.55,-3.5273,-3.4599,-3.4491,-3.4609,-3.4936,-3.5054,-3.5054,-3.4908,-3.5107,-3.5107,-3.4761,-3.4945,-3.4917,-3.4513,-3.4639,-3.4668,-3.4491,-3.4491,-3.4491,-3.4491,-3.4491,-3.4491,-3.4491,-3.4305,-3.4197,-3.4197,-3.4197,-3.4197,-1.3493,-1.3566,0.0,0.0,0.0,0.0,0.0,-1.5696,0.0,0.0,0.0,0.0,0.0,0.0,0.0,0.0,0.0,0.0,0.0,0.0,0.0,0.0,0.0,0.0,0.0,0.0,0.0,-2.5308,-2.5308,-2.5308,-2.5308,-2.5308,-2.5308,-2.5308,-2.6058,-2.6467,-2.6467,-2.7217,-2.7659,-2.7761,-2.7761,-2.8184,-2.8973,-2.8973,-2.9448,-3.025,-3.025,-3.0308,-3.0404,-3.0404,-3.0404,-3.0404,-3.0404,-3.0404,-3.0404,-3.0404,-3.0404,-3.0519,-3.1288,-3.1564,-3.1698,-3.2506,-3.2776,-3.2929,-3.3801,-3.4071,-3.4244,-3.5115,-3.5365,-3.5385,-3.5462,-3.55,-3.55,-3.55,-3.55,-3.55,-3.55,-3.55,-3.55,-3.55,-3.55,-3.55,-3.55,-3.55,-3.5369,-3.5028,-3.4973,-3.5019,-3.5124,-3.5141,-3.5098,-3.4982,-3.4973,-3.4964,-3.4945,-3.4945,-3.4955,-3.4889,-3.4927,-3.4908,-3.4908,-3.4908,-3.4908,-3.4908,-3.4908,-3.4908,-3.4908,-3.448,-3.4281,-3.4281,-3.4281,-3.4281,-1.4709,-1.5299,-1.5882,0.0,0.0,0.0,0.0,-1.4991,0.0,0.0,0.0,0.0,0.0,0.0,0.0,0.0,0.0,0.0,0.0,0.0,0.0,0.0,0.0,0.0,0.0,0.0,-2.5308,-2.5308,-2.5308,-2.5308,-2.5308,-2.5308,-2.5308,-2.5308,-2.5462,-2.5558,-2.5558,-2.5712,-2.6154,-2.6851,-2.6851,-2.7294,-2.8126,-2.8126,-2.8588,-2.9352,-2.9352,-2.9756,-3.0404,-3.0404,-3.0404,-3.0404,-3.0404,-3.0404,-3.0404,-3.0404,-3.0404,-3.0423,-3.0596,-3.0654,-3.0808,-3.166,-3.1929,-3.2083,-3.291,-3.3141,-3.3333,-3.4199,-3.4449,-3.4622,-3.5327,-3.55,-3.55,-3.55,-3.55,-3.55,-3.55,-3.55,-3.55,-3.55,-3.55,-3.55,-3.55,-3.55,-3.546,-3.5383,-3.5376,-3.5383,-3.5417,-3.5424,-3.5417,-3.5395,-3.5376,-3.5324,-3.5168,-3.5281,-3.5242,-3.4927,-3.5054,-3.5072,-3.4917,-3.4908,-3.4908,-3.4908,-3.4908,-3.4908,-3.4908,-3.4812,-3.4772,-3.4772,-3.4772,-3.4772,0.0,0.0,-1.8165,-1.6937,0.0,0.0,0.0,0.0,0.0,0.0,0.0,0.0,0.0,0.0,0.0,0.0,0.0,0.0,0.0,0.0,0.0,0.0,0.0,0.0,0.0,0.0,-2.5308,-2.5308,-2.5308,-2.5308,-2.5308,-2.5308,-2.5308,-2.5308,-2.5308,-2.5308,-2.5308,-2.5308,-2.5519,-2.5942,-2.5942,-2.6409,-2.7255,-2.7255,-2.7928,-2.9107,-2.9107,-2.9583,-3.0404,-3.0404,-3.0404,-3.0404,-3.0404,-3.0404,-3.0404,-3.0404,-3.0404,-3.0404,-3.0404,-3.0404,-3.0462,-3.0904,-3.1058,-3.1212,-3.2045,-3.2583,-3.2987,-3.343,-3.3545,-3.3757,-3.4622,-3.4853,-3.4968,-3.5404,-3.55,-3.55,-3.55,-3.55,-3.55,-3.55,-3.55,-3.55,-3.55,-3.55,-3.55,-3.55,-3.55,-3.55,-3.55,-3.55,-3.55,-3.55,-3.55,-3.5453,-3.5354,-3.5439,-3.5417,-3.5218,-3.5281,-3.5289,-3.5209,-3.5201,-3.5201,-3.5201,-3.5201,-3.5201,-3.5201,-3.5201,-3.5098,-3.4908,-3.4908,-3.4908,0.0,0.0,0.0,0.0,0.0,-1.9492,0.0,0.0,0.0,-1.9132,0.0,0.0,0.0,0.0,0.0,0.0,0.0,0.0,0.0,0.0,0.0,0.0,0.0,0.0,0.0,0.0,-2.4942,-2.5288,-2.5,-2.4962,-2.5288,-2.5308,-2.5308,-2.5308,-2.5308,-2.5308,-2.5308,-2.5308,-2.5308,-2.5308,-2.5308,-2.5673,-2.6351,-2.6351,-2.7178,-2.8626,-2.8626,-2.9198,-3.0154,-3.0154,-3.025,-3.0404,-3.0404,-3.0404,-3.0404,-3.0404,-3.0404,-3.0404,-3.0404,-3.0404,-3.0404,-3.0404,-3.0404,-3.0538,-3.1231,-3.191,-3.2449,-3.2622,-3.2679,-3.2872,-3.3725,-3.4071,-3.4379,-3.5084,-3.5385,-3.55,-3.55,-3.55,-3.55,-3.55,-3.55,-3.55,-3.55,-3.55,-3.55,-3.55,-3.55,-3.55,-3.55,-3.55,-3.55,-3.55,-3.55,-3.55,-3.55,-3.55,-3.55,-3.55,-3.55,-3.55,-3.55,-3.55,-3.55,-3.55,-3.55,-3.55,-3.55,-3.55,-3.5331,-3.5019,-3.5019,-3.5019,0.0,0.0,0.0,0.0,-2.1611,0.0,0.0,0.0,-1.9239,-1.819,0.0,0.0,0.0,0.0,0.0,0.0,0.0,0.0,0.0,0.0,0.0,0.0,0.0,0.0,0.0,0.0,0.0,-2.5192,-2.3928,-2.3735,-2.5231,-2.5308,-2.5308,-2.5308,-2.5308,-2.5308,-2.5308,-2.5308,-2.5308,-2.5308,-2.5308,-2.5346,-2.5442,-2.5442,-2.5962,-2.689,-2.689,-2.7775,-2.9242,-2.9242,-2.9698,-3.0404,-3.0404,-3.0404,-3.0404,-3.0404,-3.0404,-3.0404,-3.0404,-3.0404,-3.0404,-3.0404,-3.0404,-3.0423,-3.0519,-3.0615,-3.0846,-3.1621,-3.1833,-3.2025,-3.2833,-3.3622,-3.4225,-3.4321,-3.4949,-3.55,-3.55,-3.55,-3.55,-3.55,-3.55,-3.55,-3.55,-3.55,-3.55,-3.55,-3.55,-3.55,-3.55,-3.55,-3.55,-3.55,-3.55,-3.55,-3.55,-3.55,-3.55,-3.55,-3.55,-3.55,-3.55,-3.55,-3.55,-3.55,-3.55,-3.55,-3.55,-3.55,-3.5486,-3.5432,-3.5432,-3.5432,0.0,0.0,0.0,0.0,0.0,0.0,0.0,0.0,-1.9554,0.0,0.0,0.0,0.0,0.0,0.0,0.0,0.0,0.0,0.0,0.0,0.0,0.0,0.0,0.0,0.0,0.0,0.0,0.0,0.0,-2.3336,-2.4543,-2.5058,-2.5308,-2.5308,-2.5308,-2.5308,-2.5308,-2.5308,-2.5308,-2.5308,-2.5308,-2.5308,-2.5308,-2.5308,-2.5788,-2.6601,-2.6601,-2.7294,-2.8396,-2.8396,-2.889,-2.964,-2.964,-2.9948,-3.0404,-3.0404,-3.0404,-3.0404,-3.0404,-3.0404,-3.0404,-3.0404,-3.0404,-3.0404,-3.0404,-3.0404,-3.0481,-3.0846,-3.0942,-3.1135,-3.1987,-3.2814,-3.3564,-3.409,-3.4872,-3.55,-3.55,-3.55,-3.55,-3.55,-3.55,-3.55,-3.55,-3.55,-3.55,-3.55,-3.55,-3.55,-3.55,-3.55,-3.55,-3.55,-3.55,-3.55,-3.55,-3.55,-3.55,-3.55,-3.55,-3.55,-3.55,-3.55,-3.55,-3.55,-3.55,-3.55,-3.55,-3.55,-3.5494,-3.5502,-3.5494,-3.55,-2.3544,0.0,0.0,0.0,0.0,0.0,0.0,0.0,0.0,0.0,0.0,0.0,0.0,0.0,0.0,0.0,0.0,0.0,0.0,0.0,0.0,0.0,0.0,0.0,0.0,0.0,0.0,0.0,0.0,0.0,-2.3995,-2.4639,-2.5077,-2.5288,-2.5308,-2.5308,-2.5308,-2.5308,-2.5308,-2.5308,-2.5308,-2.5308,-2.5308,-2.5308,-2.5654,-2.6231,-2.6231,-2.6736,-2.7544,-2.7544,-2.803,-2.88,-2.9011,-2.9486,-3.0077,-3.0308,-3.0404,-3.0404,-3.0404,-3.0404,-3.0404,-3.0404,-3.0404,-3.0404,-3.0404,-3.0404,-3.0404,-3.0404,-3.0404,-3.0558,-3.1173,-3.1948,-3.2795,-3.3641,-3.4507,-3.5212,-3.5442,-3.5488,-3.5501,-3.5501,-3.5501,-3.5508,-3.5515,-3.5514,-3.55,-3.55,-3.55,-3.55,-3.55,-3.55,-3.55,-3.55,-3.55,-3.55,-3.55,-3.5494,-3.5501,-3.5534,-3.5534,-3.5534,-3.5534,-3.5534,-3.5534,-3.5534,-3.5534,-3.5534,-3.5534,-3.5534,-3.5528,-3.5522,-3.5508,-3.5514,0.0,0.0,0.0,0.0,0.0,0.0,0.0,0.0,-2.1216,0.0,0.0,0.0,0.0,0.0,-1.8684,-1.7834,0.0,0.0,0.0,0.0,0.0,0.0,0.0,0.0,0.0,0.0,0.0,0.0,0.0,0.0,-2.3879,-2.4129,-2.4509,-2.5288,-2.5308,-2.5308,-2.5308,-2.5308,-2.5308,-2.5308,-2.5308,-2.5308,-2.5308,-2.5308,-2.5327,-2.5346,-2.5346,-2.5846,-2.664,-2.664,-2.7159,-2.803,-2.88,-2.9127,-2.9242,-3.0096,-3.0404,-3.0404,-3.0404,-3.0404,-3.0404,-3.0404,-3.0404,-3.0404,-3.0404,-3.0404,-3.0404,-3.0404,-3.0404,-3.0404,-3.0423,-3.1096,-3.1948,-3.2756,-3.3603,-3.4468,-3.5327,-3.5495,-3.5509,-3.5509,-3.5496,-3.5528,-3.5591,-3.5534,-3.55,-3.55,-3.55,-3.55,-3.55,-3.55,-3.55,-3.55,-3.55,-3.55,-3.55,-3.5502,-3.5522,-3.5591,-3.5591,-3.5591,-3.5591,-3.5591,-3.5591,-3.5591,-3.5591,-3.5591,-3.5591,-3.5591,-3.5598,-3.5591,-3.554,-3.5521,0.0,0.0,-2.5038,-2.3932,0.0,0.0,0.0,0.0,0.0,0.0,0.0,0.0,0.0,0.0,-1.8703,-1.7834,-1.7257,0.0,0.0,0.0,0.0,0.0,0.0,0.0,0.0,0.0,0.0,0.0,0.0,0.0,0.0,-2.3783,-2.4471,-2.5269,-2.5308,-2.5308,-2.5308,-2.5308,-2.5308,-2.5308,-2.5308,-2.5308,-2.5308,-2.5308,-2.5308,-2.5308,-2.5308,-2.5462,-2.5731,-2.5731,-2.625,-2.7121,-2.7972,-2.8626,-2.9204,-3.0077,-3.0404,-3.0404,-3.0404,-3.0404,-3.0404,-3.0404,-3.0404,-3.0404,-3.0404,-3.0402,-3.0394,-3.041,-3.0402,-3.04,-3.04,-3.1055,-3.1908,-3.276,-3.3627,-3.4494,-3.5387,-3.5573,-3.556,-3.556,-3.5566,-3.5572,-3.5598,-3.5579,-3.5579,-3.5579,-3.5579,-3.5579,-3.5579,-3.5579,-3.5579,-3.5579,-3.5579,-3.5579,-3.5579,-3.5573,-3.5585,-3.5598,-3.5598,-3.5598,-3.5598,-3.5598,-3.5598,-3.5598,-3.5598,-3.5598,-3.5598,-3.5598,-3.561,-3.5608,-3.5579,-3.5573,-2.5322,-2.5317,0.0,0.0,-2.3259,0.0,0.0,0.0,0.0,0.0,0.0,0.0,0.0,0.0,-1.8819,-1.8261,-1.7237,-1.5718,0.0,0.0,0.0,0.0,0.0,0.0,0.0,0.0,-1.5737,-1.718,0.0,0.0,0.0,0.0,-2.4144,-2.5269,-2.5308,-2.5308,-2.5308,-2.5308,-2.5308,-2.5308,-2.5308,-2.5308,-2.5308,-2.5308,-2.5308,-2.5308,-2.5308,-2.5308,-2.5308,-2.5341,-2.5673,-2.6289,-2.7459,-2.821,-2.8807,-2.9973,-3.0404,-3.0404,-3.0396,-3.0402,-3.0402,-3.0439,-3.0439,-3.0439,-3.0439,-3.0436,-3.0447,-3.0444,-3.0436,-3.0433,-3.0433,-3.0857,-3.1499,-3.2345,-3.3194,-3.4081,-3.4955,-3.5372,-3.5596,-3.5596,-3.5622,-3.5628,-3.5628,-3.5628,-3.5622,-3.5604,-3.5598,-3.5598,-3.5598,-3.5598,-3.5598,-3.5598,-3.5598,-3.5604,-3.5596,-3.5596,-3.5616,-3.5628,-3.5628,-3.5628,-3.5628,-3.5628,-3.5628,-3.5628,-3.5628,-3.5628,-3.5628,-3.5628,-3.5639,-3.5637,-3.5639,-3.5628]},{"header":{"parameterUnit":"m.s-1","parameterCategory":1,"la1":30.6,"la2":29.2853,"lo1":-89.7004,"lo2":-87.6739,"dy":0.0162,"dx":0.0183,"nx":112,"ny":82,"refTime":"2024-07-20T06:00:00:Z","depth":0,"parameterNumber":3,"parameterNumberName":"V-component_of_WINDS"},"data":[0.0,0.0,0.0,0.0,0.0,0.0,0.0,0.0,0.0,0.0,0.0,0.0,0.0,0.0,0.0,0.0,0.0,0.0,0.0,0.0,0.0,0.0,0.0,0.0,0.0,0.0,0.0,0.0,0.0,0.0,0.0,0.0,0.0,0.0,0.0,0.0,0.0,0.0,0.0,0.0,0.0,0.0,0.0,0.0,0.0,0.0,0.0,0.0,0.0,0.0,0.0,0.0,0.0,0.0,0.0,0.0,0.0,0.0,0.0,0.0,0.0,0.0,0.0,0.0,0.0,0.0,0.0,0.0,0.0,0.0,0.0,0.0,0.0,0.0,0.0,0.0,0.0,0.0,0.0,0.0,0.0,0.0,0.0,0.0,0.0,0.0,0.0,0.0,0.0,0.0,0.0,-0.9988,-1.177,-1.2905,-1.2905,-1.2412,-1.1238,-0.9211,0.0,0.0,0.0,0.0,0.0,0.0,0.0,0.0,0.0,0.0,0.0,0.0,0.0,0.0,0.0,0.0,0.0,0.0,0.0,0.0,0.0,0.0,0.0,0.0,0.0,0.0,0.0,0.0,0.0,0.0,0.0,0.0,0.0,0.0,0.0,0.0,0.0,0.0,0.0,0.0,0.0,0.0,0.0,0.0,0.0,0.0,0.0,0.0,0.0,0.0,0.0,0.0,0.0,0.0,0.0,0.0,0.0,0.0,0.0,0.0,0.0,0.0,0.0,0.0,0.0,0.0,0.0,0.0,0.0,0.0,0.0,0.0,0.0,0.0,0.0,0.0,0.0,0.0,0.0,0.0,0.0,0.0,0.0,0.0,0.0,0.0,0.0,0.0,0.0,0.0,0.0,0.0,0.0,0.0,0.0,0.0,0.0,0.0,0.0,0.0,0.0,0.0,0.0,0.0,-0.9353,-1.1592,-1.2471,-1.2905,-1.2905,-1.2152,-1.1076,-0.9611,0.0,0.0,0.0,0.0,0.0,0.0,0.0,0.0,0.0,0.0,0.0,0.0,0.0,0.0,0.0,0.0,0.0,0.0,0.0,0.0,0.0,0.0,0.0,0.0,0.0,0.0,0.0,0.0,0.0,0.0,0.0,0.0,0.0,0.0,0.0,0.0,0.0,0.0,0.0,0.0,0.0,0.0,0.0,0.0,0.0,0.0,0.0,0.0,0.0,0.0,0.0,0.0,0.0,0.0,0.0,0.0,0.0,0.0,0.0,0.0,0.0,0.0,0.0,0.0,0.0,0.0,0.0,0.0,0.0,0.0,0.0,0.0,0.0,0.0,0.0,0.0,0.0,0.0,0.0,0.0,0.0,0.0,0.0,0.0,0.0,0.0,0.0,0.0,0.0,0.0,0.0,0.0,0.0,0.0,0.0,0.0,0.0,0.0,0.0,0.0,0.0,0.0,0.0,-0.9063,-0.9999,-1.2334,-1.2764,-1.2905,-1.2905,-1.2093,-1.0929,-0.9367,-0.848,0.0,0.0,0.0,0.0,0.0,0.0,0.0,0.0,0.0,0.0,0.0,0.0,0.0,0.0,0.0,0.0,0.0,0.0,0.0,0.0,0.0,0.0,0.0,0.0,0.0,0.0,0.0,0.0,0.0,0.0,0.0,0.0,0.0,0.0,0.0,0.0,0.0,0.0,0.0,0.0,0.0,0.0,0.0,0.0,0.0,0.0,0.0,0.0,0.0,0.0,0.0,0.0,0.0,0.0,0.0,0.0,0.0,0.0,0.0,0.0,0.0,0.0,0.0,0.0,0.0,0.0,0.0,0.0,0.0,0.0,0.0,0.0,0.0,0.0,0.0,0.0,0.0,0.0,0.0,0.0,0.0,0.0,0.0,0.0,0.0,0.0,0.0,0.0,0.0,0.0,0.0,0.0,0.0,0.0,0.0,0.0,0.0,0.0,0.0,0.0,0.0,0.0,-1.0125,-1.0811,-1.27,-1.2905,-1.2905,-1.2905,-1.1907,-1.0635,-0.9102,-0.7993,0.0,0.0,0.0,0.0,0.0,0.0,0.0,0.0,0.0,0.0,0.0,0.0,0.0,0.0,0.0,0.0,0.0,0.0,0.0,0.0,0.0,0.0,0.0,0.0,0.0,0.0,0.0,0.0,0.0,0.0,0.0,0.0,0.0,0.0,0.0,0.0,0.0,0.0,0.0,0.0,0.0,0.0,0.0,0.0,0.0,0.0,0.0,0.0,0.0,0.0,0.0,0.0,0.0,0.0,0.0,0.0,0.0,0.0,0.0,0.0,0.0,0.0,0.0,0.0,0.0,0.0,0.0,0.0,0.0,0.0,0.0,0.0,0.0,0.0,0.0,0.0,0.0,0.0,0.0,0.0,0.0,0.0,0.0,0.0,0.0,0.0,0.0,0.0,0.0,0.0,0.0,0.0,0.0,0.0,0.0,0.0,0.0,0.0,0.0,0.0,0.0,0.0,-1.0558,-1.1819,-1.2798,-1.2905,-1.2905,-1.2905,-1.1359,-0.9999,-0.9062,-0.7432,0.0,0.0,0.0,0.0,0.0,0.0,0.0,0.0,0.0,0.0,0.0,0.0,0.0,0.0,0.0,0.0,0.0,0.0,0.0,0.0,0.0,0.0,0.0,0.0,0.0,0.0,0.0,0.0,0.0,0.0,0.0,0.0,0.0,0.0,0.0,0.0,0.0,0.0,0.0,0.0,0.0,0.0,0.0,0.0,0.0,0.0,0.0,0.0,0.0,0.0,0.0,0.0,0.0,0.0,0.0,0.0,0.0,0.0,0.0,0.0,0.0,0.0,0.0,0.0,0.0,0.0,0.0,0.0,0.0,0.0,0.0,0.0,0.0,0.0,0.0,0.0,0.0,0.0,0.0,0.0,0.0,0.0,0.0,0.0,0.0,0.0,0.0,0.0,0.0,0.0,0.0,0.0,0.0,0.0,0.0,0.0,0.0,0.0,0.0,0.0,0.0,0.0,-1.0134,-1.133,0.0,-1.2905,-1.2905,-1.2905,-1.18,-1.0508,-0.9092,0.0,0.0,0.0,0.0,0.0,0.0,0.0,0.0,0.0,0.0,0.0,0.0,0.0,0.0,0.0,0.0,0.0,0.0,0.0,0.0,0.0,0.0,0.0,0.0,0.0,0.0,0.0,0.0,0.0,0.0,0.0,0.0,0.0,0.0,0.0,0.0,0.0,0.0,0.0,0.0,0.0,0.0,0.0,0.0,0.0,0.0,0.0,0.0,0.0,0.0,0.0,0.0,0.0,0.0,0.0,0.0,0.0,0.0,0.0,0.0,0.0,0.0,0.0,0.0,0.0,0.0,0.0,0.0,0.0,0.0,0.0,0.0,0.0,0.0,0.0,0.0,0.0,0.0,0.0,0.0,0.0,0.0,0.0,0.0,0.0,0.0,0.0,0.0,0.0,0.0,0.0,0.0,0.0,0.0,0.0,0.0,0.0,0.0,0.0,0.0,0.0,0.0,-0.9084,-1.0103,-1.1271,0.0,-1.2905,-1.2905,-1.2905,-1.1848,-1.0557,-0.9102,0.0,0.0,0.0,0.0,0.0,0.0,0.0,0.0,0.0,0.0,0.0,0.0,0.0,0.0,0.0,0.0,0.0,0.0,0.0,0.0,0.0,0.0,0.0,0.0,0.0,0.0,0.0,0.0,0.0,0.0,0.0,0.0,0.0,0.0,0.0,0.0,0.0,0.0,0.0,0.0,0.0,0.0,0.0,0.0,0.0,0.0,0.0,0.0,0.0,0.0,0.0,0.0,0.0,0.0,0.0,0.0,0.0,0.0,0.0,0.0,0.0,0.0,0.0,0.0,0.0,0.0,0.0,0.0,0.0,0.0,0.0,0.0,0.0,0.0,0.0,0.0,0.0,0.0,0.0,0.0,0.0,0.0,0.0,0.0,0.0,0.0,0.0,0.0,0.0,0.0,0.0,0.0,0.0,0.0,0.0,0.0,0.0,0.0,0.0,0.0,0.0,0.0,-0.9299,-1.0686,-1.1917,-1.2817,-1.2905,-1.2905,-1.2905,-1.131,-0.995,0.0,0.0,0.0,0.0,0.0,0.0,0.0,0.0,0.0,0.0,0.0,0.0,0.0,0.0,0.0,0.0,0.0,0.0,0.0,0.0,0.0,0.0,0.0,0.0,0.0,0.0,0.0,0.0,0.0,0.0,0.0,0.0,0.0,0.0,0.0,0.0,0.0,0.0,0.0,0.0,0.0,0.0,0.0,0.0,0.0,0.0,0.0,0.0,0.0,0.0,0.0,0.0,0.0,0.0,0.0,0.0,0.0,0.0,0.0,0.0,0.0,0.0,0.0,0.0,0.0,0.0,0.0,0.0,0.0,0.0,0.0,0.0,0.0,0.0,0.0,0.0,0.0,0.0,0.0,0.0,0.0,0.0,0.0,0.0,0.0,0.0,0.0,0.0,0.0,0.0,0.0,0.0,0.0,0.0,0.0,0.0,0.0,0.0,0.0,0.0,0.0,0.0,0.0,0.0,-1.0686,-1.1917,-1.2817,-1.2905,-1.2905,-1.2905,-1.1858,-1.0577,-0.9102,0.0,0.0,0.0,0.0,0.0,0.0,0.0,0.0,0.0,0.0,0.0,0.0,0.0,0.0,0.0,0.0,0.0,0.0,0.0,0.0,0.0,0.0,0.0,0.0,0.0,0.0,0.0,0.0,0.0,0.0,0.0,0.0,0.0,0.0,0.0,0.0,0.0,0.0,0.0,0.0,0.0,0.0,0.0,0.0,0.0,0.0,0.0,0.0,0.0,0.0,0.0,0.0,0.0,0.0,0.0,0.0,0.0,0.0,0.0,0.0,0.0,0.0,0.0,0.0,0.0,0.0,0.0,0.0,0.0,0.0,0.0,0.0,0.0,0.0,0.0,0.0,0.0,0.0,0.0,0.0,0.0,0.0,0.0,0.0,0.0,0.0,0.0,0.0,0.0,0.0,0.0,0.0,0.0,0.0,0.0,0.0,0.0,0.0,0.0,0.0,0.0,0.0,-0.926,-1.0666,-1.1917,-1.2817,-1.2905,-1.2905,-1.2905,-1.2093,-1.0919,-0.9338,0.0,0.0,0.0,0.0,0.0,0.0,0.0,0.0,0.0,0.0,0.0,0.0,0.0,0.0,0.0,0.0,0.0,0.0,0.0,0.0,0.0,0.0,0.0,0.0,0.0,0.0,0.0,0.0,0.0,0.0,0.0,0.0,0.0,0.0,0.0,0.0,0.0,0.0,0.0,0.0,0.0,0.0,0.0,0.0,0.0,0.0,0.0,0.0,0.0,0.0,0.0,0.0,0.0,0.0,0.0,0.0,0.0,0.0,0.0,0.0,0.0,0.0,0.0,0.0,0.0,0.0,0.0,0.0,0.0,0.0,0.0,0.0,0.0,0.0,0.0,0.0,0.0,0.0,0.0,0.0,0.0,0.0,0.0,0.0,0.0,0.0,0.0,0.0,0.0,0.0,0.0,0.0,0.0,0.0,0.0,0.0,0.0,0.0,0.0,0.0,0.0,0.0,-0.9238,-1.0676,-1.1917,-1.2817,-1.2905,-1.2905,-1.2905,-1.2093,-1.1046,-0.9757,0.0,0.0,0.0,0.0,0.0,0.0,0.0,0.0,0.0,0.0,0.0,0.0,0.0,0.0,0.0,0.0,0.0,0.0,0.0,0.0,0.0,0.0,0.0,0.0,0.0,0.0,0.0,0.0,0.0,0.0,0.0,0.0,0.0,0.0,0.0,0.0,0.0,0.0,0.0,0.0,0.0,0.0,0.0,0.0,0.0,0.0,0.0,0.0,0.0,0.0,0.0,0.0,0.0,0.0,0.0,0.0,0.0,0.0,0.0,0.0,-0.806,0.0,0.0,0.0,0.0,0.0,0.0,0.0,0.0,0.0,0.0,0.0,0.0,0.0,0.0,0.0,0.0,0.0,0.0,0.0,0.0,0.0,0.0,0.0,0.0,0.0,0.0,0.0,0.0,0.0,0.0,0.0,0.0,0.0,0.0,0.0,0.0,0.0,0.0,0.0,0.0,0.0,-0.9617,-1.0844,-1.1917,-1.2817,-1.2905,-1.2905,-1.2905,-1.2093,-1.1194,-1.0205,0.0,0.0,0.0,0.0,0.0,0.0,0.0,0.0,0.0,0.0,0.0,0.0,0.0,0.0,0.0,0.0,0.0,0.0,0.0,0.0,0.0,0.0,0.0,0.0,0.0,0.0,0.0,0.0,0.0,0.0,0.0,0.0,0.0,0.0,0.0,0.0,0.0,0.0,0.0,0.0,0.0,0.0,0.0,0.0,0.0,0.0,0.0,0.0,0.0,0.0,0.0,0.0,0.0,0.0,0.0,0.0,0.0,0.0,0.0,0.0,0.0,-0.8792,0.0,0.0,0.0,0.0,0.0,0.0,0.0,0.0,0.0,0.0,0.0,0.0,0.0,0.0,0.0,0.0,0.0,0.0,0.0,0.0,0.0,0.0,0.0,0.0,0.0,0.0,0.0,0.0,0.0,0.0,0.0,0.0,0.0,0.0,0.0,0.0,0.0,0.0,0.0,0.0,-0.9635,-1.1009,-1.2139,-1.2837,-1.2905,-1.2905,-1.2905,-1.2289,-1.1514,-1.0635,-0.957,0.0,0.0,0.0,0.0,0.0,0.0,0.0,0.0,0.0,0.0,0.0,0.0,0.0,0.0,0.0,0.0,0.0,0.0,0.0,0.0,0.0,0.0,0.0,0.0,0.0,0.0,0.0,0.0,0.0,0.0,0.0,0.0,0.0,0.0,0.0,0.0,0.0,0.0,0.0,0.0,0.0,0.0,0.0,0.0,0.0,0.0,0.0,0.0,0.0,0.0,0.0,0.0,0.0,0.0,0.0,-1.1365,-1.1148,-1.1365,-1.1913,-1.1293,-1.0817,-1.0384,0.0,0.0,0.0,0.0,0.0,0.0,0.0,0.0,0.0,0.0,0.0,0.0,0.0,0.0,0.0,0.0,0.0,0.0,0.0,0.0,0.0,0.0,0.0,0.0,0.0,-1.0947,-1.084,0.0,0.0,0.0,0.0,0.0,0.0,0.0,0.0,0.0,0.0,0.0,0.0,-0.9746,-1.1219,-1.2369,-1.2856,-1.2905,-1.2905,-1.2905,-1.248,-1.1892,-1.116,-1.0244,-0.9221,0.0,0.0,0.0,0.0,0.0,0.0,0.0,0.0,0.0,0.0,0.0,0.0,0.0,0.0,0.0,0.0,0.0,0.0,0.0,0.0,0.0,0.0,0.0,0.0,0.0,0.0,0.0,0.0,0.0,0.0,0.0,0.0,-0.4671,-0.5483,0.0,0.0,0.0,0.0,0.0,0.0,0.0,0.0,0.0,0.0,0.0,0.0,0.0,0.0,-1.0804,-1.1558,-1.1954,-1.2027,-1.3144,-1.3527,-1.3266,-1.4035,-1.3993,-1.3359,-1.4076,0.0,-1.1374,-1.0838,0.0,0.0,0.0,0.0,0.0,0.0,0.0,0.0,0.0,0.0,0.0,0.0,0.0,0.0,0.0,0.0,0.0,0.0,0.0,0.0,0.0,0.0,-1.2396,-1.2028,-1.2305,-1.2451,0.0,-1.0556,-0.9377,-0.8841,0.0,0.0,0.0,0.0,0.0,0.0,0.0,0.0,-1.0615,-1.1589,-1.2369,-1.2856,-1.2905,-1.2905,-1.2905,-1.248,-1.2155,-1.2038,-1.0889,-0.9951,-0.9369,-0.8172,0.0,0.0,0.0,0.0,0.0,0.0,0.0,0.0,0.0,0.0,0.0,0.0,0.0,0.0,0.0,0.0,0.0,0.0,0.0,0.0,0.0,0.0,0.0,0.0,0.0,0.0,0.0,0.0,0.0,-0.4584,-0.5345,-0.5853,-0.6155,-0.6421,0.0,0.0,0.0,0.0,0.0,0.0,0.0,0.0,0.0,-1.1246,-1.1618,-1.2027,-1.2507,-1.3388,-1.3821,-1.3831,-1.4407,-1.4593,-1.4407,-1.4811,-1.478,-1.4417,-1.4821,-1.4428,-1.3424,-1.2386,-1.1378,-1.0407,0.0,0.0,0.0,0.0,0.0,-1.0089,-1.0765,0.0,0.0,0.0,0.0,0.0,0.0,0.0,0.0,0.0,0.0,0.0,0.0,0.0,0.0,-1.2588,-1.2744,-1.2856,-1.2637,-1.1992,-1.1182,0.0,-0.9922,-0.957,-0.8857,0.0,0.0,0.0,0.0,0.0,-1.1213,-1.2041,-1.2666,-1.2886,-1.2905,-1.2905,-1.2905,-1.2705,-1.249,-1.2223,-1.1455,-1.0723,-1.0029,-0.8977,-0.7934,0.0,0.0,0.0,0.0,0.0,0.0,0.0,0.0,0.0,0.0,0.0,0.0,0.0,0.0,0.0,0.0,0.0,0.0,0.0,0.0,0.0,0.0,0.0,0.0,0.0,0.0,0.0,0.0,-0.547,-0.6136,-0.6354,-0.7158,-0.7651,0.0,0.0,0.0,0.0,0.0,0.0,-1.0988,-1.12,-1.1647,-1.2425,-1.3086,-1.3597,-1.3938,-1.4656,-1.4997,-1.4997,-1.5121,-1.5111,-1.5007,-1.5245,-1.5225,-1.4955,-1.5182,-1.5098,-1.4732,-1.3744,-1.2772,-1.191,-1.1515,-1.1294,0.0,-1.1672,-1.1776,-1.1787,-1.2578,-1.2763,-1.2584,-1.1931,0.0,-1.1126,-1.0184,0.0,0.0,0.0,0.0,-1.1596,-1.2103,0.0,-1.2749,-1.2988,-1.3037,-1.3042,-1.2925,-1.2905,-1.2588,0.0,-1.1297,-1.0927,-0.9981,0.0,0.0,0.0,0.0,-1.1367,-1.1712,-1.2426,-1.2905,-1.2905,-1.2905,-1.2905,-1.2905,-1.2905,-1.2695,-1.2233,-1.1829,-1.1263,-1.0488,-0.9619,-0.8802,0.0,0.0,0.0,0.0,0.0,0.0,0.0,0.0,0.0,0.0,0.0,0.0,0.0,0.0,0.0,0.0,0.0,0.0,0.0,0.0,0.0,0.0,0.0,0.0,0.0,0.0,0.0,0.0,0.0,0.0,-0.7409,-0.8859,0.0,0.0,0.0,0.0,-1.0277,-1.093,-1.1557,-1.2173,-1.3182,-1.3852,-1.4159,-1.4645,-1.4904,-1.4925,-1.4976,-1.4997,-1.5007,-1.5442,-1.5421,-1.5028,-1.5908,-1.577,-1.4854,-1.5675,-1.5396,-1.4354,-1.4601,-1.4389,-1.3936,-1.3786,-1.3451,-1.3106,-1.3447,-1.3565,-1.3599,-1.3913,-1.4007,-1.4007,-1.3958,-1.3129,-1.2125,-1.2067,-1.1472,0.0,0.0,-1.2778,-1.2993,-1.3763,-1.3997,-1.3919,-1.3564,-1.3477,-1.3369,-1.2993,-1.2905,-1.2886,0.0,-1.2441,-1.2116,-1.2057,0.0,0.0,-1.1479,-1.1846,-1.2145,-1.2164,-1.2598,-1.2905,-1.2905,-1.2905,-1.2905,-1.2905,-1.2905,-1.2695,-1.2233,-1.1829,-1.1379,-1.0898,-1.004,-0.9377,-0.8945,-0.8061,0.0,0.0,0.0,0.0,0.0,0.0,0.0,0.0,0.0,0.0,0.0,0.0,0.0,0.0,0.0,0.0,0.0,0.0,0.0,0.0,0.0,0.0,0.0,0.0,0.0,0.0,0.0,0.0,-0.9026,-0.982,0.0,0.0,-1.0725,-1.1178,-1.172,-1.2404,-1.3052,-1.3572,-1.4243,-1.4659,-1.4749,-1.5204,-1.5587,-1.5915,-1.6177,-1.6283,-1.6293,-1.6448,-1.6322,-1.5925,-1.6257,-1.6198,-1.5842,-1.601,-1.5873,-1.5439,-1.5403,-1.4879,-1.409,-1.4047,-1.3923,-1.3779,-1.391,-1.3969,-1.3962,-1.4082,-1.4104,-1.4104,-1.4104,-1.3802,-1.3432,-1.3432,-1.3207,-1.3061,-1.3529,-1.3665,-1.3734,-1.4026,-1.4104,-1.4065,-1.3919,-1.389,-1.3851,-1.3695,-1.3477,-1.3281,-1.3281,-1.2939,-1.2559,-1.2252,-1.2334,-1.2338,-1.2031,-1.2363,-1.2646,-1.2646,-1.2807,-1.2905,-1.2905,-1.2905,-1.2905,-1.2905,-1.2905,-1.2695,-1.2233,-1.1829,-1.1389,-1.0928,-1.0352,-0.9844,-0.9396,-0.8831,-0.7905,0.0,0.0,0.0,0.0,0.0,0.0,0.0,0.0,0.0,0.0,0.0,0.0,0.0,0.0,0.0,0.0,0.0,0.0,0.0,0.0,0.0,0.0,0.0,0.0,0.0,0.0,-0.9496,-1.0111,-1.0976,-1.1601,-1.1704,-1.2194,-1.2733,-1.3292,-1.3793,-1.4221,-1.4521,-1.4976,-1.5235,-1.5235,-1.5825,-1.6291,-1.6601,-1.7017,-1.7244,-1.7244,-1.7244,-1.7099,-1.6839,-1.6839,-1.6781,-1.6663,-1.6524,-1.6334,-1.6086,-1.6049,-1.5537,-1.4775,-1.4591,-1.4533,-1.4533,-1.4533,-1.4533,-1.4533,-1.4533,-1.4533,-1.4513,-1.4367,-1.4328,-1.4299,-1.4153,-1.4104,-1.4133,-1.428,-1.4328,-1.4358,-1.4504,-1.4533,-1.4504,-1.4358,-1.4328,-1.428,-1.4133,-1.389,-1.3695,-1.3695,-1.3262,-1.2807,-1.25,-1.2686,-1.2783,-1.249,-1.2695,-1.2905,-1.2905,-1.2905,-1.2905,-1.2905,-1.2905,-1.2905,-1.2905,-1.2905,-1.2695,-1.2233,-1.1829,-1.1389,-1.0928,-1.0361,-0.9932,-0.9602,-0.9082,-0.8447,-0.7744,0.0,0.0,0.0,0.0,0.0,0.0,0.0,0.0,0.0,0.0,0.0,0.0,0.0,0.0,0.0,0.0,0.0,0.0,0.0,0.0,0.0,0.0,0.0,-0.858,-0.9864,-1.0759,-1.0603,-1.2376,-1.3442,-1.2987,-1.3772,-1.4511,-1.4966,-1.5007,-1.5018,-1.5018,-1.5463,-1.5739,-1.5732,-1.6552,-1.7027,-1.7028,-1.7492,-1.7719,-1.7719,-1.7719,-1.7719,-1.7699,-1.7699,-1.7512,-1.72,-1.72,-1.6795,-1.6144,-1.6553,-1.6475,-1.6075,-1.5615,-1.542,-1.543,-1.543,-1.542,-1.541,-1.541,-1.541,-1.5342,-1.4941,-1.4833,-1.4727,-1.428,-1.4143,-1.4241,-1.4687,-1.4833,-1.4902,-1.5303,-1.541,-1.5312,-1.4902,-1.4833,-1.4687,-1.4241,-1.4133,-1.4124,-1.4124,-1.3486,-1.2935,-1.2925,-1.2915,-1.2905,-1.2905,-1.2905,0.0,-1.2905,-1.2905,-1.2905,-1.2905,-1.2905,-1.2905,-1.2905,-1.2905,-1.2686,-1.2213,-1.1819,-1.1389,-1.0928,-1.0098,-0.9631,-0.9631,-0.8857,-0.8649,-0.9023,0.0,0.0,0.0,0.0,0.0,0.0,0.0,0.0,0.0,0.0,0.0,0.0,0.0,0.0,0.0,0.0,0.0,0.0,0.0,0.0,0.0,0.0,-0.984,-1.0124,-1.0739,-1.1453,-1.2233,-1.3133,-1.3735,-1.3893,-1.4469,-1.4863,-1.4987,-1.5308,-1.5504,-1.5504,-1.5939,-1.6332,-1.6634,-1.6882,-1.7327,-1.8009,-1.8133,-1.8206,-1.8206,-1.8206,-1.804,-1.7699,-1.7699,-1.7606,-1.7419,-1.7263,-1.7036,-1.674,-1.6711,-1.6629,-1.6502,-1.6385,-1.6172,-1.5919,-1.5919,-1.5684,-1.541,-1.541,-1.541,-1.5391,-1.5273,-1.5244,-1.5215,-1.5069,-1.503,-1.5059,-1.5205,-1.5244,-1.5264,-1.5381,-1.541,-1.5381,-1.5264,-1.5244,-1.5205,-1.5059,-1.4824,-1.4609,-1.4609,-1.4133,-1.3665,-1.3389,-1.3076,-1.2905,-1.2905,0.0,0.0,-1.2905,-1.2905,-1.2905,-1.2905,-1.2905,-1.2905,-1.2905,-1.2905,-1.2582,0.0,-1.1653,-1.1389,-1.0928,-1.0663,-1.0537,-1.0537,-1.0029,-0.9658,0.0,0.0,0.0,0.0,0.0,0.0,0.0,0.0,0.0,0.0,0.0,0.0,0.0,0.0,0.0,0.0,0.0,0.0,0.0,0.0,0.0,0.0,-0.9807,-1.0855,-1.142,-1.1803,-1.2254,-1.2914,-1.3561,-1.4114,-1.4547,-1.5018,-1.537,-1.5566,-1.6001,-1.6249,-1.6249,-1.6694,-1.7037,-1.7296,-1.7471,-1.7854,-1.8403,-1.8611,-1.8704,-1.8704,-1.8704,-1.8504,-1.8171,-1.8171,-1.8032,0.0,-1.771,-1.7481,-1.7172,-1.722,-1.7168,0.0,0.0,0.0,0.0,0.0,-1.6182,-1.5937,-1.5937,-1.5937,-1.5907,-1.5742,-1.5811,-1.5868,-1.5498,-1.5537,-1.5644,-1.5469,-1.541,-1.541,-1.541,-1.541,-1.541,-1.541,-1.541,-1.541,-1.541,-1.5215,-1.5049,-1.5049,0.0,0.0,-1.4082,-1.3545,-1.3145,-1.3145,-1.3023,-1.2905,0.0,-1.2905,-1.2905,-1.2905,-1.2905,-1.2905,-1.2905,-1.2905,0.0,0.0,0.0,-1.1562,-1.0937,0.0,0.0,0.0,0.0,0.0,0.0,0.0,0.0,0.0,-1.0263,-1.0301,0.0,0.0,0.0,0.0,0.0,0.0,0.0,0.0,0.0,0.0,0.0,0.0,0.0,0.0,0.0,0.0,-1.0722,-1.1621,-1.2399,-1.2793,-1.3035,-1.3075,-1.384,-1.4562,-1.5028,-1.5494,-1.596,-1.6415,-1.6789,-1.7007,-1.7089,0.0,0.0,0.0,0.0,-1.8434,-1.8486,-1.8901,-1.9108,-1.9075,-1.9075,-1.8975,-1.8774,-1.8774,-1.8607,-1.8303,-1.8303,-1.7994,-1.7513,-1.7852,-1.7793,-1.7412,-1.6973,-1.6775,-1.6765,-1.6716,-1.6697,0.0,0.0,0.0,0.0,-1.6269,-1.6406,-1.6551,-1.5771,-1.5791,-1.6007,-1.5596,-1.5449,-1.541,-1.541,-1.541,-1.541,-1.541,-1.541,-1.541,-1.541,-1.541,-1.541,-1.541,-1.5107,-1.4882,-1.4882,-1.4141,-1.3539,-1.3516,-1.3193,0.0,-1.2915,-1.2905,-1.2905,-1.2905,0.0,0.0,-1.2905,-1.2905,-1.2886,-1.2812,-1.2418,-1.1853,-1.1073,-1.1103,-1.1103,-1.1055,-1.1103,-1.1472,-1.2203,-1.2252,-1.2281,-1.2242,-1.0874,-1.0874,0.0,0.0,0.0,0.0,0.0,0.0,0.0,0.0,0.0,0.0,0.0,0.0,0.0,0.0,0.0,-1.0378,-1.1237,-1.196,-1.2446,-1.2793,-1.3144,-1.3526,-1.4343,-1.5049,-1.5515,-1.5998,-1.6436,-1.6851,-1.6965,-1.7182,-1.7554,-1.7657,0.0,-1.8247,-1.8362,-1.859,-1.8963,-1.9056,-1.9008,-1.8875,0.0,0.0,-1.8549,-1.8549,-1.8472,-1.8303,-1.8303,-1.8128,-1.79,-1.7978,-1.7959,-1.7842,-1.7422,-1.7256,-1.7217,-1.6833,-1.6697,-1.6697,-1.6697,-1.6697,-1.6687,-1.6599,-1.6629,-1.6668,-1.6502,-1.6279,0.0,-1.5987,-1.5684,-1.541,-1.541,-1.541,-1.541,-1.541,-1.541,-1.541,-1.541,-1.541,-1.541,-1.541,-1.5342,-1.5293,-1.5293,-1.4552,-1.387,-1.3555,-1.3437,-1.3262,-1.2954,-1.2905,-1.2905,-1.2905,-1.2905,-1.2905,-1.2905,-1.2905,-1.2734,-1.2359,-1.2252,-1.2135,-1.196,-1.2314,-1.2334,-1.196,-1.2324,-1.2412,-1.2203,-1.2588,-1.2754,-1.2768,-1.2459,-1.2266,0.0,0.0,0.0,0.0,0.0,0.0,0.0,0.0,0.0,0.0,0.0,-0.798,0.0,0.0,-1.0272,-1.0348,-1.1538,-1.2411,-1.2319,-1.3071,-1.3654,-1.3695,-1.4465,-1.5183,-1.5639,-1.6312,-1.6769,-1.6996,-1.743,-1.7812,-1.804,-1.8182,-1.8376,-1.8592,-1.8504,-1.855,-1.8808,-1.8808,-1.8741,-1.865,-1.865,-1.8573,-1.8414,-1.8414,-1.8303,-1.8144,-1.8144,-1.8076,-1.8008,-1.8008,-1.8008,-1.7988,-1.7773,-1.7695,-1.7676,-1.7451,-1.734,-1.734,-1.734,-1.734,-1.7301,-1.7129,-1.7197,-1.7262,-1.6824,-1.6541,-1.6357,-1.6153,-1.5752,-1.541,-1.541,-1.541,-1.541,-1.541,-1.541,-1.541,-1.541,-1.541,-1.541,-1.541,-1.541,-1.541,-1.541,-1.503,-1.4601,-1.4209,-1.3779,-1.3437,-1.3223,-1.3008,-1.2905,-1.2905,-1.2905,-1.2905,-1.2905,-1.2905,-1.2807,-1.2568,-1.2559,-1.2559,-1.2559,-1.2788,-1.2783,-1.2559,-1.2773,-1.2773,-1.2559,-1.2798,-1.2905,-1.2905,-1.2905,-1.2764,0.0,0.0,0.0,0.0,0.0,0.0,0.0,0.0,-0.7201,-0.7855,-0.8424,-0.8857,-0.908,-1.0171,-1.0892,-1.0365,-1.1636,-1.2603,-1.2343,-1.3377,-1.4096,-1.3993,-1.4659,-1.5308,-1.5773,-1.6531,-1.7048,-1.7141,-1.7926,-1.8413,-1.8473,-1.867,-1.8774,-1.8741,-1.8573,-1.8516,-1.8516,-1.8516,-1.8482,-1.8448,-1.8448,-1.8371,-1.8236,-1.8236,-1.8144,-1.8008,-1.8008,-1.8008,-1.8008,-1.8008,-1.8008,-1.8008,-1.8008,-1.8008,-1.8008,-1.8008,-1.8008,-1.8008,-1.8008,-1.8008,-1.7959,-1.7617,-1.7734,-1.7881,-1.7155,-1.6892,-1.6787,-1.6447,-1.6006,-1.5615,-1.5557,-1.5537,-1.5518,-1.543,-1.541,-1.541,-1.541,-1.541,-1.541,-1.541,-1.541,-1.541,-1.541,-1.541,-1.5264,-1.4844,-1.4199,-1.373,-1.3643,-1.333,-1.3096,-1.3008,-1.3023,-1.2969,-1.2915,-1.2905,-1.2905,-1.2905,-1.2905,-1.2905,-1.2905,-1.2905,-1.2905,-1.2905,-1.2905,-1.2905,-1.2905,-1.2905,-1.2944,-1.3023,-1.3023,-1.3023,-0.4933,-0.5325,-0.5957,-0.6981,-0.6944,-0.7114,0.0,0.0,-0.8643,-0.9244,-0.9423,-0.9576,-0.9819,-1.0018,-1.0399,-1.1198,-1.1472,-1.1917,-1.2933,-1.3376,-1.3925,-1.4837,-1.5348,-1.5822,-1.6288,-1.6717,-1.7182,-1.7595,-1.8102,-1.8493,-1.8739,-1.8777,-1.8707,-1.8549,-1.8516,-1.8516,-1.8516,-1.8516,-1.8448,-1.8303,-1.8303,-1.8212,-1.8042,-1.8042,-1.8008,-1.8008,-1.8008,-1.8008,-1.8008,-1.8008,-1.8008,-1.8008,-1.8008,-1.8008,-1.8008,-1.8008,-1.8008,-1.8008,-1.8008,-1.8008,-1.8008,-1.7959,-1.7969,-1.7988,-1.7891,-1.7607,-1.7305,-1.7288,-1.6924,-1.6463,-1.6124,-1.6016,-1.5919,-1.5508,-1.541,-1.541,-1.541,-1.541,-1.541,-1.541,-1.541,-1.541,-1.541,-1.541,-1.5264,-1.4844,-1.4735,-1.4502,-1.4085,-1.3997,-1.3821,-1.3477,-1.3437,-1.3281,-1.2935,-1.2905,-1.2905,-1.2905,-1.2905,-1.2905,-1.2905,-1.2905,-1.2905,-1.2905,-1.2905,-1.2905,-1.2905,-1.2905,-1.3076,-1.3437,-1.3437,-1.3437,-0.6417,-0.688,0.0,0.0,-0.8018,-0.837,-0.9175,-0.9185,-0.9119,-0.9526,-0.9725,-0.981,-0.9777,-1.0216,-1.0609,0.0,-1.132,-1.2002,-1.2601,-1.3187,-1.3849,-1.4662,-1.5257,-1.5811,-1.6361,-1.6936,-1.7369,-1.7564,-1.8134,-1.8514,-1.8607,-1.8539,-1.8472,-1.8381,-1.8279,-1.8212,-1.8212,-1.8212,-1.8178,-1.8144,-1.8144,-1.8076,-1.8008,-1.8008,-1.8008,-1.8008,-1.8008,-1.8008,-1.8008,-1.8008,-1.8008,-1.8008,-1.8008,-1.8008,-1.8008,-1.8008,-1.8008,-1.8008,-1.8008,-1.8008,-1.8008,-1.8008,-1.8008,-1.8008,-1.8008,-1.7715,-1.7383,-1.7383,-1.6875,-1.6299,-1.6144,-1.5909,-1.5635,-1.5459,-1.541,-1.541,-1.541,-1.541,-1.541,-1.541,-1.541,-1.541,-1.541,-1.541,-1.5352,-1.5176,-1.4941,-1.4717,-1.4531,-1.427,-1.4036,-1.386,-1.3627,-1.3437,-1.3262,-1.3018,-1.2905,-1.2905,-1.2905,-1.2905,-1.2905,-1.2905,-1.2905,-1.2905,-1.2905,-1.2905,-1.2905,-1.315,-1.334,-1.3516,-1.3734,-1.4014,-0.737,0.0,0.0,-0.8312,-0.8782,-0.9222,-0.9302,-0.9317,-0.9358,-0.957,-0.9751,-0.9836,-0.964,-1.0156,0.0,-1.028,-1.1126,-1.1979,-1.237,-1.3055,-1.3777,-1.4516,-1.49,-1.5355,-1.594,-1.6798,-1.7338,-1.7409,-1.8001,-1.8375,-1.8438,-1.8337,-1.8269,-1.8202,-1.8076,-1.8008,-1.8008,-1.8008,-1.8008,-1.8008,-1.8008,-1.8008,-1.8008,-1.8008,-1.8076,-1.8184,-1.8184,-1.8184,-1.8184,-1.8184,-1.8115,-1.8008,-1.8008,-1.8008,-1.8008,-1.8008,-1.8008,-1.8008,-1.8008,-1.8008,-1.8008,-1.8008,-1.8008,-1.8008,-1.8008,-1.7803,-1.7559,-1.7559,-1.709,-1.6574,-1.6339,-1.6006,-1.5683,-1.5469,-1.541,-1.5381,-1.5362,-1.5332,-1.5332,-1.5332,-1.5332,-1.5362,-1.5381,-1.541,-1.541,-1.541,-1.5156,-1.4961,-1.4961,-1.458,-1.428,-1.428,-1.3936,-1.3682,-1.3682,-1.3398,-1.3232,-1.3232,-1.3125,-1.3081,-1.3081,-1.2964,-1.2964,-1.3047,-1.3081,-1.3105,-1.3232,-1.3525,-1.374,-1.3867,-1.417,-1.4513,0.0,0.0,-0.8275,-0.8597,-0.895,-0.9273,-0.9533,-0.9573,-0.9599,-0.9588,-0.9614,-0.9614,-0.9614,-0.9614,-0.9845,-1.047,-1.0893,-1.1532,-1.2621,-1.3092,-1.3696,-1.475,-1.4448,-1.4345,0.0,-1.6079,-1.6941,-1.7201,-1.7634,-1.8044,-1.8283,-1.8303,-1.8202,-1.8008,-1.8008,-1.8008,-1.8008,-1.8008,-1.8008,-1.8008,-1.8008,-1.8008,-1.8008,-1.8008,-1.8198,-1.8588,-1.8588,-1.8588,-1.8588,-1.8588,-1.8344,-1.8008,-1.8008,-1.8008,-1.8008,-1.8008,-1.8008,-1.8008,-1.8008,-1.8008,-1.8008,-1.8008,-1.8008,-1.8008,-1.8008,-1.7998,-1.7988,-1.7988,-1.7969,-1.7764,-1.6892,-1.6668,-1.6443,-1.5586,-1.541,-1.5362,-1.5235,-1.5215,-1.5215,-1.5215,-1.5215,-1.5264,-1.5391,-1.541,-1.541,-1.541,-1.54,-1.5391,-1.5391,-1.5029,-1.4766,-1.4766,-1.4348,-1.4085,-1.4085,-1.4075,-1.4065,-1.4065,-1.3685,-1.3486,-1.3486,-1.3096,-1.3076,-1.3477,-1.3486,-1.3665,-1.4065,-1.4085,-1.4336,-1.4774,-1.4756,-1.499,0.0,0.0,-0.8899,-0.9009,-0.9241,-0.949,-0.9592,-0.9588,-0.9588,-0.9588,-0.9588,-0.9588,-0.9588,-0.9588,-0.9826,-1.0485,-1.0701,-1.1076,-1.1889,-1.2425,-1.2948,-1.3546,-1.372,0.0,0.0,0.0,0.0,-1.6386,-1.7119,-1.7724,-1.808,-1.811,-1.8076,-1.8008,-1.8008,-1.8008,-1.8008,-1.8008,-1.8008,-1.8008,-1.8008,-1.812,-1.8383,-1.8135,-1.8398,-1.9043,-1.8432,-1.8344,-1.8578,-1.8295,-1.8135,-1.8008,-1.8008,-1.8008,-1.8008,-1.8008,-1.8008,-1.8008,-1.8008,-1.8008,-1.8008,-1.8008,-1.8008,-1.8008,-1.8008,-1.8008,-1.8008,-1.8008,-1.7702,-1.7344,-1.7021,-1.6732,-1.6343,-1.5683,-1.5609,-1.5572,-1.5145,-1.5068,-1.5068,-1.5068,-1.5068,-1.5088,-1.5147,-1.5137,-1.5167,-1.5264,-1.5332,-1.541,-1.541,-1.5283,-1.5205,-1.5205,-1.4824,-1.4561,-1.4561,-1.427,-1.4104,-1.4104,-1.3977,-1.3899,-1.3899,-1.3763,-1.3753,-1.389,-1.3899,-1.3968,-1.4104,-1.4424,-1.4648,-1.4823,-1.5068,-1.5273,0.0,-0.9038,-0.9222,-0.9307,-0.9475,-0.9588,-0.9588,-0.9588,-0.9585,-0.9475,-0.946,-0.9424,-0.9307,-0.9285,-0.9533,-1.0294,-1.0411,-1.0719,-1.1604,-1.2119,-1.2589,-1.3117,-1.3286,0.0,0.0,0.0,0.0,-1.5876,-1.658,-1.7283,-1.7954,-1.8008,-1.8008,-1.8008,-1.8008,-1.8008,-1.8008,-1.8008,-1.8086,-1.8208,-1.8389,-1.8603,-1.8857,-1.8393,-1.8701,-1.9463,-1.8603,-1.8477,-1.8802,-1.8373,-1.8144,-1.8008,-1.8008,-1.8008,-1.8008,-1.8008,-1.8008,-1.8008,-1.8008,-1.8008,-1.8008,-1.8008,-1.794,-1.7896,-1.7896,-1.7872,-1.7813,-1.7813,-1.7543,-1.7183,-1.7039,-1.6758,-1.6421,-1.5939,-1.5875,-1.583,-1.5411,-1.5211,-1.5108,-1.5108,-1.4976,-1.4911,-1.5,-1.5,-1.5039,-1.5127,-1.5196,-1.5303,-1.5381,-1.541,-1.541,-1.541,-1.5176,-1.501,-1.501,-1.4756,-1.4562,-1.4562,-1.4426,-1.4338,-1.4338,-1.4192,-1.4182,-1.4338,-1.4338,-1.4416,-1.4562,-1.4873,-1.501,-1.501,-1.5283,-1.541,-0.9024,-0.9214,-0.9288,-0.9548,-0.9588,-0.9588,-0.9588,-0.9599,-0.9504,-0.9236,-0.9163,-0.9053,0.0,0.0,-0.8985,-0.9907,-1.0089,-1.0565,-1.1799,-1.224,-1.2672,0.0,0.0,0.0,0.0,0.0,0.0,-1.5601,0.0,-1.6719,-1.7954,-1.8008,-1.8008,-1.8008,-1.8008,-1.8018,-1.8047,-1.8057,-1.8271,-1.8637,-1.9092,-1.9297,-1.9307,-1.8867,-1.9104,-1.9902,-1.8987,-1.8887,-1.9248,-1.8754,-1.8334,-1.8008,-1.8008,-1.8008,-1.8008,-1.8008,-1.8008,-1.8008,-1.8008,-1.8008,-1.8008,-1.8008,-1.7862,-1.7706,-1.7706,-1.7623,-1.7505,-1.7505,-1.7505,-1.7375,-1.6944,-1.684,-1.6736,-1.6298,-1.6204,-1.6153,-1.5923,-1.5585,-1.5315,-1.5315,-1.5002,-1.4773,-1.495,-1.497,-1.497,-1.497,-1.5,-1.5088,-1.5362,-1.5391,-1.5391,-1.5391,-1.5391,-1.5381,-1.5381,-1.5381,-1.5381,-1.541,-1.5039,-1.4814,-1.4814,-1.4387,-1.4367,-1.4805,-1.4814,-1.501,-1.541,-1.541,-1.541,-1.541,-1.541,-1.542,-0.909,-0.9336,-0.9519,-0.9592,-0.9588,-0.9588,-0.9588,-0.9446,-0.9222,-0.8906,-0.8619,-0.8348,-0.8026,0.0,0.0,-0.9354,-1.0029,0.0,-1.1599,-1.2151,0.0,0.0,0.0,-1.3097,-1.3484,-1.3271,0.0,0.0,-1.5558,-1.6719,-1.7954,-1.8008,-1.8008,-1.8008,-1.8008,-1.812,-1.8432,-1.8799,-1.9014,-1.9121,-1.9238,-1.9453,-1.9736,-1.9316,-1.959,-2.0332,-1.9114,-1.8887,-1.9228,-1.8477,-1.8105,-1.8008,-1.8008,-1.8008,-1.8008,-1.8008,-1.8008,-1.8008,-1.8008,-1.8008,-1.8008,-1.8008,-1.7862,-1.7706,-1.7706,-1.7623,-1.7505,-1.7505,-1.7392,-1.7251,-1.7148,-1.712,-1.6949,-1.6424,-1.6388,-1.6361,-1.585,-1.5679,-1.5606,-1.5606,-1.5274,-1.4906,-1.468,-1.4704,-1.4775,-1.4775,-1.4902,-1.5029,-1.5088,-1.5108,-1.5108,-1.5108,-1.5108,-1.5137,-1.5235,-1.5264,-1.5284,-1.5381,-1.5312,-1.5254,-1.5254,-1.5118,-1.5108,-1.5254,-1.5254,-1.5303,-1.541,-1.541,-1.541,-1.541,-1.541,-1.5586,-0.9285,-0.949,-0.9588,-0.9588,-0.9588,-0.9585,-0.9453,-0.9207,-0.8848,-0.8363,-0.8004,0.0,-0.7326,0.0,0.0,0.0,0.0,0.0,-1.1481,-1.2116,-1.2705,0.0,-1.3227,0.0,-1.3473,-1.3316,-1.3527,0.0,-1.5031,-1.6101,-1.7457,-1.7192,-1.7206,-1.7707,-1.7761,-1.8136,-1.888,-1.9346,-1.9561,-1.957,-1.9756,-2.0008,-2.0185,-1.9756,-1.9932,-2.0537,0.0,-1.9062,-1.9238,-1.8564,-1.8174,-1.8008,-1.8008,-1.8008,-1.8008,-1.8008,-1.8008,-1.8008,-1.8008,-1.794,-1.7862,-1.7862,-1.7759,-1.752,-1.7088,-1.6846,-1.6682,-1.6324,-1.614,-1.6062,-1.6062,-1.6062,-1.5974,-1.5636,-1.5902,-1.6156,-1.5822,-1.5852,-1.5863,-1.5505,-1.5249,-1.4974,-1.4579,-1.4556,-1.4606,-1.4606,-1.4704,-1.4773,-1.4773,-1.4911,-1.5,-1.5,-1.5,-1.5059,-1.5186,-1.5215,-1.5235,-1.5313,-1.5362,-1.5362,-1.5313,-1.5362,-1.541,-1.541,-1.541,-1.541,-1.541,-1.541,-1.541,-1.541,-1.541,-1.5537,-0.9548,-0.9588,-0.9588,-0.9588,-0.9588,-0.9541,-0.9266,-0.8914,-0.8436,-0.7764,0.0,-0.6983,-0.6637,0.0,-0.7851,-0.8458,0.0,-1.0375,-1.1386,-1.205,-1.2558,-1.2965,-1.3294,-1.3492,-1.3492,-1.3492,-1.3775,-1.4394,-1.4466,-1.5136,-1.6655,-1.6105,-1.6244,-1.728,-1.7542,-1.8153,-1.9182,-1.971,-2.0,-2.0,-2.0419,-2.0605,-2.0595,-2.0176,-2.0205,-2.0556,0.0,0.0,-1.9248,-1.8783,-1.8354,-1.8008,-1.8008,-1.8008,-1.7974,-1.7906,-1.7872,-1.7837,-1.7725,-1.7545,-1.7423,-1.7638,-1.751,-1.7151,-1.6254,-1.5833,-1.5507,-1.4788,-1.4601,-1.4601,-1.4601,-1.4601,-1.4601,-1.4601,-1.5144,-1.5657,-1.5657,-1.586,-1.5857,-1.511,-1.5038,-1.4956,-1.4511,-1.4499,-1.457,-1.4515,-1.4515,-1.4515,-1.4515,-1.4743,-1.4911,-1.4911,-1.4911,-1.498,-1.5117,-1.5127,-1.5156,-1.5186,-1.5284,-1.5274,-1.5186,-1.5313,-1.5362,-1.5362,-1.5381,-1.541,-1.541,-1.541,-1.541,-1.541,-1.5469,-1.5527,-0.9573,-0.9588,-0.9588,-0.9588,-0.9588,-0.9541,-0.9266,-0.8737,0.0,0.0,0.0,-0.6353,-0.6023,-0.6695,0.0,-0.7821,0.0,0.0,0.0,0.0,-1.2302,0.0,0.0,0.0,0.0,0.0,0.0,0.0,0.0,0.0,-1.5816,-1.6045,-1.6314,-1.6802,-1.785,-1.8513,-1.8701,-1.988,-2.0488,-2.0488,-2.0566,-2.0605,-2.0605,-2.0527,-2.0537,-2.0576,0.0,0.0,-1.9248,-1.8783,-1.8354,-1.8008,-1.8008,-1.8008,-1.794,-1.7329,-1.7079,-1.6975,-1.6202,-1.5921,-1.6097,-1.7285,-1.7054,-1.6219,-1.6044,-1.5428,-1.4788,-1.4637,-1.4601,-1.4601,-1.4601,-1.4601,-1.4601,-1.4601,-1.4716,-1.4816,-1.4816,-1.4846,-1.4755,-1.4263,-1.474,-1.4927,-1.4147,-1.4551,-1.4882,-1.4561,-1.4515,-1.4515,-1.4515,-1.4545,-1.4604,-1.4604,-1.4604,-1.4654,-1.4784,-1.4775,-1.4872,-1.5029,-1.5059,-1.5059,-1.5039,-1.5147,-1.5235,-1.5235,-1.5332,-1.541,-1.541,-1.541,-1.541,-1.542,-1.5811,-1.6152,-0.9588,-0.9738,-0.9826,-0.9658,-0.9738,-0.9658,-0.8853,0.0,0.0,0.0,0.0,-0.5986,-0.5825,0.0,0.0,0.0,0.0,0.0,0.0,0.0,0.0,0.0,0.0,0.0,0.0,0.0,0.0,0.0,0.0,0.0,0.0,-1.5445,-1.5815,-1.6168,-1.6926,-1.7644,-1.8285,-1.9388,-1.9932,-1.9932,-2.0372,-2.0605,-2.0605,-2.0605,-2.0605,-2.0576,0.0,0.0,-1.9212,-1.8381,-1.7961,-1.7818,-1.7407,-1.7451,-1.7632,-1.6872,-1.6585,-1.6481,-1.5631,-1.5286,-1.5286,-1.6018,-1.5886,-1.533,-1.4859,-1.4394,-1.3926,-1.3528,-1.3419,-1.3419,-1.3419,-1.3419,-1.3419,-1.3419,-1.3709,-1.4135,-1.453,-1.4601,-1.4462,-1.4087,-1.4308,-1.4319,-1.3549,-1.4004,-1.4351,-1.4033,-1.4297,-1.4515,-1.4515,-1.4515,-1.4515,-1.4515,-1.4515,-1.4565,-1.4686,-1.4715,-1.4745,-1.4843,-1.4941,-1.4941,-1.4843,-1.5,-1.5098,-1.5098,-1.5167,-1.5225,-1.5313,-1.5313,-1.5332,-1.542,-1.5889,-1.6212,-0.9588,-0.9797,-0.9936,-0.968,-0.9811,-0.968,-0.8473,-0.7953,0.0,0.0,-0.6039,-0.5796,-0.5796,0.0,0.0,0.0,0.0,0.0,0.0,0.0,0.0,0.0,0.0,0.0,0.0,0.0,0.0,0.0,0.0,0.0,0.0,-1.4733,-1.5037,-1.5412,-1.5952,-1.666,-1.7588,-1.8563,-1.9015,-1.9015,-1.9726,-2.0118,-2.0323,-2.0284,-2.0362,-2.0508,0.0,0.0,0.0,-1.7832,-1.7318,-1.7182,-1.6559,-1.6603,-1.6925,-1.6097,-1.5807,-1.5702,-1.4914,-1.453,-1.4402,-1.4358,-1.4474,-1.4474,-1.3709,-1.339,-1.3098,-1.2482,-1.2305,-1.2305,-1.2305,-1.2305,-1.2305,-1.2305,-1.2776,-1.3382,-1.3991,-1.4099,-1.4022,-1.3691,-1.3785,-1.3696,-1.3082,-1.3461,-1.3735,-1.3437,-1.3783,-1.413,-1.4258,-1.4297,-1.4357,-1.4485,-1.4515,-1.4536,-1.4666,-1.4656,-1.4656,-1.4656,-1.4823,-1.4823,-1.4656,-1.4843,-1.4941,-1.4941,-1.497,-1.5059,-1.5156,-1.5156,-1.5254,-1.5449,-1.5905,-1.6158,-0.9588,-0.9636,-0.965,-0.9595,-0.961,-0.9402,-0.8421,0.0,0.0,-0.6485,-0.6039,-0.5796,-0.5796,-0.6089,0.0,0.0,0.0,0.0,0.0,0.0,0.0,0.0,0.0,0.0,0.0,0.0,0.0,0.0,0.0,0.0,0.0,-1.4073,-1.4281,-1.4606,-1.5646,-1.6261,-1.6373,-1.7538,-1.8118,-1.8118,-1.8198,-1.8647,-1.942,-1.9244,-1.9569,-2.0284,0.0,0.0,0.0,-1.727,-1.6518,-1.5675,-1.5419,-1.5376,-1.5313,-1.4502,-1.4222,-1.4078,-1.3171,-1.2813,-1.2783,-1.2592,-1.3025,-1.36,-1.3535,-1.2989,-1.2372,-1.2335,-1.2305,-1.2305,-1.2305,-1.2305,-1.2305,-1.2305,-1.2378,-1.2409,-1.2519,-1.2519,-1.2512,-1.2448,-1.3055,-1.3416,-1.2993,-1.3304,-1.3508,-1.3108,-1.2843,-1.2917,-1.3502,-1.3601,-1.3821,-1.4417,-1.4515,-1.4515,-1.4506,-1.4506,-1.4506,-1.4506,-1.4545,-1.4545,-1.4506,-1.4636,-1.4745,-1.4745,-1.4911,-1.5009,-1.5029,-1.5029,-1.5219,-1.559,-1.6008,-1.6376,-0.9563,-0.9753,-0.9863,-0.9665,-0.976,-0.9555,-0.8209,0.0,-0.7382,-0.6236,-0.5884,-0.5796,-0.5796,-0.5906,-0.6199,0.0,-0.7117,-0.7756,0.0,0.0,0.0,0.0,0.0,0.0,0.0,0.0,0.0,0.0,0.0,0.0,0.0,0.0,-1.404,-1.4172,-1.4978,-1.54,-1.54,-1.6605,-1.7229,-1.7229,-1.7626,-1.7989,-1.831,-1.7899,-1.7952,-1.8191,0.0,0.0,0.0,-1.5571,-1.516,-1.5073,-1.4573,-1.4565,-1.4744,-1.3962,-1.3716,-1.3571,-1.2703,-1.2415,-1.2415,-1.2342,-1.2519,-1.2776,-1.2776,-1.2556,-1.2305,-1.2305,-1.2305,-1.2305,-1.2305,-1.2305,-1.2305,-1.2305,-1.2305,-1.2305,-1.2305,-1.2305,-1.2305,-1.2305,-1.2556,-1.2679,-1.2338,-1.278,-1.3063,-1.2691,-1.2739,-1.2892,-1.3151,-1.3018,-1.3009,-1.326,-1.401,-1.4515,-1.4515,-1.4515,-1.4515,-1.4515,-1.4515,-1.4515,-1.4515,-1.4565,-1.4586,-1.4586,-1.4886,-1.5107,-1.5168,-1.5411,-1.5679,-1.5984,-1.6358,-1.6642,-0.9402,-0.9716,-0.9899,-0.9672,-0.9724,-0.9453,0.0,0.0,-0.7209,-0.6045,-0.5796,-0.5796,-0.5796,-0.5796,-0.5992,-0.66,-0.6782,-0.7319,-0.8648,0.0,0.0,0.0,0.0,0.0,0.0,0.0,0.0,0.0,0.0,0.0,0.0,0.0,-1.3938,-1.388,-1.437,-1.4666,-1.4761,-1.5711,-1.6195,-1.6214,-1.6698,-1.696,-1.7048,-1.6627,-1.6527,0.0,0.0,0.0,0.0,-1.4281,-1.4006,-1.415,-1.3571,-1.3608,-1.3846,-1.3353,-1.3135,-1.3062,-1.2482,-1.2305,-1.2305,-1.2305,-1.2305,-1.2305,-1.2305,-1.2305,-1.2305,-1.2305,-1.2305,-1.2305,-1.2305,-1.2305,-1.2305,-1.2305,-1.2305,-1.2305,-1.2305,-1.2305,-1.2305,-1.2305,-1.2305,-1.2238,-1.2067,-1.2352,-1.2536,-1.2275,-1.2398,-1.2611,-1.2806,-1.263,-1.2531,-1.2648,-1.349,-1.4104,-1.4207,-1.4387,-1.4515,-1.4515,-1.4515,-1.4515,-1.4515,-1.4515,-1.457,-1.468,-1.4964,-1.5219,-1.5433,-1.572,-1.5956,-1.6225,-1.6515,-1.6711,-0.9112,-0.9394,-0.9595,-0.9614,-0.9402,-0.895,0.0,-0.7443,-0.6939,-0.6001,-0.5796,-0.5796,-0.5796,-0.5796,-0.5992,-0.66,-0.6971,-0.7654,-0.9009,0.0,0.0,0.0,0.0,0.0,0.0,0.0,0.0,0.0,0.0,0.0,0.0,0.0,-1.3836,-1.3514,-1.3821,-1.4188,-1.4511,-1.4787,-1.4986,-1.5131,-1.5131,-1.5281,-1.5593,-1.54,0.0,0.0,0.0,0.0,0.0,-1.3748,-1.3171,-1.2599,-1.2415,-1.2335,-1.2335,-1.2335,-1.2298,-1.2305,-1.2305,-1.2305,-1.2305,-1.2305,-1.2305,-1.2305,-1.2305,-1.2305,-1.2305,-1.2305,-1.2305,-1.2305,-1.2305,-1.2305,-1.2305,-1.2305,-1.2305,-1.2305,-1.2305,-1.2305,-1.2305,-1.2305,-1.2305,-1.2305,-1.2298,-1.2094,-1.1906,-1.1899,-1.161,-1.1655,-1.2335,-1.2403,-1.2539,-1.294,-1.2996,-1.3145,-1.3476,-1.413,-1.4515,-1.4515,-1.4515,-1.4515,-1.4515,-1.4515,-1.4698,-1.5084,-1.5102,-1.5294,-1.5689,-1.5689,-1.5909,-1.6312,-1.6312,-1.6532,-0.8151,-0.8407,-0.8597,-0.8347,-0.8414,-0.8253,-0.7253,-0.7102,-0.6932,-0.6001,-0.5796,-0.5796,-0.5796,-0.5796,-0.6065,-0.6917,-0.7136,0.0,0.0,0.0,0.0,0.0,0.0,0.0,0.0,0.0,0.0,0.0,0.0,0.0,0.0,0.0,0.0,-1.3499,-1.3912,-1.406,-1.3937,-1.4305,-1.4497,-1.4556,-1.4426,-1.4411,-1.4493,-1.3877,0.0,0.0,0.0,0.0,0.0,-1.2744,-1.2556,-1.2378,-1.2335,-1.2305,-1.2305,-1.2305,-1.2305,-1.2305,-1.2305,-1.2305,-1.2305,-1.2305,-1.2305,-1.2305,-1.2305,-1.2305,-1.2305,-1.2305,-1.2305,-1.2305,-1.2305,-1.2305,-1.2305,-1.2305,-1.2305,-1.2305,-1.2305,-1.2305,-1.2305,-1.2305,-1.2305,-1.2305,-1.2305,-1.2225,-1.2164,-1.2164,-1.1917,-1.1836,-1.2039,-1.1861,-1.1715,-1.1633,-1.2053,-1.2465,-1.2789,-1.3009,-1.313,-1.313,-1.3341,-1.3701,-1.4206,-1.446,-1.4852,-1.5496,-1.578,-1.5991,-1.612,-1.6395,-1.6587,-1.6716,-1.6716,-1.6789,0.0,-0.7654,-0.7968,-0.7749,-0.7756,-0.7618,-0.6869,-0.6786,-0.6658,-0.5942,-0.5796,-0.5796,-0.5796,-0.5796,-0.6074,-0.6888,-0.711,0.0,0.0,0.0,0.0,0.0,0.0,0.0,0.0,0.0,0.0,0.0,0.0,0.0,0.0,0.0,0.0,-1.3273,-1.3617,-1.3751,-1.3596,-1.3825,-1.3952,-1.3983,-1.3863,-1.3721,-1.3518,0.0,0.0,0.0,0.0,0.0,0.0,-1.2305,-1.2305,-1.2305,-1.2305,-1.2305,-1.2305,-1.2305,-1.2305,-1.2305,-1.2305,-1.2305,-1.2305,-1.2305,-1.2305,-1.2305,-1.2305,-1.2305,-1.2305,-1.2305,-1.2305,-1.2305,-1.2305,-1.2305,-1.2305,-1.2305,-1.2305,-1.2305,-1.2305,-1.2305,-1.2305,-1.2305,-1.2305,-1.2305,-1.2305,-1.2305,-1.2305,-1.2305,-1.2144,-1.2067,-1.2067,-1.187,-1.1643,-1.1356,-1.1695,-1.1997,-1.2079,-1.2468,-1.2735,-1.283,-1.3043,-1.3364,-1.3816,-1.4031,-1.442,-1.5045,-1.5288,-1.5513,-1.5661,-1.6218,-1.6621,-1.6908,-1.6908,-1.6908,0.0,-0.7027,-0.7516,-0.7494,-0.7297,-0.7019,-0.668,-0.6446,0.0,-0.5862,-0.5796,-0.581,-0.5854,-0.5847,-0.6051,-0.6724,0.0,0.0,0.0,0.0,0.0,0.0,0.0,0.0,0.0,0.0,0.0,0.0,0.0,0.0,0.0,0.0,0.0,0.0,-1.3046,-1.3225,-1.3327,-1.3348,-1.3387,-1.3468,-1.3468,-1.3201,-1.2784,0.0,0.0,0.0,0.0,0.0,0.0,-1.2305,-1.2305,-1.2305,-1.2305,-1.2305,-1.2305,-1.2305,-1.2305,-1.2305,-1.2305,-1.2305,-1.2305,-1.2305,-1.2305,-1.2305,-1.2305,-1.2305,-1.2305,-1.2305,-1.2305,-1.2305,-1.2305,-1.2305,-1.2305,-1.2305,-1.2305,-1.2305,-1.2305,-1.2305,-1.2305,-1.2305,-1.2305,-1.2305,-1.2305,-1.2305,-1.2305,-1.2305,-1.2305,-1.2305,-1.2305,-1.2305,-1.2191,-1.194,-1.1906,-1.1757,-1.1449,-1.2332,-1.2984,-1.323,-1.3276,-1.3325,-1.3384,-1.3374,-1.3614,-1.4021,-1.4029,-1.4221,-1.4601,-1.5365,-1.6079,-1.6839,-1.6839,-1.6839,-0.4803,0.0,-0.5802,-0.5538,-0.5809,-0.6036,0.0,-0.5979,-0.6208,-0.5862,0.0,-0.595,-0.6407,-0.6314,-0.6625,0.0,0.0,0.0,0.0,0.0,0.0,0.0,0.0,0.0,0.0,0.0,0.0,0.0,0.0,0.0,0.0,0.0,0.0,0.0,-1.2709,-1.2744,-1.2783,-1.2897,-1.2939,-1.2961,-1.2961,-1.2927,-1.2777,0.0,0.0,0.0,0.0,0.0,-1.2305,-1.2305,-1.2305,-1.2305,-1.2305,-1.2305,-1.2305,-1.2305,-1.2305,-1.2305,-1.2305,-1.2305,-1.2305,-1.2305,-1.2305,-1.2305,-1.2305,-1.2305,-1.2305,-1.2305,-1.2305,-1.2305,-1.2305,-1.2305,-1.2305,-1.2305,-1.2305,-1.2305,-1.2305,-1.2305,-1.2305,-1.2305,-1.2305,-1.2305,-1.2305,-1.2305,-1.2305,-1.2305,-1.2305,-1.2305,-1.2305,-1.2305,-1.2191,-1.194,-1.1906,-1.1873,-1.1806,-1.1792,-1.1817,-1.1853,-1.2117,-1.2522,-1.3063,-1.3344,-1.38,-1.4447,-1.4447,-1.4522,-1.4601,-1.478,-1.5286,-1.6044,-1.6044,-1.6368,-0.4116,-0.4915,-0.5715,-0.5539,-0.5853,-0.6158,-0.5983,0.0,0.0,0.0,0.0,-0.595,-0.6431,0.0,0.0,0.0,0.0,0.0,0.0,0.0,0.0,0.0,0.0,0.0,0.0,0.0,0.0,0.0,0.0,0.0,0.0,0.0,0.0,0.0,0.0,-1.2452,-1.2452,-1.2533,-1.2583,-1.2583,-1.2583,-1.2583,-1.2569,0.0,0.0,0.0,0.0,0.0,-1.2305,-1.2305,-1.2305,-1.2305,-1.2305,-1.2305,-1.2305,-1.2305,-1.2305,-1.2305,-1.2305,-1.2305,-1.2305,-1.2305,-1.2305,-1.2305,-1.2305,-1.2305,-1.2305,-1.2305,-1.2305,-1.2305,-1.2305,-1.2305,-1.2305,-1.2305,-1.2305,-1.2305,-1.2305,-1.2305,-1.2305,-1.2305,-1.2305,-1.2305,-1.2305,-1.2305,-1.2305,-1.2305,-1.2305,-1.2305,-1.2305,-1.2305,-1.2238,-1.2084,-1.2064,-1.2064,-1.2064,-1.1917,-1.1824,-1.1824,-1.1977,-1.2245,-1.2663,-1.286,-1.3135,-1.3528,-1.3528,-1.3745,-1.4106,-1.4106,-1.4502,-1.5259,-1.5613,-1.5833,-0.4068,-0.5208,-0.6309,-0.6128,-0.6395,-0.6695,-0.6644,0.0,0.0,0.0,0.0,0.0,0.0,0.0,0.0,0.0,0.0,0.0,0.0,0.0,0.0,0.0,0.0,0.0,0.0,0.0,0.0,0.0,0.0,0.0,0.0,0.0,0.0,0.0,-1.2305,-1.2305,-1.2305,-1.2305,-1.2305,-1.2305,-1.2305,-1.2305,-1.2305,-1.2305,0.0,0.0,0.0,0.0,-1.2305,-1.2305,-1.2305,-1.2305,-1.2305,-1.2305,-1.2305,-1.2305,-1.2305,-1.2305,-1.2305,-1.2305,-1.2305,-1.2305,-1.2305,-1.2305,-1.2305,-1.2305,-1.2305,-1.2305,-1.2305,-1.2305,-1.2305,-1.2305,-1.2305,-1.2305,-1.2305,-1.2305,-1.2305,-1.2305,-1.2305,-1.2305,-1.2305,-1.2305,-1.2305,-1.2305,-1.2305,-1.2305,-1.2305,-1.2305,-1.2305,-1.2305,-1.2305,-1.2305,-1.2305,-1.2305,-1.2305,-1.2305,-1.2305,-1.2305,-1.2305,-1.2305,-1.2305,-1.2305,-1.2305,-1.2305,-1.2305,-1.2629,-1.3317,-1.3317,-1.3709,-1.4458,-1.5144,-1.5144,-0.4877,-0.5837,-0.6385,-0.5304,-0.5874,-0.6637,-0.6419,0.0,0.0,0.0,0.0,0.0,0.0,0.0,0.0,0.0,0.0,0.0,0.0,0.0,0.0,0.0,0.0,0.0,0.0,0.0,0.0,0.0,0.0,0.0,0.0,0.0,0.0,0.0,0.0,-1.2305,-1.2305,-1.2305,-1.2305,-1.2305,-1.2305,-1.2305,-1.2305,-1.2305,-1.2305,0.0,0.0,-1.2305,-1.2305,-1.2305,-1.2305,-1.2305,-1.2305,-1.2305,-1.2305,-1.2305,-1.2305,-1.2305,-1.2305,-1.2305,-1.2305,-1.2305,-1.2305,-1.2305,-1.2305,-1.2305,-1.2305,-1.2305,-1.2305,-1.2305,-1.2305,-1.2305,-1.2305,-1.2305,-1.2305,-1.2305,-1.2305,-1.2305,-1.2305,-1.2305,-1.2305,-1.2305,-1.2305,-1.2305,-1.2305,-1.2305,-1.2305,-1.2305,-1.2305,-1.2305,-1.2305,-1.2305,-1.2305,-1.2305,-1.2305,-1.2305,-1.2305,-1.2305,-1.2305,-1.2305,-1.2305,-1.2305,-1.2305,-1.2305,-1.2305,-1.2372,-1.2482,-1.2482,-1.2879,-1.3673,-1.3781,-1.4106,-0.4425,-0.5363,-0.6124,-0.5715,-0.6702,-0.7756,-0.763,0.0,0.0,0.0,0.0,0.0,0.0,0.0,0.0,0.0,0.0,0.0,0.0,0.0,0.0,0.0,0.0,0.0,0.0,0.0,0.0,0.0,0.0,0.0,0.0,0.0,0.0,0.0,0.0,0.0,-1.2305,-1.2305,-1.2305,-1.2305,-1.2305,-1.2305,-1.2305,-1.2305,-1.2305,0.0,0.0,-1.2305,-1.2305,-1.2305,-1.2305,-1.2305,-1.2305,-1.2305,-1.2305,-1.2305,-1.2305,-1.2305,-1.2305,-1.2305,-1.2305,-1.2305,-1.2305,-1.2305,-1.2305,-1.2305,-1.2305,-1.2305,-1.2305,-1.2305,-1.2305,-1.2305,-1.2305,-1.2305,-1.2305,-1.2305,-1.2305,-1.2305,-1.2305,-1.2305,-1.2305,-1.2305,-1.2305,-1.2305,-1.2305,-1.2305,-1.2305,-1.2305,-1.2305,-1.2305,-1.2305,-1.2305,-1.2305,-1.2305,-1.2305,-1.2305,-1.2305,-1.2305,-1.2305,-1.2305,-1.2305,-1.2305,-1.2305,-1.2305,-1.2305,-1.2305,-1.2305,-1.2305,-1.2482,-1.2849,-1.3317,-1.3455,-0.4171,-0.4995,-0.5913,-0.639,0.0,-0.8421,-0.876,0.0,0.0,0.0,0.0,0.0,0.0,0.0,0.0,0.0,0.0,0.0,0.0,0.0,0.0,0.0,0.0,0.0,0.0,0.0,0.0,0.0,0.0,0.0,0.0,0.0,0.0,0.0,0.0,0.0,-1.2305,-1.2305,-1.2305,-1.2305,-1.2305,-1.2305,-1.2305,-1.2305,-1.2305,-1.2305,-1.2305,-1.2305,-1.2305,-1.2305,-1.2305,-1.2305,-1.2305,-1.2305,-1.2305,-1.2305,-1.2305,-1.2305,-1.2305,-1.2305,-1.2305,-1.2305,-1.2305,-1.2305,-1.2305,-1.2305,-1.2305,-1.2305,-1.2305,-1.2305,-1.2305,-1.2305,-1.2305,-1.2305,-1.2305,-1.2305,-1.2305,-1.2305,-1.2305,-1.2305,-1.2305,-1.2305,-1.2305,-1.2305,-1.2305,-1.2305,-1.2305,-1.2305,-1.2305,-1.2305,-1.2305,-1.2305,-1.2305,-1.2305,-1.2305,-1.2305,-1.2305,-1.2305,-1.2305,-1.2305,-1.2305,-1.2305,-1.2305,-1.2305,-1.2305,-1.2305,-1.2305,-1.2305,-1.2305,-1.2298,-1.2915,-1.2879,-0.4959,-0.5495,-0.6016,-0.691,-0.7224,0.0,-0.8884,-0.8493,0.0,-0.9073,0.0,0.0,0.0,0.0,0.0,0.0,0.0,0.0,0.0,0.0,0.0,0.0,0.0,0.0,0.0,0.0,0.0,0.0,0.0,0.0,0.0,0.0,0.0,0.0,0.0,0.0,-1.2305,-1.2305,-1.2305,-1.2305,-1.2305,-1.2305,-1.2305,-1.2305,-1.2305,-1.2305,-1.2305,-1.2305,-1.2305,-1.2305,-1.2305,-1.2305,-1.2305,-1.2305,-1.2305,-1.2305,-1.2305,-1.2305,-1.2305,-1.2305,-1.2305,-1.2305,-1.2305,-1.2305,-1.2305,-1.2305,-1.2305,-1.2305,-1.2305,-1.2305,-1.2305,-1.2305,-1.2305,-1.2305,-1.2305,-1.2305,-1.2305,-1.2305,-1.2305,-1.2305,-1.2305,-1.2305,-1.2305,-1.2305,-1.2305,-1.2305,-1.2305,-1.2305,-1.2305,-1.2305,-1.2305,-1.2305,-1.2305,-1.2305,-1.2305,-1.2305,-1.2305,-1.2305,-1.2305,-1.2305,-1.2305,-1.2305,-1.2305,-1.2305,-1.2305,-1.2305,-1.2305,-1.2305,-1.2305,-1.2305,-1.2378,-1.2378,-0.433,-0.5098,-0.5979,-0.6695,-0.7209,0.0,0.0,-0.9077,-0.9283,0.0,0.0,0.0,0.0,0.0,0.0,0.0,0.0,0.0,0.0,0.0,0.0,0.0,0.0,0.0,0.0,0.0,0.0,0.0,0.0,0.0,0.0,0.0,0.0,0.0,0.0,0.0,0.0,-1.2305,-1.2305,-1.2305,-1.2305,-1.2305,-1.2305,-1.2305,-1.2305,-1.2305,-1.2305,-1.2305,-1.2305,-1.2305,-1.2305,-1.2305,-1.2305,-1.2305,-1.2305,-1.2305,-1.2305,-1.2305,-1.2305,-1.2305,-1.2305,-1.2305,-1.2305,-1.2305,-1.2305,-1.2305,-1.2305,-1.2305,-1.2305,-1.2305,-1.2305,-1.2305,-1.2305,-1.2305,-1.2305,-1.2305,-1.2305,-1.2305,-1.2305,-1.2305,-1.2305,-1.2305,-1.2305,-1.2305,-1.2305,-1.2305,-1.2305,-1.2305,-1.2305,-1.2305,-1.2305,-1.2305,-1.2305,-1.2305,-1.2305,-1.2305,-1.2305,-1.2305,-1.2305,-1.2305,-1.2305,-1.2305,-1.2305,-1.2305,-1.2305,-1.2305,-1.2305,-1.2305,-1.2305,-1.2305,-1.2305,-1.2305,-0.4156,-0.4999,-0.6,-0.6475,0.0,0.0,-0.8718,-0.9278,-0.9748,0.0,0.0,0.0,0.0,0.0,0.0,0.0,0.0,0.0,0.0,0.0,0.0,0.0,0.0,0.0,0.0,0.0,0.0,0.0,0.0,0.0,0.0,0.0,0.0,0.0,0.0,0.0,0.0,-1.2258,-1.2305,-1.2305,-1.2305,-1.2305,-1.2305,-1.2305,-1.2305,-1.2305,-1.2305,-1.2305,-1.2305,-1.2305,-1.2305,-1.2305,-1.2305,-1.2305,-1.2305,-1.2305,-1.2305,-1.2305,-1.2305,-1.2305,-1.2305,-1.2305,-1.2305,-1.2305,-1.2305,-1.2305,-1.2305,-1.2305,-1.2305,-1.2305,-1.2305,-1.2305,-1.2305,-1.2305,-1.2305,-1.2305,-1.2305,-1.2305,-1.2305,-1.2305,-1.2305,-1.2305,-1.2305,-1.2305,-1.2305,-1.2305,-1.2305,-1.2305,-1.2305,-1.2305,-1.2305,-1.2305,-1.2305,-1.2305,-1.2305,-1.2305,-1.2305,-1.2305,-1.2305,-1.2305,-1.2305,-1.2305,-1.2305,-1.2305,-1.2305,-1.2305,-1.2305,-1.2305,-1.2305,-1.2305,-1.2305,-1.2305,-0.4698,-0.5389,-0.6152,0.0,0.0,0.0,-0.8777,-0.9001,-0.9369,0.0,0.0,0.0,0.0,0.0,0.0,0.0,0.0,0.0,0.0,0.0,0.0,0.0,0.0,0.0,0.0,0.0,0.0,0.0,0.0,0.0,0.0,0.0,0.0,0.0,0.0,0.0,0.0,-1.2151,-1.2291,-1.2291,-1.2291,-1.2298,-1.2305,-1.2305,-1.2305,-1.2305,-1.2305,-1.2305,-1.2305,-1.2305,-1.2305,-1.2305,-1.2305,-1.2305,-1.2305,-1.2305,-1.2305,-1.2305,-1.2305,-1.2305,-1.2305,-1.2305,-1.2305,-1.2305,-1.2305,-1.2305,-1.2305,-1.2305,-1.2305,-1.2305,-1.2305,-1.2305,-1.2305,-1.2305,-1.2305,-1.2305,-1.2305,-1.2305,-1.2305,-1.2305,-1.2305,-1.2305,-1.2305,-1.2305,-1.2305,-1.2305,-1.2305,-1.2305,-1.2305,-1.2305,-1.2305,-1.2305,-1.2305,-1.2305,-1.2305,-1.2305,-1.2305,-1.2305,-1.2305,-1.2305,-1.2305,-1.2305,-1.2305,-1.2305,-1.2305,-1.2305,-1.2305,-1.2305,-1.2305,-1.2305,-1.2305,-1.2305,-0.4782,-0.5693,0.0,0.0,0.0,0.0,0.0,-0.9453,0.0,0.0,0.0,0.0,0.0,0.0,0.0,0.0,0.0,0.0,0.0,0.0,0.0,0.0,0.0,0.0,0.0,0.0,0.0,0.0,0.0,0.0,0.0,0.0,0.0,0.0,0.0,0.0,0.0,0.0,-1.1683,-1.1655,-1.1897,-1.2104,-1.2305,-1.2305,-1.2305,-1.2305,-1.2305,-1.2305,-1.2305,-1.2305,-1.2305,-1.2305,-1.2305,-1.2305,-1.2305,-1.2305,-1.2305,-1.2305,-1.2305,-1.2305,-1.2305,-1.2305,-1.2305,-1.2305,-1.2305,-1.2305,-1.2305,-1.2305,-1.2305,-1.2305,-1.2305,-1.2305,-1.2305,-1.2305,-1.2305,-1.2305,-1.2305,-1.2305,-1.2305,-1.2305,-1.2305,-1.2261,-1.2114,-1.2077,-1.2077,-1.2077,-1.2077,-1.215,-1.2268,-1.2305,-1.2305,-1.2305,-1.2305,-1.2305,-1.2305,-1.2305,-1.2305,-1.2305,-1.2305,-1.2305,-1.2305,-1.2305,-1.2305,-1.2305,-1.2305,-1.2305,-1.2305,-1.2305,-1.2305,-1.2305,-1.2305,-1.2305,-0.5465,0.0,0.0,0.0,0.0,0.0,0.0,0.0,0.0,0.0,0.0,0.0,0.0,0.0,0.0,0.0,0.0,0.0,0.0,0.0,0.0,0.0,0.0,0.0,0.0,0.0,0.0,0.0,0.0,0.0,0.0,0.0,0.0,0.0,0.0,0.0,0.0,0.0,0.0,-1.1395,-1.1603,-1.1784,-1.1964,-1.2198,-1.2305,-1.2305,-1.2305,-1.2305,-1.2305,-1.2305,-1.2305,-1.2305,-1.2305,-1.2305,-1.2305,-1.2305,-1.2305,-1.2305,-1.2305,-1.2305,-1.2305,-1.2305,-1.2305,-1.2305,-1.2305,-1.2305,-1.2268,-1.2187,-1.2187,-1.2157,-1.2077,-1.2077,-1.2114,-1.2261,-1.2224,-1.2187,-1.2187,-1.2114,-1.2077,-1.2077,-1.2077,-1.2003,-1.1892,-1.1892,-1.1892,-1.2003,-1.2077,-1.2157,-1.2268,-1.2305,-1.2305,-1.2305,-1.2305,-1.2305,-1.2305,-1.2305,-1.2305,-1.2305,-1.2305,-1.2305,-1.2305,-1.2305,-1.2305,-1.2305,-1.2305,-1.2305,-1.2305,-1.2305,-1.2305,-1.2305,-1.2305,-1.2305,-0.6412,0.0,0.0,0.0,0.0,0.0,0.0,0.0,0.0,0.0,0.0,0.0,0.0,0.0,0.0,0.0,0.0,0.0,0.0,0.0,0.0,0.0,0.0,0.0,0.0,0.0,0.0,0.0,0.0,0.0,0.0,0.0,0.0,0.0,0.0,0.0,0.0,0.0,0.0,0.0,-1.1342,-1.1349,-1.1369,-1.1964,-1.2238,-1.2265,-1.2291,-1.2305,-1.2305,-1.2305,-1.2305,-1.2305,-1.2305,-1.2305,-1.2305,-1.2305,-1.2305,-1.2305,-1.2305,-1.2298,-1.2268,-1.2298,-1.2268,-1.2268,-1.2268,-1.2261,-1.2224,-1.2003,-1.1966,-1.1929,-1.1744,-1.1706,-1.1781,-1.2157,-1.2114,-1.1966,-1.1966,-1.1818,-1.1706,-1.1706,-1.1706,-1.1706,-1.1669,-1.1669,-1.1744,-1.1929,-1.215,-1.2268,-1.2305,-1.2305,-1.2305,-1.2305,-1.2305,-1.2305,-1.2305,-1.2305,-1.2298,-1.2268,-1.2298,-1.2298,-1.2268,-1.2298,-1.2305,-1.2305,-1.2305,-1.2305,-1.2305,-1.2305,-1.2305,-1.2305,-1.2305,-1.2305,0.0,-0.6826,0.0,0.0,0.0,0.0,0.0,0.0,0.0,0.0,0.0,0.0,0.0,0.0,0.0,0.0,0.0,0.0,0.0,0.0,0.0,0.0,0.0,0.0,0.0,0.0,0.0,0.0,0.0,0.0,0.0,0.0,0.0,0.0,0.0,0.0,-1.0687,-1.0747,-1.078,0.0,-1.0982,-1.1089,-1.1096,-1.145,-1.1744,-1.2013,-1.2204,-1.2305,-1.2305,-1.2305,-1.2305,-1.2305,-1.2305,-1.2305,-1.2305,-1.2305,-1.2305,-1.2305,-1.2305,-1.2187,-1.2077,-1.2268,-1.2077,-1.1855,-1.2003,-1.1966,-1.1818,-1.1781,-1.1744,-1.1744,-1.1706,-1.1706,-1.1706,-1.1818,-1.1781,-1.1744,-1.1744,-1.1744,-1.1706,-1.1706,-1.1706,-1.1632,-1.1484,-1.1446,-1.1521,-1.1744,-1.1929,-1.2114,-1.2268,-1.2305,-1.2305,-1.2305,-1.2305,-1.2305,-1.2305,-1.2305,-1.2224,-1.2077,-1.2224,-1.2224,-1.2077,-1.2231,-1.2305,-1.2305,-1.2305,-1.2305,-1.2305,-1.2305,-1.2305,-1.2305,-1.2305,-1.2305,0.0,0.0,0.0,0.0,0.0,0.0,0.0,0.0,0.0,0.0,0.0,0.0,0.0,0.0,0.0,0.0,0.0,0.0,0.0,0.0,0.0,0.0,0.0,0.0,0.0,0.0,0.0,0.0,0.0,0.0,0.0,0.0,0.0,0.0,0.0,0.0,-1.0072,-1.0428,-1.0269,-0.9588,-1.0051,-1.012,-0.9839,-1.0919,-1.151,-1.167,-1.1971,-1.2098,-1.2104,-1.2245,-1.2305,-1.2305,-1.2305,-1.2305,-1.2298,-1.2194,-1.2157,-1.215,-1.204,-1.1929,-1.1855,-1.1966,-1.1855,-1.1706,-1.1818,-1.1781,-1.1669,-1.1595,-1.1558,-1.1521,-1.1446,-1.1409,-1.1409,-1.1409,-1.1484,-1.1558,-1.1558,-1.1484,-1.1409,-1.1409,-1.1409,-1.1372,-1.126,-1.1335,-1.1446,-1.1595,-1.1787,-1.2046,-1.2268,-1.2201,-1.2127,-1.2127,-1.2046,-1.2003,-1.2003,-1.2003,-1.1966,-1.1855,-1.1966,-1.1966,-1.1855,-1.1966,-1.2114,-1.2305,-1.2305,-1.2305,-1.2305,-1.2305,-1.2305,-1.2305,-1.2305,-1.2305,0.0,0.0,0.0,0.0,0.0,0.0,0.0,0.0,0.0,0.0,0.0,0.0,0.0,0.0,0.0,0.0,0.0,0.0,0.0,0.0,0.0,0.0,0.0,0.0,0.0,0.0,0.0,0.0,0.0,0.0,0.0,0.0,0.0,0.0,0.0,-1.0072,-0.9326,-0.9945,-0.9652,-0.8522,-0.9037,-0.8967,-0.8495,-1.0104,-1.0923,-1.1124,-1.1558,-1.1753,-1.1813,-1.1906,-1.2031,-1.2187,-1.2033,-1.2077,-1.2187,-1.2003,-1.1966,-1.1929,-1.1744,-1.1669,-1.1632,-1.1706,-1.1632,-1.1595,-1.1632,-1.1632,-1.1558,-1.1409,-1.1335,-1.1298,-1.1149,-1.1111,-1.1111,-1.1111,-1.1223,-1.1335,-1.1335,-1.1223,-1.1111,-1.1111,-1.1111,-1.1111,-1.1111,-1.1223,-1.1372,-1.149,-1.1682,-1.1905,-1.2157,-1.1979,-1.1837,-1.1837,-1.175,-1.1706,-1.1706,-1.1706,-1.1706,-1.1632,-1.1669,-1.1669,-1.1632,-1.1669,-1.1855,-1.2194,-1.2187,-1.2187,-1.2187,-1.2187,-1.2187,-1.2187,-1.2187,-1.2187,0.0,0.0,0.0,0.0,0.0,0.0,0.0,0.0,0.0,0.0,0.0,0.0,0.0,0.0,0.0,0.0,0.0,0.0,0.0,0.0,0.0,0.0,0.0,0.0,0.0,0.0,0.0,0.0,0.0,0.0,0.0,0.0,-1.0301,-0.9678,-0.9646,0.0,-0.8651,-0.8748,-0.8683,-0.849,-0.8425,-0.8323,-0.8248,-0.8381,-0.8986,-0.9955,-1.0707,-1.1182,-1.1335,-1.0671,-1.0925,-1.1706,-1.1019,-1.1174,-1.1781,-1.1744,-1.1744,-1.1744,-1.1706,-1.1595,-1.1484,-1.1632,-1.1446,-1.1223,-1.1409,-1.1335,-1.1186,-1.1149,-1.1149,-1.1149,-1.1111,-1.1111,-1.1111,-1.1111,-1.1111,-1.1149,-1.1149,-1.1111,-1.1111,-1.1111,-1.1111,-1.1111,-1.1111,-1.1111,-1.1223,-1.1453,-1.1533,-1.1601,-1.1744,-1.1639,-1.1533,-1.1533,-1.1632,-1.1706,-1.1706,-1.1706,-1.1632,-1.1446,-1.1595,-1.1632,-1.1446,-1.1595,-1.1744,-1.1781,-1.1781,-1.1781,-1.1781,-1.1781,-1.1781,-1.1781,-1.1781,-1.1781,0.0,0.0,0.0,0.0,0.0,0.0,0.0,0.0,0.0,0.0,0.0,0.0,0.0,0.0,0.0,0.0,0.0,0.0,0.0,0.0,0.0,0.0,0.0,0.0,0.0,0.0,0.0,0.0,0.0,0.0,0.0,-0.9428,-0.9262,-0.8941,-0.8941,0.0,-0.7944,-0.8296,-0.8258,-0.7767,-0.719,-0.6896,-0.6924,-0.7153,-0.8017,-0.934,-0.9837,-1.0112,-1.0244,-1.0147,-1.0151,-1.0265,-1.0433,-1.0714,-1.1062,-1.1403,-1.1521,-1.1521,-1.1409,-1.1298,-1.126,-1.1335,-1.1223,-1.1111,-1.1223,-1.1186,-1.1111,-1.1111,-1.1111,-1.1111,-1.1111,-1.1111,-1.1111,-1.1111,-1.1111,-1.1111,-1.1111,-1.1111,-1.1111,-1.1111,-1.1111,-1.1111,-1.1111,-1.1111,-1.1149,-1.1267,-1.1267,-1.1304,-1.1372,-1.1298,-1.1267,-1.1267,-1.1335,-1.1372,-1.1372,-1.1372,-1.1335,-1.1223,-1.1298,-1.1335,-1.1223,-1.1335,-1.1372,-1.1372,-1.1595,-1.1706,-1.1706,-1.1706,-1.1706,-1.1706,-1.1706,-1.1706,0.0,0.0,0.0,0.0,0.0,0.0,0.0,0.0,0.0,0.0,0.0,0.0,0.0,0.0,0.0,0.0,0.0,0.0,0.0,0.0,0.0,0.0,0.0,0.0,0.0,0.0,0.0,0.0,0.0,0.0,-0.8382,-0.8355,-0.8291,-0.8096,-0.8096,-0.7777,-0.7097,-0.7582,-0.7512,-0.6859,-0.6145,-0.5822,-0.5822,-0.6214,-0.7088,-0.835,-0.8728,-0.8936,-0.9019,-0.9136,-0.9109,-0.8978,-0.9469,-0.9948,-1.0383,-1.0844,-1.1149,-1.1298,-1.1149,-1.1111,-1.1111,-1.1111,-1.0962,-1.0812,-1.0812,-1.0663,-1.047,-1.047,-1.047,-1.047,-1.047,-1.047,-1.047,-1.047,-1.047,-1.0588,-1.0999,-1.0925,-1.085,-1.1074,-1.0925,-1.085,-1.1074,-1.1111,-1.1111,-1.1111,-1.1111,-1.1111,-1.1111,-1.1111,-1.0999,-1.0738,-1.0925,-1.1037,-1.0812,-1.0962,-1.1111,-1.1111,-1.1111,-1.1111,-1.1111,-1.1111,-1.1111,-1.1111,-1.1409,-1.1558,-1.1558,-1.1558,-1.1558,-1.1558,-1.1558,-1.1558,0.0,0.0,0.0,0.0,0.0,0.0,0.0,0.0,0.0,0.0,0.0,0.0,0.0,0.0,0.0,0.0,0.0,0.0,0.0,0.0,0.0,0.0,0.0,0.0,0.0,0.0,0.0,0.0,0.0,0.0,-0.8016,-0.8027,-0.7702,-0.699,-0.699,-0.6666,-0.5987,-0.602,-0.602,-0.5954,-0.5716,-0.5617,-0.5617,-0.5524,-0.5851,-0.656,-0.7228,-0.764,-0.7826,-0.7099,-0.746,-0.8456,-0.7692,-0.8407,-0.9916,-0.996,-1.0475,-1.1111,-1.1111,-1.1111,-1.1111,-1.1111,-1.0588,-0.996,-0.996,-0.9425,-0.8813,-0.8813,-0.8813,-0.8813,-0.8813,-0.8813,-0.8813,-0.8813,-0.8813,-0.9231,-1.0775,-1.0513,-1.018,-1.0962,-1.0481,-1.0218,-1.0962,-1.1111,-1.1111,-1.1111,-1.1111,-1.1111,-1.1111,-1.1111,-1.07,-0.969,-1.0475,-1.0775,-1.003,-1.0663,-1.1111,-1.1111,-1.1111,-1.1111,-1.1111,-1.1111,-1.1111,-1.1111,-1.1111,-1.1149,-1.1149,-1.1149,-1.1149,-1.1149,-1.1149,-1.1149,0.0,0.0,0.0,0.0,0.0,0.0,0.0,0.0,0.0,0.0,0.0,0.0,0.0,0.0,0.0,0.0,0.0,0.0,0.0,0.0,0.0,0.0,0.0,0.0,0.0,0.0,0.0,0.0,0.0,0.0,-0.6508,-0.6517,-0.6447,-0.6276,-0.6247,-0.6148,-0.5892,-0.5785,-0.5719,-0.5719,-0.5554,-0.5455,-0.5455,-0.5428,-0.5524,-0.5785,-0.6017,-0.6407,-0.6868,-0.6691,-0.6614,-0.6671,-0.6953,-0.7468,-0.8125,-0.8781,-0.92,-0.9437,-0.9519,-0.9566,-0.9566,-0.9566,-0.9382,-0.9122,-0.9122,-0.8927,-0.8703,-0.8703,-0.8703,-0.8703,-0.8703,-0.8703,-0.8703,-0.8703,-0.8437,-0.8432,-0.9377,-0.9344,-0.9231,-0.9496,-0.9344,-0.9344,-0.9949,-1.0625,-1.1111,-1.1111,-0.9334,-0.8765,-1.0844,-0.9906,-0.9415,-1.0438,-0.9943,-0.9873,-1.0625,-1.0475,-1.055,-1.1074,-1.1111,-1.1111,-1.1111,-1.1111,-1.1111,-1.1111,-1.1111,-1.1111,-1.1111,-1.1111,-1.1111,-1.1111,-1.1111,-1.1111,-0.3989,0.0,0.0,0.0,0.0,0.0,0.0,0.0,0.0,0.0,0.0,0.0,0.0,0.0,0.0,0.0,0.0,0.0,0.0,0.0,0.0,0.0,0.0,0.0,0.0,0.0,0.0,0.0,0.0,0.0,-0.5428,-0.5435,-0.5486,-0.5564,-0.5618,-0.5643,-0.5643,-0.5562,-0.5521,-0.5521,-0.5458,-0.5395,-0.5395,-0.5395,-0.5395,-0.5395,-0.5395,-0.5653,-0.6086,-0.6168,-0.5945,-0.5669,-0.6285,-0.6706,-0.7091,-0.7758,-0.817,-0.8416,-0.8594,-0.8632,-0.8642,-0.8675,-0.8513,-0.8284,-0.8284,-0.8093,-0.7902,-0.7902,-0.7902,-0.7902,-0.7902,-0.7902,-0.7902,-0.7902,-0.7638,-0.7446,-0.7825,-0.8093,-0.836,-0.8661,-0.847,-0.8513,-0.9117,-0.9836,-1.047,-1.1037,-0.8808,-0.8089,-1.0769,-0.9868,-0.9415,-1.0588,-0.9981,-0.9836,-1.0625,-1.0443,-1.0513,-1.1074,-1.1111,-1.1111,-1.1111,-1.1111,-1.1111,-1.1111,-1.1111,-1.1111,-1.1111,-1.1111,-1.1111,-1.1111,-1.1111,-1.1111,0.0,0.0,0.0,0.0,0.0,0.0,0.0,0.0,0.0,0.0,0.0,0.0,0.0,0.0,0.0,0.0,0.0,0.0,0.0,0.0,0.0,0.0,0.0,0.0,0.0,0.0,0.0,0.0,0.0,-0.4752,-0.4874,-0.4887,-0.4887,-0.4887,-0.5022,-0.5093,-0.5093,-0.5274,-0.5385,-0.5388,-0.5388,-0.5392,-0.5395,-0.5395,-0.5395,-0.5395,-0.5395,-0.5395,-0.5395,-0.5395,-0.5484,-0.5583,-0.5583,-0.615,-0.6955,-0.6959,-0.7456,-0.8155,-0.8338,-0.8414,-0.8447,-0.8585,-0.8084,-0.7437,-0.748,-0.6911,-0.63,-0.63,-0.63,-0.63,-0.63,-0.63,-0.63,-0.63,-0.63,-0.63,-0.63,-0.6911,-0.771,-0.8475,-0.8016,-0.771,-0.8513,-0.8627,-0.9188,-1.0844,-0.9755,-0.9306,-1.085,-1.1037,-1.07,-0.9954,-1.0513,-1.0663,-0.9954,-1.0588,-1.1037,-1.1111,-1.1074,-1.1074,-1.1111,-1.1111,-1.1111,-1.1111,-1.1111,-1.1111,-1.1111,-1.1111,-1.1111,-1.1111,-1.1111,-1.1111,-0.3566,0.0,0.0,0.0,0.0,0.0,0.0,0.0,0.0,0.0,0.0,0.0,0.0,0.0,0.0,0.0,0.0,0.0,0.0,0.0,0.0,0.0,0.0,0.0,0.0,0.0,0.0,0.0,0.0,-0.4621,-0.4745,-0.486,-0.4887,-0.4887,-0.4928,-0.4945,-0.4945,-0.502,-0.5091,-0.5196,-0.5196,-0.5254,-0.5395,-0.5395,-0.5395,-0.5395,-0.5395,-0.5395,-0.5395,-0.5395,-0.5419,-0.5457,-0.5457,-0.5615,-0.5868,-0.5949,-0.6132,-0.6325,-0.6488,-0.6544,-0.6575,-0.6708,-0.6614,-0.6448,-0.657,-0.6493,-0.63,-0.63,-0.63,-0.63,-0.63,-0.63,-0.63,-0.63,-0.63,-0.63,-0.63,-0.6493,-0.6683,-0.6911,-0.6795,-0.6721,-0.6911,-0.6949,-0.7897,-1.0694,-1.0732,-1.0169,-0.9453,-0.9036,-0.8846,-0.9008,-0.8203,-0.8241,-0.9765,-0.9041,-0.9226,-1.0999,-1.055,-1.0475,-1.1074,-1.1111,-1.1111,-1.1111,-1.1111,-1.1111,-1.1111,-1.1111,-1.1111,-1.1111,-1.1111,-1.1111,-0.4097,0.0,0.0,0.0,0.0,0.0,0.0,0.0,0.0,0.0,0.0,0.0,0.0,0.0,0.0,0.0,0.0,0.0,0.0,0.0,0.0,0.0,0.0,0.0,0.0,0.0,0.0,0.0,-0.4491,-0.4528,-0.4617,-0.468,-0.4728,-0.4728,-0.4792,-0.4823,-0.4823,-0.4857,-0.4931,-0.5012,-0.5012,-0.5121,-0.5267,-0.5267,-0.5334,-0.5395,-0.5395,-0.5395,-0.5395,-0.5395,-0.5395,-0.5395,-0.5395,-0.5395,-0.5405,-0.5494,-0.5528,-0.5549,-0.5661,-0.5715,-0.5739,-0.5884,-0.5935,-0.5962,-0.6118,-0.6166,-0.6176,-0.6282,-0.63,-0.63,-0.63,-0.63,-0.63,-0.63,-0.63,-0.63,-0.63,-0.63,-0.63,-0.63,-0.63,-0.63,-0.63,-0.63,-0.7176,-0.9717,-1.0094,-0.9679,-0.8508,-0.8093,-0.8093,-0.8623,-0.7863,-0.7863,-0.9273,-0.8551,-0.8585,-1.0019,-0.9647,-0.9614,-1.0094,-1.0094,-1.0094,-1.0094,-1.0094,-1.0094,-1.0094,-1.0775,-1.1111,-1.1111,-1.1111,-1.1111,-0.4844,-0.4871,0.0,0.0,0.0,0.0,0.0,-0.51,0.0,0.0,0.0,0.0,0.0,0.0,0.0,0.0,0.0,0.0,0.0,0.0,0.0,0.0,0.0,0.0,0.0,0.0,0.0,-0.4491,-0.4491,-0.4491,-0.4491,-0.4491,-0.4491,-0.4491,-0.4624,-0.4667,-0.4667,-0.4799,-0.4877,-0.4864,-0.4864,-0.4938,-0.5076,-0.5076,-0.5192,-0.5368,-0.5368,-0.5378,-0.5395,-0.5395,-0.5395,-0.5395,-0.5395,-0.5395,-0.5395,-0.5395,-0.5395,-0.5416,-0.5552,-0.5566,-0.5589,-0.5732,-0.5779,-0.5806,-0.5922,-0.5969,-0.6,-0.6231,-0.6276,-0.6279,-0.6293,-0.63,-0.63,-0.63,-0.63,-0.63,-0.63,-0.63,-0.63,-0.63,-0.63,-0.63,-0.63,-0.63,-0.6795,-0.8208,-0.8437,-0.8246,-0.7787,-0.771,-0.7902,-0.8399,-0.8437,-0.8475,-0.8551,-0.847,-0.8513,-0.8699,-0.8627,-0.8623,-0.8703,-0.8703,-0.8703,-0.8703,-0.8703,-0.8703,-0.8703,-1.0132,-1.085,-1.085,-1.085,-1.085,-0.5155,-0.5361,-0.5527,0.0,0.0,0.0,0.0,-0.4476,0.0,0.0,0.0,0.0,0.0,0.0,0.0,0.0,0.0,0.0,0.0,0.0,0.0,0.0,0.0,0.0,0.0,0.0,-0.4491,-0.4491,-0.4491,-0.4491,-0.4491,-0.4491,-0.4491,-0.4491,-0.4518,-0.4535,-0.4535,-0.4563,-0.4641,-0.4735,-0.4735,-0.4813,-0.4928,-0.4928,-0.5009,-0.5176,-0.5176,-0.5247,-0.5395,-0.5395,-0.5395,-0.5395,-0.5395,-0.5395,-0.5395,-0.5395,-0.5395,-0.5399,-0.5429,-0.544,-0.5467,-0.5583,-0.563,-0.5657,-0.5803,-0.5844,-0.5878,-0.603,-0.6074,-0.6105,-0.6269,-0.63,-0.63,-0.63,-0.63,-0.63,-0.63,-0.63,-0.63,-0.63,-0.63,-0.63,-0.63,-0.63,-0.6412,-0.6718,-0.6756,-0.6718,-0.6644,-0.6606,-0.6644,-0.676,-0.6756,-0.7026,-0.7676,-0.7138,-0.733,-0.8627,-0.8093,-0.8016,-0.8665,-0.8703,-0.8703,-0.8703,-0.8703,-0.8703,-0.8703,-0.9003,-0.9155,-0.9155,-0.9155,-0.9155,0.0,0.0,-0.5381,-0.4917,0.0,0.0,0.0,0.0,0.0,0.0,0.0,0.0,0.0,0.0,0.0,0.0,0.0,0.0,0.0,0.0,0.0,0.0,0.0,0.0,0.0,0.0,-0.4491,-0.4491,-0.4491,-0.4491,-0.4491,-0.4491,-0.4491,-0.4491,-0.4491,-0.4491,-0.4491,-0.4491,-0.4528,-0.4604,-0.4604,-0.4657,-0.4806,-0.4806,-0.4925,-0.51,-0.51,-0.5216,-0.5395,-0.5395,-0.5395,-0.5395,-0.5395,-0.5395,-0.5395,-0.5395,-0.5395,-0.5395,-0.5395,-0.5395,-0.5405,-0.5484,-0.5511,-0.5539,-0.565,-0.5745,-0.5817,-0.5895,-0.5915,-0.5952,-0.6105,-0.6146,-0.6166,-0.6282,-0.63,-0.63,-0.63,-0.63,-0.63,-0.63,-0.63,-0.63,-0.63,-0.63,-0.63,-0.63,-0.63,-0.63,-0.63,-0.63,-0.63,-0.63,-0.63,-0.6451,-0.6872,-0.6528,-0.6644,-0.7446,-0.7138,-0.7099,-0.7484,-0.7522,-0.7522,-0.7522,-0.7522,-0.7522,-0.7522,-0.7522,-0.7902,-0.8703,-0.8703,-0.8703,0.0,0.0,0.0,0.0,0.0,-0.4567,0.0,0.0,0.0,-0.4023,0.0,0.0,0.0,0.0,0.0,0.0,0.0,0.0,0.0,0.0,0.0,0.0,0.0,0.0,0.0,0.0,-0.4426,-0.4487,-0.4436,-0.4429,-0.4487,-0.4491,-0.4491,-0.4491,-0.4491,-0.4491,-0.4491,-0.4491,-0.4491,-0.4491,-0.4491,-0.4556,-0.4646,-0.4646,-0.4792,-0.5015,-0.5015,-0.5148,-0.5351,-0.5351,-0.5368,-0.5395,-0.5395,-0.5395,-0.5395,-0.5395,-0.5395,-0.5395,-0.5395,-0.5395,-0.5395,-0.5395,-0.5395,-0.5419,-0.5542,-0.5627,-0.5722,-0.5752,-0.5762,-0.5796,-0.5909,-0.5969,-0.6023,-0.6186,-0.6279,-0.63,-0.63,-0.63,-0.63,-0.63,-0.63,-0.63,-0.63,-0.63,-0.63,-0.63,-0.63,-0.63,-0.63,-0.63,-0.63,-0.63,-0.63,-0.63,-0.63,-0.63,-0.63,-0.63,-0.63,-0.63,-0.63,-0.63,-0.63,-0.63,-0.63,-0.63,-0.63,-0.63,-0.6988,-0.8246,-0.8246,-0.8246,0.0,0.0,0.0,0.0,-0.494,0.0,0.0,0.0,-0.3892,-0.3351,0.0,0.0,0.0,0.0,0.0,0.0,0.0,0.0,0.0,0.0,0.0,0.0,0.0,0.0,0.0,0.0,0.0,-0.447,-0.4219,-0.4185,-0.4477,-0.4491,-0.4491,-0.4491,-0.4491,-0.4491,-0.4491,-0.4491,-0.4491,-0.4491,-0.4491,-0.4498,-0.4515,-0.4515,-0.4607,-0.4741,-0.4741,-0.4897,-0.5123,-0.5123,-0.5237,-0.5395,-0.5395,-0.5395,-0.5395,-0.5395,-0.5395,-0.5395,-0.5395,-0.5395,-0.5395,-0.5395,-0.5395,-0.5399,-0.5416,-0.5433,-0.5474,-0.5576,-0.5613,-0.5647,-0.5789,-0.5928,-0.5996,-0.6013,-0.6162,-0.63,-0.63,-0.63,-0.63,-0.63,-0.63,-0.63,-0.63,-0.63,-0.63,-0.63,-0.63,-0.63,-0.63,-0.63,-0.63,-0.63,-0.63,-0.63,-0.63,-0.63,-0.63,-0.63,-0.63,-0.63,-0.63,-0.63,-0.63,-0.63,-0.63,-0.63,-0.63,-0.63,-0.6377,-0.6567,-0.6567,-0.6567,0.0,0.0,0.0,0.0,0.0,0.0,0.0,0.0,-0.3602,0.0,0.0,0.0,0.0,0.0,0.0,0.0,0.0,0.0,0.0,0.0,0.0,0.0,0.0,0.0,0.0,0.0,0.0,0.0,0.0,-0.4089,-0.4328,-0.4447,-0.4491,-0.4491,-0.4491,-0.4491,-0.4491,-0.4491,-0.4491,-0.4491,-0.4491,-0.4491,-0.4491,-0.4491,-0.4576,-0.4691,-0.4691,-0.4813,-0.4975,-0.4975,-0.5094,-0.5226,-0.5226,-0.5281,-0.5395,-0.5395,-0.5395,-0.5395,-0.5395,-0.5395,-0.5395,-0.5395,-0.5395,-0.5395,-0.5395,-0.5395,-0.5409,-0.5474,-0.5491,-0.5525,-0.564,-0.5786,-0.5918,-0.5973,-0.6149,-0.63,-0.63,-0.63,-0.63,-0.63,-0.63,-0.63,-0.63,-0.63,-0.63,-0.63,-0.63,-0.63,-0.63,-0.63,-0.63,-0.63,-0.63,-0.63,-0.63,-0.63,-0.63,-0.63,-0.63,-0.63,-0.63,-0.63,-0.63,-0.63,-0.63,-0.63,-0.63,-0.63,-0.6219,-0.606,-0.6219,-0.63,-0.4576,0.0,0.0,0.0,0.0,0.0,0.0,0.0,0.0,0.0,0.0,0.0,0.0,0.0,0.0,0.0,0.0,0.0,0.0,0.0,0.0,0.0,0.0,0.0,0.0,0.0,0.0,0.0,0.0,0.0,-0.4177,-0.4345,-0.445,-0.4487,-0.4491,-0.4491,-0.4491,-0.4491,-0.4491,-0.4491,-0.4491,-0.4491,-0.4491,-0.4491,-0.4552,-0.4655,-0.4655,-0.4714,-0.4857,-0.4857,-0.4911,-0.5046,-0.5083,-0.5199,-0.5337,-0.5378,-0.5395,-0.5395,-0.5395,-0.5395,-0.5395,-0.5395,-0.5395,-0.5395,-0.5395,-0.5395,-0.5395,-0.5395,-0.5395,-0.5423,-0.5532,-0.5633,-0.5783,-0.5932,-0.6084,-0.6248,-0.6289,-0.6257,-0.618,-0.618,-0.618,-0.6141,-0.6103,-0.6222,-0.63,-0.63,-0.63,-0.63,-0.63,-0.63,-0.63,-0.63,-0.63,-0.63,-0.63,-0.6219,-0.618,-0.6106,-0.6106,-0.6106,-0.6106,-0.6106,-0.6106,-0.6106,-0.6106,-0.6106,-0.6106,-0.6106,-0.6025,-0.5825,-0.6141,-0.6222,0.0,0.0,0.0,0.0,0.0,0.0,0.0,0.0,-0.3741,0.0,0.0,0.0,0.0,0.0,-0.3252,-0.3125,0.0,0.0,0.0,0.0,0.0,0.0,0.0,0.0,0.0,0.0,0.0,0.0,0.0,0.0,-0.4157,-0.42,-0.4294,-0.4487,-0.4491,-0.4491,-0.4491,-0.4491,-0.4491,-0.4491,-0.4491,-0.4491,-0.4491,-0.4491,-0.4494,-0.4498,-0.4498,-0.4586,-0.4697,-0.4697,-0.4789,-0.4911,-0.5046,-0.5103,-0.5123,-0.5341,-0.5395,-0.5395,-0.5395,-0.5395,-0.5395,-0.5395,-0.5395,-0.5395,-0.5395,-0.5395,-0.5395,-0.5395,-0.5395,-0.5395,-0.5399,-0.5518,-0.5633,-0.5776,-0.5925,-0.6078,-0.6269,-0.6099,-0.5902,-0.5902,-0.586,-0.5786,-0.5637,-0.5986,-0.63,-0.63,-0.63,-0.63,-0.63,-0.63,-0.63,-0.63,-0.63,-0.63,-0.63,-0.606,-0.5825,-0.5637,-0.5637,-0.5637,-0.5637,-0.5637,-0.5637,-0.5637,-0.5637,-0.5637,-0.5637,-0.5637,-0.5598,-0.5637,-0.6067,-0.6064,0.0,0.0,-0.4443,-0.4193,0.0,0.0,0.0,0.0,0.0,0.0,0.0,0.0,0.0,0.0,-0.3256,-0.3125,-0.3023,0.0,0.0,0.0,0.0,0.0,0.0,0.0,0.0,0.0,0.0,0.0,0.0,0.0,0.0,-0.414,-0.4287,-0.4484,-0.4491,-0.4491,-0.4491,-0.4491,-0.4491,-0.4491,-0.4491,-0.4491,-0.4491,-0.4491,-0.4491,-0.4491,-0.4491,-0.4518,-0.4566,-0.4566,-0.4658,-0.4782,-0.4901,-0.5015,-0.5117,-0.5337,-0.5395,-0.5395,-0.5395,-0.5395,-0.5395,-0.5395,-0.5395,-0.5395,-0.5395,-0.5292,-0.5223,-0.5362,-0.5292,-0.519,-0.519,-0.5301,-0.5411,-0.5409,-0.5552,-0.5695,-0.5803,-0.5754,-0.5712,-0.5712,-0.5673,-0.5634,-0.5598,-0.5715,-0.5834,-0.5834,-0.5834,-0.5834,-0.5834,-0.5834,-0.5834,-0.5834,-0.5834,-0.5834,-0.5834,-0.5754,-0.5676,-0.5598,-0.5598,-0.5598,-0.5598,-0.5598,-0.5598,-0.5598,-0.5598,-0.5598,-0.5598,-0.5598,-0.5521,-0.5401,-0.5715,-0.5754,-0.4408,-0.4436,0.0,0.0,-0.4075,0.0,0.0,0.0,0.0,0.0,0.0,0.0,0.0,0.0,-0.3276,-0.3179,-0.302,-0.2754,0.0,0.0,0.0,0.0,0.0,0.0,0.0,0.0,-0.2757,-0.301,0.0,0.0,0.0,0.0,-0.423,-0.4484,-0.4491,-0.4491,-0.4491,-0.4491,-0.4491,-0.4491,-0.4491,-0.4491,-0.4491,-0.4491,-0.4491,-0.4491,-0.4491,-0.4491,-0.4491,-0.4411,-0.444,-0.4547,-0.4657,-0.4784,-0.4885,-0.5251,-0.5395,-0.5395,-0.5326,-0.5292,-0.5292,-0.5196,-0.5196,-0.5196,-0.5196,-0.5093,-0.5027,-0.5163,-0.5093,-0.499,-0.499,-0.506,-0.513,-0.5159,-0.5294,-0.5436,-0.5536,-0.5523,-0.5479,-0.5479,-0.5443,-0.5404,-0.5404,-0.5404,-0.5443,-0.5559,-0.5598,-0.5598,-0.5598,-0.5598,-0.5598,-0.5598,-0.5598,-0.5559,-0.5479,-0.5479,-0.5482,-0.5404,-0.5404,-0.5404,-0.5404,-0.5404,-0.5404,-0.5404,-0.5404,-0.5404,-0.5404,-0.5404,-0.5326,-0.5207,-0.5326,-0.5404]}]]